[[[{"header":{"parameterUnit":"kt","parameterCategory":2,"dx":1,"dy":1,"la1":29.587661999999998,"la2":31.0,"lo1":-88.76705300000003,"lo2":-86.6583820000003,"nx":115,"ny":88,"refTime":"2022-09-26T18:00:00:Z","depth":0,"parameterNumber":1,"parameterNumberName":"U-component_of_WINDS"},"data":[10.3907,10.4677,10.5265,10.473,10.3415,10.2293,10.0864,9.9408,9.8588,9.6512,9.4849,9.4946,9.4785,9.358,9.4329,9.5553,9.7875,10.1619,10.1903,10.164,10.6301,10.4868,10.2744,10.227,10.161,10.1243,10.1113,10.1168,10.2611,10.1414,10.0189,9.9902,9.861,9.7999,9.7278,9.5652,9.4147,9.3432,9.3094,9.2635,9.3308,9.4587,9.5763,9.654,9.7446,9.8011,9.8366,9.852,9.8557,9.8145,9.7055,9.517,9.3503,9.212,9.1161,9.0381,8.9544,8.9529,8.956,8.9682,8.9801,8.9923,8.9939,8.9922,8.9893,8.986,8.9786,8.9735,8.9625,8.9598,8.9581,8.947,8.9384,8.9259,8.913,8.901,8.8886,8.8856,8.8833,8.8871,8.8871,8.8871,8.8901,8.8969,8.8969,8.8961,8.8981,8.8953,8.8864,8.8321,8.7793,8.7234,8.6664,8.6108,8.5671,8.5707,8.6152,8.6538,8.7117,8.8201,8.9248,9.0196,9.0449,8.9655,9.081,9.2218,9.3013,9.3193,9.4277,9.4602,9.4927,9.4967,9.4658,9.4051,9.31,10.412,10.4779,10.5612,10.5475,10.4684,10.4384,10.3034,10.1413,10.2331,10.0318,9.6844,9.9091,9.7336,9.6122,9.6229,9.7265,9.9098,10.241,10.355,10.4235,10.6734,10.5669,10.4399,10.3252,10.2521,10.1831,10.1638,10.264,10.3843,10.3295,10.2352,10.1481,10.0907,10.0444,9.8933,9.7385,9.6009,9.5113,9.4423,9.3799,9.4733,9.6067,9.7001,9.7446,9.7757,9.8406,9.8557,9.8595,9.8594,9.8143,9.7424,9.6211,9.4991,9.3406,9.2261,9.1283,9.0521,8.9996,8.9694,8.9924,8.991,8.9825,8.9803,8.9817,8.9811,8.9773,8.9731,8.9648,8.9507,8.945,8.947,8.9448,8.9332,8.9194,8.9113,8.899,8.8894,8.8796,8.884,8.8814,8.8814,8.8814,8.8814,8.8814,8.8808,8.8833,8.8833,8.8833,8.8739,8.8251,8.8421,8.8277,8.766,8.6785,8.6008,8.6286,8.6911,8.7514,8.8572,8.9212,9.0079,9.1496,9.2146,9.1532,9.1641,9.2717,9.3518,9.424,9.4632,9.4957,9.5102,9.4967,9.4728,9.4339,9.3393,10.4447,10.5247,10.679,10.7116,10.6597,10.6557,10.6008,10.5108,10.4815,10.3504,10.2192,10.2848,10.183,9.9157,9.9308,9.9604,9.9039,10.2729,10.364,10.4272,10.5441,10.6133,10.5681,10.4318,10.3526,10.2873,10.2934,10.3331,10.4424,10.4493,10.4198,10.337,10.2289,10.1568,10.0956,9.9333,9.7995,9.7431,9.6734,9.7211,9.8693,9.9314,9.9758,10.0236,10.0582,10.1002,10.0906,10.0277,10.0129,9.9565,9.8395,9.7557,9.6261,9.4976,9.3915,9.2975,9.2231,9.1669,9.1133,9.0885,9.0713,9.0092,8.9823,8.9903,8.986,8.9594,8.9581,8.9543,8.943,8.9347,8.9368,8.9325,8.9259,8.9103,8.9019,8.8939,8.8846,8.8777,8.8745,8.8749,8.8749,8.8749,8.8782,8.8819,8.8894,8.8921,8.8808,8.8808,8.8612,8.8288,8.9238,8.9596,8.9,8.8226,8.7812,8.8011,8.8226,8.9113,9.0241,9.0882,9.1697,9.3042,9.3952,9.3735,9.3801,9.3982,9.4018,9.4668,9.5066,9.5163,9.5132,9.5035,9.4831,9.4587,9.4194,10.5082,10.5958,10.7483,10.8162,10.8077,10.8581,10.8712,10.8223,10.7512,10.7481,10.727,10.6706,10.4949,10.2227,10.2374,10.1075,10.024,10.2747,10.3414,10.3503,10.4817,10.5741,10.5612,10.4995,10.4824,10.441,10.4324,10.4603,10.5439,10.5186,10.4787,10.446,10.3663,10.2977,10.2617,10.1065,10.0235,10.0091,10.0127,10.1344,10.1794,10.2225,10.2321,10.2325,10.2652,10.2802,10.244,10.1774,10.1177,10.0838,9.9558,9.8383,9.7224,9.6772,9.5945,9.4893,9.416,9.334,9.2812,9.2571,9.1941,9.1076,9.0489,9.0243,8.99,8.9563,8.941,8.943,8.9352,8.9302,8.9232,8.9184,8.9145,8.9038,8.8923,8.8846,8.8795,8.872,8.8645,8.8645,8.8645,8.8716,8.8782,8.8857,8.9007,8.9119,8.9189,8.9273,8.9254,9.0003,9.1186,9.1263,9.062,9.0281,9.0288,9.0269,9.0024,9.0702,9.1532,9.2428,9.3325,9.4626,9.5886,9.5783,9.5422,9.4916,9.4807,9.5205,9.5199,9.5192,9.5192,9.5102,9.4899,9.6125,9.5737,10.5783,10.6993,10.6921,10.768,10.8687,11.0735,11.0518,10.8922,11.1782,11.2368,11.0552,10.94,10.6997,10.4898,10.488,10.3316,10.2694,10.3701,10.4281,10.1619,10.4228,10.5435,10.5472,10.5461,10.6065,10.6587,10.673,10.6417,10.667,10.6091,10.5366,10.4896,10.4389,10.4208,10.4027,10.2726,10.261,10.3097,10.4267,10.4696,10.4474,10.4275,10.4129,10.3268,10.3344,10.3636,10.327,10.2337,10.1135,10.0758,10.0038,9.9091,9.8208,9.76,9.6998,9.62,9.5532,9.4772,9.441,9.4378,9.3515,9.266,9.198,9.1381,9.0909,9.0547,9.0576,9.0576,9.0613,9.0514,9.0263,9.0199,8.993,8.9733,8.9239,8.8852,8.8758,8.872,8.8649,8.8612,8.872,8.9019,8.9161,8.9502,8.9689,9.0359,9.0621,9.074,9.1231,9.2391,9.2986,9.3079,9.2516,9.2081,9.2247,9.2485,9.2131,9.2131,9.2746,9.3614,9.504,9.6344,9.7649,9.728,9.6866,9.6192,9.5721,9.5301,9.5366,9.5559,9.5632,9.5271,9.6294,9.792,9.807,10.6454,10.7095,10.8418,10.9713,11.0949,11.2764,11.331,11.2986,11.4151,11.3713,11.1848,11.0491,10.8977,10.7279,10.6945,10.6062,10.4125,10.5497,10.5733,10.4194,10.4717,10.5307,10.6082,10.672,10.7302,10.7863,10.823,10.8297,10.8767,10.7753,10.6016,10.54,10.4932,10.5038,10.5105,10.4956,10.5215,10.6533,10.7502,10.7556,10.7295,10.6848,10.6676,10.631,10.6358,10.6562,10.6417,10.4996,10.3758,10.2703,10.1235,10.0062,9.881,9.8502,9.8051,9.8026,9.7281,9.6769,9.6033,9.6081,9.5228,9.4052,9.2782,9.2565,9.2273,9.2077,9.1988,9.1881,9.1881,9.1847,9.1547,9.1255,9.0897,9.0537,8.9739,8.8937,8.8791,8.8758,8.8649,8.8612,8.8982,8.9319,8.9805,9.0032,9.0556,9.1638,9.2274,9.2425,9.321,9.422,9.4444,9.4996,9.4571,9.394,9.4585,9.4909,9.4486,9.4416,9.4931,9.5894,9.6894,9.8122,9.9296,9.9105,9.8485,9.8073,9.7733,9.6892,9.6022,9.6395,9.6722,9.723,9.8493,9.9963,10.0375,10.6726,10.751,10.9603,11.1148,11.2307,11.3838,11.4884,11.5141,11.4846,11.4008,11.2518,11.1078,10.9902,10.9383,10.8574,10.7668,10.7131,10.6894,10.7067,10.64,10.5287,10.5956,10.6493,10.6937,10.7686,10.8408,10.924,10.9744,11.0648,10.9562,10.7787,10.6808,10.7204,10.7095,10.7228,10.7106,10.7941,10.881,10.9337,10.8831,10.8205,10.8012,10.8058,10.7986,10.7952,10.7952,10.7694,10.6532,10.5554,10.4385,10.2954,10.1822,10.0307,9.9893,9.9698,9.9823,9.9371,9.9001,9.805,9.7893,9.7237,9.5641,9.457,9.4515,9.4635,9.4553,9.3929,9.3537,9.3304,9.3097,9.2805,9.2595,9.2346,9.1646,9.0729,9.0101,8.973,8.9434,8.8649,8.8799,8.9658,9.0219,9.149,9.1827,9.2313,9.3397,9.4108,9.4332,9.4893,9.5491,9.6014,9.7023,9.6754,9.5911,9.6366,9.6898,9.6724,9.6776,9.7786,9.8686,9.9459,10.0157,10.1035,10.1279,10.0974,10.0509,9.9784,9.8669,9.7574,9.7791,9.8244,9.9438,10.0653,10.1772,10.2509,10.6929,10.8669,10.9845,11.1043,11.2252,11.352,11.4584,11.5141,11.403,11.347,11.3103,11.1187,11.0082,10.9586,10.9569,10.8615,10.7323,10.7538,10.7619,10.7189,10.6106,10.6474,10.6697,10.6698,10.783,10.877,10.9635,11.0675,11.2993,11.1511,11.0502,11.0032,10.9589,10.985,11.021,11.0406,11.0392,10.9995,11.0116,10.9501,10.8355,10.8319,10.8438,10.8556,10.8595,10.8595,10.8257,10.7464,10.6597,10.5655,10.4678,10.4072,10.3239,10.2224,10.1759,10.116,10.0162,9.9725,9.9224,9.9318,9.8559,9.7457,9.6888,9.6931,9.6708,9.5958,9.5532,9.5156,9.5059,9.4653,9.4134,9.3997,9.3788,9.301,9.2046,9.1376,9.0892,9.0331,8.9509,8.9658,9.0593,9.1677,9.2986,9.3659,9.4033,9.4968,9.5603,9.594,9.6426,9.6987,9.736,9.837,9.8254,9.7601,9.7991,9.8544,9.8486,9.85,9.9766,10.0961,10.1694,10.2388,10.3021,10.3374,10.3315,10.2668,10.1398,10.0326,9.9364,9.9351,9.9674,10.0889,10.2458,10.3589,10.3846,10.6059,10.6978,10.9359,11.0875,11.1692,11.243,11.3783,11.5105,11.529,11.4172,11.254,11.1355,11.0425,10.9718,10.9451,10.8705,10.9893,10.9133,10.8594,10.973,10.7639,10.7483,10.7554,10.7343,10.841,10.9671,11.0456,11.1571,11.4557,11.3448,11.2693,11.209,11.1119,11.1784,11.3157,11.3448,11.3186,11.1053,11.0718,11.0209,10.8553,10.8219,10.8432,10.8556,10.8669,10.8703,10.8591,10.8175,10.7563,10.659,10.5763,10.5156,10.4141,10.327,10.2699,10.1914,10.1018,10.0534,9.9923,9.9891,9.9621,9.8847,9.8986,9.8895,9.8485,9.7712,9.7282,9.7057,9.7256,9.7187,9.6891,9.5662,9.5407,9.496,9.403,9.3022,9.2573,9.2425,9.179,9.1977,9.2724,9.3696,9.4743,9.5155,9.5603,9.6351,9.7061,9.7585,9.8071,9.8108,9.8257,9.8894,9.8966,9.9208,9.9691,10.0273,10.0466,10.0436,10.1462,10.2707,10.3475,10.4072,10.4741,10.5299,10.5094,10.4498,10.3168,10.2213,10.1516,10.1317,10.1508,10.2678,10.4183,10.4568,10.4605,10.5427,10.605,10.801,10.9499,11.0637,11.1365,11.3101,11.5106,11.559,11.4529,11.2285,11.171,11.1114,11.0607,11.0372,11.1204,11.2368,11.1131,11.0663,11.1805,10.9969,10.9309,10.9003,10.8948,10.9207,11.0534,11.185,11.3329,11.5517,11.5102,11.456,11.4292,11.3513,11.3497,11.4941,11.4953,11.4357,11.1676,11.1297,11.0533,10.7954,10.8329,10.8754,10.8442,10.8666,10.8735,10.8811,10.8807,10.8314,10.76,10.745,10.6886,10.6172,10.5006,10.443,10.373,10.1732,10.1318,10.0737,10.0004,9.9962,9.9857,9.9707,9.9578,9.9483,9.9369,9.9148,9.8758,9.8283,9.8286,9.8661,9.7467,9.6947,9.6535,9.5638,9.4667,9.4181,9.4033,9.3921,9.3996,9.4332,9.5155,9.5828,9.6164,9.6874,9.7659,9.7809,9.8295,9.953,9.9492,9.964,10.0091,10.0574,10.1002,10.1577,10.2279,10.2639,10.2676,10.3447,10.4366,10.505,10.5682,10.6072,10.6056,10.6277,10.6461,10.5425,10.4483,10.3716,10.3278,10.3637,10.4556,10.489,10.4895,10.4966,10.4893,10.607,10.5958,10.6993,10.8904,11.0553,11.2732,11.4774,11.525,11.4247,11.2531,11.2623,11.2255,11.1877,11.2096,11.3029,11.389,11.371,11.3209,11.2812,11.1616,11.1332,11.085,11.055,11.0513,11.1381,11.2674,11.3902,11.4893,11.572,11.6164,11.5902,11.5415,11.5474,11.5559,11.4039,11.2401,11.1046,11.1272,10.974,10.8093,10.8722,10.8728,10.8506,10.8482,10.8738,10.8811,10.8878,10.8766,10.8427,10.8427,10.8314,10.8051,10.7036,10.6317,10.5846,10.3373,10.2037,10.1695,10.0667,10.0141,9.9971,9.9897,9.9796,9.9507,9.9325,9.9183,9.8879,9.8664,9.8628,9.8593,9.8407,9.8295,9.7809,9.6874,9.6015,9.5678,9.5454,9.5267,9.5192,9.5678,9.6201,9.6725,9.7286,9.8032,9.8406,9.8481,9.9418,10.0802,10.125,10.1585,10.2037,10.2632,10.2909,10.3026,10.4011,10.4747,10.4857,10.5188,10.5704,10.6256,10.6535,10.6514,10.6646,10.6683,10.6609,10.6572,10.6572,10.566,10.482,10.5441,10.5289,10.5184,10.5041,10.4895,10.4289,10.4893,10.5609,10.5833,10.6134,10.8767,11.1201,11.3185,11.4995,11.5132,11.4032,11.4103,11.381,11.3311,11.3236,11.3679,11.4412,11.4475,11.3756,11.334,11.2872,11.2188,11.1395,11.1223,11.179,11.2425,11.3704,11.4967,11.5845,11.6774,11.6918,11.6778,11.662,11.6371,11.6133,11.5525,11.4549,11.2737,11.1731,10.9913,10.8318,10.8203,10.7631,10.8348,10.8241,10.8594,10.9149,10.8916,10.8916,10.907,10.8961,10.892,10.8694,10.8314,10.7558,10.6267,10.4654,10.298,10.2165,10.1451,10.1129,10.0266,10.0043,9.9796,9.9627,9.9434,9.9223,9.8923,9.8666,9.8519,9.852,9.8557,9.852,9.852,9.7547,9.7286,9.6987,9.6762,9.6575,9.6388,9.7061,9.7622,9.7921,9.7921,9.8518,9.8818,9.9492,10.0875,10.2337,10.3198,10.3683,10.4472,10.5137,10.4954,10.4522,10.5445,10.6298,10.6392,10.6224,10.6777,10.674,10.6683,10.6719,10.6719,10.6719,10.6719,10.6624,10.6587,10.6373,10.619,10.5784,10.5287,10.5183,10.5149,10.493,10.3288,10.3437,10.4127,10.472,10.5426,10.8118,11.03,11.2307,11.4369,11.5268,11.5364,11.5699,11.5256,11.439,11.3954,11.4511,11.4959,11.5105,11.4471,11.4,11.3811,11.3269,11.2747,11.2675,11.2992,11.3298,11.4787,11.6144,11.6367,11.6943,11.7036,11.7071,11.6837,11.6717,11.657,11.6234,11.5186,11.3623,11.207,11.039,10.8994,10.7957,10.8015,10.8616,10.8496,10.8847,11.0278,10.9409,10.9602,10.9907,10.9601,10.9566,10.9532,10.957,10.8818,10.7558,10.6132,10.4511,10.3281,10.3006,10.2477,10.1214,10.0276,9.9834,9.9637,9.9466,9.9223,9.8963,9.8705,9.8556,9.852,9.852,9.852,9.852,9.8445,9.837,9.8183,9.7996,9.7809,9.751,9.8071,9.852,9.8481,9.8592,9.9005,9.9492,10.0911,10.2408,10.3985,10.5146,10.6383,10.7319,10.8487,10.8618,10.8487,10.8142,10.789,10.7612,10.7186,10.7056,10.6683,10.6719,10.6719,10.6719,10.6719,10.6719,10.6624,10.6565,10.6288,10.5776,10.5483,10.532,10.5329,10.5293,10.6048,10.2192,10.2038,10.1845,10.348,10.6301,10.8088,10.9945,11.184,11.3209,11.4593,11.5737,11.6811,11.6201,11.5137,11.5286,11.5553,11.5871,11.5937,11.5178,11.4811,11.496,11.429,11.3906,11.3963,11.448,11.4123,11.5765,11.6127,11.5939,11.6978,11.7238,11.7387,11.7108,11.6955,11.6874,11.673,11.5833,11.4616,11.249,11.0711,10.973,10.904,10.9276,10.9328,10.9139,10.9918,11.3172,11.0583,10.9793,11.2042,11.0947,11.0341,11.0571,11.0697,11.0085,10.8893,10.752,10.5921,10.4786,10.4409,10.3932,10.2581,10.1205,10.0229,9.9713,9.9477,9.9258,9.9036,9.8741,9.8594,9.8557,9.852,9.852,9.852,9.852,9.852,9.852,9.852,9.852,9.852,9.852,9.852,9.8557,9.979,10.0389,10.1137,10.252,10.3794,10.5446,10.717,10.8595,10.9823,11.1198,11.1846,11.1779,11.1106,10.9847,10.9216,10.8457,10.7772,10.7198,10.6719,10.6719,10.6719,10.6719,10.6683,10.6624,10.6288,10.5977,10.5447,10.5287,10.5473,10.5475,10.5797,10.6802,10.1229,10.0391,10.1251,10.2422,10.3895,10.6267,10.8421,11.0253,11.2057,11.354,11.474,11.6224,11.6811,11.632,11.5541,11.5284,11.5355,11.5495,11.4885,11.4584,11.4548,11.4358,11.4195,11.466,11.5099,11.47,11.6616,11.6961,11.683,11.7127,11.7387,11.7387,11.7221,11.724,11.7221,11.7108,11.6939,11.5996,11.3567,11.1835,11.0748,10.973,10.9379,10.9682,11.0293,11.118,11.2292,11.1235,11.1049,11.249,11.1839,11.1563,11.1696,11.1709,11.1171,10.9928,10.8932,10.7393,10.6402,10.5803,10.5345,10.4156,10.2708,10.1193,10.0229,9.9575,9.9369,9.9217,9.8886,9.8666,9.8556,9.852,9.8557,9.852,9.852,9.852,9.852,9.852,9.852,9.8669,9.8744,9.8669,9.9866,10.1062,10.2072,10.2857,10.3943,10.5257,10.6907,10.8707,10.9944,11.0983,11.2168,11.2925,11.2581,11.1996,11.1604,11.0743,10.9666,10.8907,10.8561,10.8082,10.7471,10.6977,10.6719,10.686,10.728,10.6453,10.5689,10.5753,10.5799,10.5801,10.6161,10.6484,10.7307,10.0638,10.0521,10.1266,10.2332,10.3734,10.6199,10.8122,10.9603,11.1706,11.3269,11.428,11.5462,11.6234,11.625,11.5527,11.4923,11.4885,11.525,11.4959,11.4544,11.4699,11.4663,11.4274,11.4885,11.56,11.579,11.6763,11.7387,11.7387,11.735,11.7387,11.7387,11.7387,11.7387,11.7332,11.7387,11.7387,11.6775,11.5515,11.3883,11.2691,11.1297,11.0633,11.155,11.1509,11.2699,11.3401,11.3124,11.2346,11.3789,11.2795,11.2647,11.277,11.2736,11.1992,11.0629,10.9884,10.9196,10.7989,10.7605,10.6773,10.5572,10.4063,10.2529,10.1176,10.0225,9.9559,9.9316,9.9067,9.8811,9.863,9.8556,9.8557,9.8557,9.852,9.852,9.852,9.852,9.8819,9.8931,9.9155,10.0314,10.1473,10.2894,10.424,10.4876,10.5701,10.7093,10.8669,10.9982,11.0882,11.2102,11.3287,11.414,11.3643,11.3234,11.2987,11.255,11.1471,11.0453,11.0035,10.9445,10.8833,10.8221,10.7917,10.7816,10.7816,10.755,10.7099,10.6742,10.6381,10.7175,10.7853,10.8137,10.9003,10.0521,10.1677,10.1848,10.2905,10.4575,10.6876,10.8353,10.9181,11.1696,11.3448,11.4036,11.4657,11.5214,11.5531,11.5141,11.4847,11.4769,11.5032,11.5069,11.4885,11.5033,11.5068,11.5033,11.5425,11.5901,11.6224,11.7034,11.7424,11.787,11.7907,11.7795,11.7684,11.7684,11.7387,11.7387,11.7387,11.7387,11.7387,11.7275,11.6275,11.4495,11.3012,11.2992,11.3419,11.3341,11.3673,11.538,11.3952,11.3336,11.5369,11.4104,11.3555,11.377,11.3898,11.25,11.1422,11.1102,11.143,11.0033,10.8893,10.7746,10.6876,10.5496,10.4063,10.2594,10.1254,10.0093,9.951,9.9175,9.8954,9.8701,9.8555,9.8556,9.852,9.8557,9.8594,9.9044,9.9492,9.9791,9.9978,10.1585,10.2558,10.3231,10.4838,10.6259,10.6823,10.7537,10.8965,11.0244,11.0657,11.137,11.3587,11.5035,11.5641,11.5438,11.5047,11.4723,11.4407,11.3215,11.2048,11.1521,11.0919,11.0269,10.9766,10.9557,10.9432,10.8876,10.8557,10.852,10.8227,10.7827,10.8435,10.9436,11.041,11.1204,10.1763,10.1815,10.297,10.38,10.4608,10.6334,10.7784,10.9146,11.1184,11.2594,11.3448,11.443,11.4699,11.443,11.4736,11.4847,11.4533,11.4769,11.5178,11.5355,11.5527,11.5694,11.5893,11.625,11.6509,11.663,11.7295,11.8055,11.8835,11.9244,11.9244,11.8965,11.7907,11.7387,11.7424,11.7406,11.7387,11.7387,11.735,11.6496,11.5144,11.4273,11.4196,11.4344,11.4835,11.5158,11.6022,11.4747,11.4946,11.5096,11.5065,11.4775,11.4953,11.4953,11.4282,11.3016,11.2285,11.1308,11.0208,10.8972,10.822,10.8036,10.6917,10.5597,10.4083,10.2445,10.1096,9.9807,9.9294,9.9063,9.8773,9.8591,9.8631,9.8632,9.8744,9.9006,9.9941,10.0577,10.0912,10.2558,10.4016,10.4913,10.5287,10.6596,10.7272,10.7758,10.7916,10.9493,11.1031,11.1444,11.2608,11.4836,11.6349,11.6887,11.6675,11.6157,11.5771,11.5402,11.443,11.3667,11.3104,11.2601,11.1739,11.1043,11.0968,11.0917,10.9789,10.923,10.974,10.9813,10.9302,10.9622,11.0771,11.1853,11.2386,10.226,10.297,10.4256,10.4956,10.5424,10.7476,10.8784,10.9742,11.1696,11.2878,11.352,11.4188,11.431,11.4108,11.443,11.462,11.4693,11.4958,11.5425,11.5929,11.615,11.6361,11.6754,11.677,11.6902,11.7332,11.8056,11.9058,11.9726,12.0543,12.0801,12.041,11.9108,11.8272,11.8028,11.7552,11.7108,11.7184,11.7295,11.6941,11.6236,11.6053,11.5754,11.5787,11.6017,11.6105,11.5914,11.5641,11.5501,11.5323,11.5251,11.5251,11.5357,11.5495,11.5577,11.4671,11.3076,11.157,11.0895,10.9017,10.8226,10.8369,10.7214,10.5911,10.4538,10.3129,10.1471,10.0157,9.9488,9.9279,9.892,9.8813,9.908,9.9492,9.9753,10.054,10.155,10.1997,10.353,10.5511,10.6225,10.6599,10.716,10.7497,10.817,10.8476,10.8556,10.9981,11.182,11.2721,11.3695,11.5628,11.7084,11.7221,11.6749,11.6445,11.6226,11.6065,11.556,11.5339,11.4897,11.4529,11.3687,11.267,11.2664,11.2794,11.1832,11.0778,11.1247,11.1536,11.1103,11.1067,11.2178,11.2855,11.318,10.3296,10.4685,10.5366,10.585,10.654,10.9001,11.0122,11.0563,11.2485,11.3507,11.3592,11.3973,11.418,11.41,11.4136,11.426,11.4657,11.5284,11.5958,11.6579,11.6868,11.7197,11.7429,11.7436,11.759,11.8254,11.941,12.0469,12.1175,12.188,12.2413,12.1878,12.0535,11.9635,11.9056,11.7986,11.7562,11.7832,11.7462,11.7387,11.7127,11.7127,11.7017,11.6791,11.6652,11.6521,11.6178,11.5914,11.571,11.5465,11.5394,11.5394,11.5605,11.6113,11.6334,11.582,11.4064,11.2551,11.1716,10.9639,10.8478,10.7937,10.7429,10.6227,10.4589,10.3249,10.1973,10.0661,9.9747,9.9712,9.9438,9.9626,10.0085,10.0914,10.1476,10.1997,10.3345,10.4096,10.5071,10.716,10.7799,10.8176,10.8024,10.8132,10.8432,10.8588,10.8706,10.9832,11.1776,11.3225,11.4379,11.5909,11.7493,11.7166,11.68,11.668,11.6595,11.6397,11.626,11.6003,11.5966,11.6003,11.5577,11.4337,11.393,11.379,11.3341,11.2764,11.2764,11.28,11.2727,11.2583,11.3008,11.336,11.3674,10.6202,10.7194,10.614,10.6454,10.7625,10.9391,11.0361,11.0528,11.2575,11.3543,11.3628,11.4009,11.41,11.41,11.41,11.41,11.4503,11.5248,11.6422,11.7392,11.763,11.786,11.8103,11.8176,11.8462,11.9667,12.1119,12.2549,12.3477,12.4257,12.4156,12.3654,12.2162,12.1323,12.088,11.9795,11.8806,11.8704,11.7926,11.7387,11.7387,11.7387,11.7387,11.724,11.7034,11.68,11.6558,11.6243,11.5981,11.6215,11.5951,11.6018,11.6243,11.662,11.6763,11.6689,11.5181,11.3678,11.2321,11.0767,10.9139,10.7937,10.8067,10.7094,10.5144,10.4101,10.2764,10.1189,9.9944,10.0096,10.1253,10.1028,10.1729,10.2879,10.3123,10.3869,10.5142,10.5781,10.6419,10.8107,10.837,10.8481,10.8553,10.8432,10.8547,10.8663,10.8819,10.9607,11.16,11.3278,11.4439,11.5822,11.672,11.6763,11.6741,11.668,11.6533,11.6371,11.6371,11.626,11.6224,11.5827,11.5209,11.4811,11.4539,11.4152,11.3775,11.3522,11.3594,11.3883,11.3775,11.3369,11.3549,11.3865,11.37,10.8669,10.9105,10.9048,10.9244,10.9923,11.0813,11.1192,11.1613,11.2914,11.3556,11.3724,11.3937,11.41,11.41,11.4425,11.462,11.4849,11.5663,11.6696,11.763,11.817,11.8251,11.8357,11.8906,11.923,12.0042,12.2289,12.3849,12.4814,12.5445,12.5773,12.5331,12.3851,12.3012,12.2489,12.0461,11.9716,11.9352,11.8149,11.7387,11.7441,11.7441,11.7495,11.7441,11.7387,11.7091,11.6918,11.6558,11.6434,11.6408,11.6408,11.6558,11.6897,11.7071,11.7128,11.6868,11.5773,11.423,11.2737,11.1213,10.967,10.8094,10.848,10.7375,10.623,10.4944,10.3607,10.1755,10.0553,10.0377,10.1757,10.1848,10.3143,10.4428,10.4367,10.4806,10.6605,10.6875,10.6885,10.7276,10.8127,10.8481,10.8592,10.8435,10.8473,10.833,10.8519,10.9195,11.1183,11.2624,11.3941,11.5365,11.6178,11.6593,11.6593,11.668,11.6595,11.6533,11.6408,11.6243,11.6224,11.5641,11.496,11.466,11.4461,11.426,11.41,11.41,11.4027,11.41,11.4018,11.4018,11.3901,11.3901,11.3782,11.1256,11.1496,11.201,11.2417,11.2601,11.2524,11.2593,11.2836,11.3305,11.3556,11.3736,11.4018,11.41,11.41,11.4736,11.5105,11.5177,11.615,11.6942,11.7618,11.8257,11.8401,11.8649,11.9305,12.0079,12.1395,12.3605,12.4946,12.5598,12.6564,12.6983,12.6518,12.5345,12.4602,12.4003,12.2051,12.0471,12.022,11.8798,11.8092,11.811,11.7829,11.76,11.76,11.76,11.7404,11.7091,11.6881,11.68,11.668,11.68,11.7034,11.724,11.7387,11.7387,11.709,11.6087,11.4692,11.2987,11.1671,11.0174,10.8487,10.8442,10.8178,10.6845,10.5423,10.4052,10.2507,10.0988,10.0661,10.2014,10.2665,10.4605,10.6184,10.5782,10.5575,10.7291,10.6691,10.5996,10.6552,10.7565,10.8206,10.8182,10.7843,10.7727,10.8032,10.8407,10.8968,11.026,11.1665,11.3347,11.5182,11.5864,11.6312,11.6479,11.6959,11.6786,11.6704,11.6243,11.6018,11.6113,11.5834,11.5323,11.4959,11.4539,11.426,11.41,11.41,11.418,11.41,11.3982,11.4144,11.4188,11.4027,11.3946,11.4555,11.5571,11.4386,11.4484,11.515,11.4441,11.4213,11.4245,11.4037,11.3856,11.3808,11.4018,11.4244,11.41,11.4849,11.5177,11.5211,11.6675,11.7255,11.7568,11.7962,11.8637,11.8939,11.9583,12.1086,12.3136,12.4368,12.5692,12.6641,12.7161,12.731,12.6968,12.6677,12.637,12.574,12.4431,12.3924,12.325,12.0896,11.9448,11.9058,11.8403,11.7875,11.7764,11.7666,11.7615,11.742,11.7147,11.6976,11.7277,11.7295,11.7295,11.7387,11.7387,11.7387,11.7238,11.6941,11.5695,11.3359,11.2688,11.1367,10.8984,10.8799,10.8339,10.7084,10.5867,10.4513,10.2887,10.0947,10.1007,10.2314,10.4869,10.6764,10.8114,10.7386,10.6721,10.6582,10.4459,10.3723,10.6468,10.6812,10.6952,10.6762,10.6528,10.6344,10.747,10.7657,10.8515,10.9848,11.1049,11.2587,11.4488,11.5333,11.5865,11.6618,11.7218,11.7036,11.6902,11.6423,11.6243,11.6348,11.6113,11.5641,11.5425,11.525,11.4885,11.458,11.4383,11.434,11.4304,11.4466,11.4544,11.4544,11.4466,11.4352,11.7081,11.7586,11.6791,11.6837,11.728,11.6096,11.5444,11.5289,11.5808,11.5438,11.4405,11.4957,11.5092,11.4657,11.5284,11.5767,11.616,11.7184,11.754,11.7466,11.768,11.8404,11.9731,12.1327,12.2516,12.3994,12.5572,12.6678,12.7255,12.7477,12.7422,12.7329,12.7216,12.7159,12.6931,12.5342,12.443,12.4273,12.2339,12.0447,11.9801,11.9274,11.8672,11.7866,11.7817,11.7866,11.7767,11.7457,11.735,11.7441,11.7441,11.7387,11.7387,11.7387,11.7387,11.7387,11.7387,11.6528,11.4526,11.3321,11.1935,11.019,10.9221,10.8847,10.8157,10.714,10.577,10.4026,10.2355,10.1891,10.2694,10.4468,10.689,10.9002,10.8242,10.6796,10.5666,10.4465,10.4111,10.4156,10.4936,10.5739,10.6659,10.6402,10.6607,10.7093,10.732,10.8253,10.9408,11.0384,11.1628,11.3362,11.4565,11.5926,11.686,11.7331,11.7325,11.7362,11.7054,11.6848,11.6741,11.6381,11.6133,11.5966,11.5834,11.57,11.5564,11.5462,11.5142,11.4847,11.4923,11.4996,11.5106,11.5106,11.5033,11.9038,11.9081,11.9014,11.9047,11.8936,11.7887,11.7056,11.6884,11.7798,11.6998,11.6003,11.6755,11.6859,11.6123,11.6721,11.705,11.734,11.7606,11.7554,11.7367,11.7515,11.8576,11.9849,12.2189,12.3702,12.4565,12.6292,12.7422,12.7477,12.7638,12.7743,12.7706,12.7654,12.7548,12.7218,12.5869,12.5217,12.509,12.3035,12.122,12.0469,11.9885,11.896,11.7879,11.7952,11.801,11.7962,11.7767,11.7666,11.7703,11.7548,11.7441,11.7387,11.7387,11.7387,11.7387,11.7367,11.6751,11.5395,11.4227,11.2719,11.105,11.0276,10.9723,10.932,10.8157,10.6987,10.5772,10.414,10.3301,10.3908,10.5055,10.6914,10.9236,10.9029,10.7606,10.5931,10.4789,10.405,10.3174,10.4,10.4993,10.5835,10.6227,10.6831,10.7529,10.7874,10.8328,10.9108,11.0019,11.132,11.2859,11.4319,11.5868,11.7188,11.7589,11.7765,11.7765,11.763,11.7406,11.7272,11.7016,11.6807,11.6472,11.6435,11.616,11.6197,11.6133,11.6003,11.56,11.5564,11.5531,11.56,11.5669,11.5632,12.0422,12.0457,12.0669,12.0669,12.0558,11.9617,11.9313,11.9496,11.891,11.835,11.8384,11.8999,11.9244,11.9042,11.8723,11.8823,11.8865,11.813,11.7627,11.7725,11.8556,11.9031,11.9239,12.1625,12.3805,12.5538,12.6931,12.7601,12.7808,12.8031,12.8295,12.8146,12.7956,12.7808,12.7564,12.7027,12.6492,12.6092,12.3419,12.1864,12.1675,11.955,11.7991,11.7842,11.8047,11.8103,11.801,11.7962,11.8,11.7914,11.7754,11.7548,11.7441,11.7387,11.7387,11.7387,11.7387,11.6655,11.5693,11.5035,11.3875,11.1643,11.1407,11.0921,10.9631,10.8646,10.7784,10.6987,10.5696,10.5354,10.6515,10.7058,10.7962,10.9616,10.9707,10.8941,10.7331,10.4675,10.3803,10.4344,10.4579,10.4665,10.482,10.6041,10.6661,10.7129,10.7345,10.8075,10.8868,10.9785,11.1209,11.2638,11.4098,11.5837,11.8153,11.8449,11.8208,11.8208,11.8089,11.8044,11.7982,11.784,11.7655,11.7309,11.6999,11.6689,11.6448,11.6323,11.616,11.6197,11.6234,11.604,11.6105,11.6234,11.636,12.0564,12.0564,12.0775,12.1021,12.1117,12.1158,12.0823,12.0432,12.0902,12.0412,11.9633,12.0294,12.0553,12.0291,11.9987,12.007,12.0322,11.9842,11.9241,11.897,11.9695,11.9896,11.9879,12.174,12.3913,12.5806,12.7122,12.7706,12.7907,12.8137,12.8312,12.8319,12.8191,12.8052,12.7808,12.7105,12.6195,12.5342,12.3751,12.2073,12.0649,11.9684,11.8773,11.8003,11.8047,11.814,11.8103,11.8103,11.8094,11.7962,11.7854,11.7563,11.7441,11.7387,11.7387,11.7387,11.7404,11.7272,11.6759,11.5854,11.4685,11.3947,11.3315,11.2307,11.0959,11.0574,10.9101,10.7606,10.6686,10.6609,10.7173,10.7329,10.8163,10.9718,10.9904,10.9624,10.9017,10.6998,10.5442,10.403,10.4392,10.4617,10.4946,10.5957,10.7187,10.8034,10.8303,10.8781,10.9011,10.9413,11.1435,11.3235,11.4205,11.5965,11.8459,11.8918,11.869,11.8535,11.8378,11.8369,11.8326,11.8194,11.8066,11.7655,11.754,11.7128,11.6997,11.6749,11.657,11.6786,11.6939,11.6763,11.6741,11.6823,11.6763,12.0564,12.067,12.0952,12.1194,12.1426,12.1888,12.174,12.1257,12.252,12.2296,12.1247,12.2054,12.239,12.2011,12.146,12.1418,12.1763,12.1852,12.1754,12.1428,12.0918,12.0895,12.1323,12.199,12.3415,12.5161,12.6775,12.7668,12.8004,12.8281,12.8449,12.8449,12.8449,12.8237,12.8004,12.7236,12.607,12.4504,12.354,12.1862,11.9657,11.9407,11.8885,11.7916,11.8047,11.8186,11.8186,11.8186,11.8103,11.8057,11.7903,11.7703,11.7441,11.7387,11.7387,11.7387,11.7387,11.7478,11.7451,11.6624,11.5953,11.5387,11.4933,11.3791,11.2493,11.2452,11.1634,10.9911,10.8826,10.8622,10.8599,10.8366,10.8582,10.9636,10.9822,10.9866,10.9707,10.8895,10.6998,10.4759,10.4971,10.5526,10.5813,10.6966,10.8369,10.9099,10.9305,10.9416,10.9491,10.9644,11.0929,11.3813,11.4377,11.5511,11.7739,11.8862,11.8655,11.8491,11.8363,11.8388,11.8231,11.8066,11.8019,11.7925,11.7866,11.7767,11.7652,11.751,11.7258,11.735,11.7295,11.7295,11.7387,11.724,11.7013,12.0635,12.0914,12.1123,12.1431,12.1691,12.1986,12.224,12.2532,12.3364,12.343,12.3169,12.44,12.4411,12.4114,12.3292,12.314,12.3146,12.341,12.3978,12.4375,12.2346,12.1924,12.2813,12.1852,12.2288,12.3785,12.6025,12.7452,12.8237,12.8533,12.8731,12.8807,12.8731,12.8533,12.8319,12.7504,12.623,12.4304,12.2593,12.0941,11.9398,11.8424,11.7903,11.7842,11.8047,11.8186,11.8186,11.8186,11.8186,11.814,11.7952,11.7703,11.7441,11.7387,11.7387,11.7332,11.735,11.7441,11.751,11.7554,11.6885,11.6011,11.5815,11.5245,11.4099,11.396,11.3896,11.3259,11.2371,11.1671,11.1415,11.0271,10.9482,10.9644,10.975,10.9871,10.998,10.9957,10.9274,10.7765,10.7232,10.7291,10.7592,10.8465,10.94,10.9733,11.0025,11.0243,11.0288,11.0303,11.1542,11.392,11.4839,11.5685,11.7351,11.8852,11.8617,11.8401,11.8344,11.8206,11.8094,11.8,11.7903,11.7914,11.7854,11.7754,11.7652,11.7548,11.7495,11.7387,11.7387,11.7332,11.7277,11.7221,11.7071,12.0809,12.1017,12.1431,12.1598,12.1691,12.2109,12.2733,12.3311,12.3472,12.3918,12.4459,12.4288,12.4251,12.435,12.3905,12.3724,12.3833,12.3737,12.376,12.3762,12.1861,12.0949,12.1093,12.102,12.1541,12.2987,12.4978,12.6861,12.8281,12.8692,12.8882,12.899,12.8955,12.8807,12.8491,12.7795,12.5766,12.308,12.184,12.01,11.7727,11.7369,11.7488,11.7804,11.8047,11.8186,11.8186,11.8186,11.8103,11.801,11.7903,11.7703,11.7548,11.7203,11.6918,11.6778,11.6955,11.6997,11.7091,11.751,11.7581,11.7071,11.6429,11.5934,11.5417,11.4635,11.4282,11.3899,11.2805,11.1888,11.1589,11.0479,10.9568,10.9616,10.9658,10.9792,10.998,11.0033,10.973,10.9199,10.9038,10.8534,10.7935,10.9031,10.9737,10.9955,11.0967,11.1551,11.1589,11.1694,11.2747,11.5495,11.5206,11.5874,11.7865,11.8467,11.8201,11.814,11.8037,11.7989,11.7854,11.7778,11.7726,11.7791,11.7703,11.76,11.7548,11.7495,11.7424,11.7295,11.7258,11.7221,11.7165,11.7108,11.6955,12.0914,12.1017,12.1456,12.179,12.1888,12.2109,12.2768,12.34,12.3524,12.4002,12.4576,12.4205,12.3954,12.4002,12.3734,12.3632,12.3719,12.3455,12.3347,12.3146,12.109,12.0126,12.0289,12.0025,12.0631,12.2167,12.4139,12.6234,12.8288,12.8807,12.899,12.906,12.9093,12.8953,12.8654,12.8117,12.6273,12.3254,12.2618,12.1087,11.8687,11.8182,11.8518,11.9184,11.9481,11.9631,11.9765,11.9168,11.8821,11.8773,11.8065,11.7652,11.7404,11.7034,11.6741,11.6471,11.668,11.6881,11.7073,11.7526,11.763,11.7141,11.6411,11.5751,11.5119,11.4448,11.432,11.4493,11.3116,11.1807,11.1495,11.0378,10.9459,10.9608,10.9615,10.9708,10.996,11.0033,11.0033,11.0033,11.0033,10.9619,10.8885,10.9261,10.9922,11.0107,11.1339,11.212,11.231,11.2233,11.3273,11.574,11.5571,11.52,11.7983,11.8094,11.7877,11.7866,11.7854,11.7791,11.7741,11.7675,11.7606,11.7637,11.7548,11.7441,11.7424,11.7314,11.7221,11.7145,11.705,11.705,11.7124,11.6934,11.6778,12.0878,12.0982,12.1478,12.1844,12.2119,12.2083,12.2466,12.3114,12.3675,12.3882,12.3856,12.405,12.3918,12.3205,12.3024,12.306,12.3205,12.2968,12.3111,12.322,12.045,11.9725,12.0802,11.938,11.9636,12.1505,12.3614,12.5869,12.8206,12.8845,12.9093,12.9083,12.9115,12.9056,12.8845,12.8491,12.7106,12.4835,12.4252,12.3345,12.1595,12.0368,12.0538,12.1665,12.1915,12.1955,12.2172,12.0883,11.9989,12.0027,11.8381,11.7367,11.7053,11.6823,11.662,11.6471,11.6583,11.6959,11.7309,11.773,11.745,11.6336,11.5901,11.5151,11.426,11.3772,11.4252,11.6176,11.3161,11.1552,11.1699,11.0453,10.9509,10.9622,10.9668,10.9746,11.0011,11.0033,11.0033,11.0033,11.0033,10.9879,10.9796,10.9871,11.0174,11.0701,11.1744,11.2879,11.3098,11.2704,11.3977,11.5851,11.5721,11.4785,11.7179,11.7767,11.778,11.7767,11.7741,11.7675,11.7622,11.7532,11.7478,11.7478,11.7424,11.7369,11.7258,11.7145,11.7013,11.6955,11.6897,11.6874,11.6852,11.6754,11.6595,12.1391,12.1187,12.1556,12.1853,12.2083,12.2453,12.3025,12.3675,12.3954,12.4122,12.4169,12.3784,12.3078,12.2502,12.2654,12.2968,12.315,12.2784,12.2419,12.1811,11.9736,11.8628,11.8724,11.8558,11.9381,12.1,12.3277,12.5336,12.7031,12.8464,12.9222,12.9214,12.9331,12.9236,12.8984,12.8654,12.733,12.5265,12.4304,12.3107,12.1761,12.1793,12.2278,12.2707,12.1825,12.1348,12.1619,12.0061,11.9169,11.9213,11.7769,11.68,11.6558,11.6307,11.6011,11.581,11.626,11.6712,11.698,11.7841,11.8239,11.779,11.5643,11.4734,11.503,11.3487,11.3062,11.4291,11.1826,11.0562,11.1486,11.0416,10.953,10.9608,10.9719,10.9835,11.0011,11.0033,11.0033,11.0033,11.0033,11.0011,11.0145,11.0909,11.2042,11.3181,11.4755,11.599,11.5981,11.5737,11.6099,11.7857,11.6548,11.6137,11.7381,11.7666,11.7563,11.7548,11.7478,11.7406,11.7478,11.7441,11.7424,11.7369,11.7314,11.7239,11.7145,11.6934,11.6741,11.68,11.6754,11.6743,11.6669,11.657,11.6408,12.1591,12.1527,12.1591,12.179,12.2083,12.2395,12.288,12.3291,12.3133,12.3222,12.3539,12.3258,12.2876,12.2372,12.269,12.2968,12.306,12.2597,12.1683,12.0527,11.8969,11.7797,11.7262,11.7592,11.8777,12.0352,12.2858,12.4795,12.6381,12.8191,12.9177,12.9331,12.9411,12.932,12.9083,12.877,12.7919,12.6412,12.5482,12.4437,12.3376,12.3366,12.3693,12.3769,12.2959,12.2399,12.1867,12.0362,11.9204,11.8618,11.7181,11.627,11.6011,11.5914,11.571,11.5394,11.6003,11.6659,11.7418,11.7519,11.7736,11.7975,11.4897,11.3409,11.4223,11.2113,11.0975,11.175,11.0449,10.971,11.0655,11.0025,10.9453,10.9621,10.9745,10.9868,11.0003,11.0033,11.0033,11.0033,11.0033,11.0223,11.0982,11.1817,11.3031,11.4662,11.6294,11.7166,11.7309,11.7063,11.7389,11.8227,11.7557,11.6997,11.7392,11.7457,11.7404,11.7387,11.7258,11.705,11.7128,11.7184,11.7184,11.7184,11.7108,11.705,11.6992,11.6778,11.662,11.6595,11.6607,11.6481,11.6334,11.6133,11.5841,12.1691,12.1691,12.1591,12.179,12.2022,12.2144,12.224,12.2431,12.1976,12.1976,12.2431,12.2654,12.2748,12.2876,12.2876,12.2876,12.2784,12.2312,12.1183,11.9491,11.8165,11.716,11.6486,11.6679,11.7916,11.9999,12.2305,12.4313,12.596,12.7869,12.9077,12.9399,12.9448,12.9347,12.9115,12.8953,12.8614,12.8099,12.7218,12.6414,12.5743,12.4963,12.4459,12.4552,12.44,12.3904,12.2487,12.1075,11.9562,11.8157,11.6685,11.5773,11.5462,11.5458,11.5282,11.485,11.5266,11.6275,11.7444,11.6656,11.6277,11.6384,11.3829,11.2178,11.1736,11.0267,10.9299,10.942,10.9472,10.9446,10.9471,10.9496,10.9506,10.9674,10.9752,10.9904,11.0011,11.0033,11.0033,11.0033,11.0033,11.0602,11.1892,11.2537,11.3372,11.5155,11.6863,11.7925,11.7868,11.7446,11.7485,11.8317,11.8191,11.773,11.7615,11.7383,11.7332,11.7332,11.7071,11.6918,11.6881,11.6881,11.6823,11.6918,11.686,11.68,11.668,11.662,11.6558,11.6408,11.6344,11.627,11.5875,11.5547,11.5211,12.1726,12.1426,12.1426,12.1527,12.1762,12.2453,12.2547,12.2561,12.2932,12.2619,12.1986,12.2073,12.2359,12.2876,12.306,12.306,12.2784,12.2276,12.1218,11.978,11.8582,11.7592,11.677,11.7017,11.8068,11.971,12.2066,12.4046,12.5748,12.7742,12.9002,12.9434,12.9578,12.9533,12.9385,12.9056,12.8654,12.8237,12.7328,12.6404,12.5491,12.4734,12.3578,12.224,12.2034,12.1443,12.0073,11.8493,11.7586,11.7361,11.5832,11.4958,11.4811,11.383,11.2991,11.2621,11.2009,11.2043,11.316,11.4223,11.5017,11.5294,11.4495,11.3414,11.2012,11.0459,10.9495,10.9401,10.9389,10.9442,10.9458,10.9544,10.9645,10.9775,10.9868,10.998,10.9995,11.0033,11.0033,11.0033,11.0033,11.0602,11.2158,11.3486,11.4852,11.6521,11.8267,11.9291,11.9299,11.8748,11.8456,11.8843,11.8663,11.8316,11.8269,11.7929,11.7664,11.7655,11.7238,11.6902,11.6823,11.6823,11.6823,11.6763,11.6704,11.668,11.6657,11.6533,11.6344,11.6084,11.6018,11.581,11.5495,11.5321,11.5069,12.2109,12.1491,12.1325,12.1461,12.1726,12.2109,12.2205,12.1941,12.1797,12.1249,12.0507,12.0452,12.0669,12.1205,12.1837,12.2071,12.1779,12.199,12.1117,11.9561,11.896,11.8068,11.714,11.7471,11.8501,12.0067,12.2305,12.413,12.5814,12.7928,12.9179,12.9621,12.9678,12.9658,12.9462,12.9121,12.8769,12.8281,12.6583,12.4898,12.3326,12.3197,12.1816,11.9191,12.0599,12.0287,11.7985,11.7106,11.6388,11.5758,11.5046,11.4212,11.3487,11.2769,11.1895,11.1019,11.0936,11.125,11.1807,11.3476,11.4586,11.4819,11.3464,11.2092,11.1074,11.0944,11.0499,10.9646,10.9512,10.9496,10.9524,10.9636,10.9765,10.9803,10.9939,11.0033,11.0033,11.0033,11.0033,11.0033,11.0033,11.0632,11.214,11.3856,11.5488,11.7195,11.8864,11.9889,11.9906,11.9319,11.899,11.9091,11.8805,11.8631,11.8541,11.8289,11.8066,11.7916,11.7392,11.6999,11.6902,11.6741,11.668,11.662,11.6595,11.6533,11.6533,11.6344,11.615,11.5883,11.5747,11.5432,11.5102,11.4993,11.4769,12.1923,12.1114,12.0817,12.0852,12.1114,12.1114,12.1114,12.0962,11.9973,11.9389,11.9188,11.8971,11.8961,11.9225,12.0441,12.0812,12.056,12.1692,12.1081,11.9305,11.9298,11.8732,11.7677,11.8027,11.8949,12.0419,12.2188,12.3985,12.5766,12.7828,12.9253,12.9747,12.9861,12.9716,12.9486,12.9184,12.8769,12.8162,12.6027,12.3698,12.1348,12.188,12.0258,11.6519,11.9239,11.9239,11.5688,11.5806,11.5156,11.3233,11.3067,11.25,11.1127,11.0699,11.0409,10.9683,11.0356,11.097,11.104,11.225,11.3198,11.358,11.1695,11.01,10.9644,11.0628,11.0729,10.9518,10.8933,10.8964,10.8961,10.919,10.9366,10.9434,10.979,11.0033,11.0033,10.9987,10.9987,10.9987,10.9987,11.0584,11.212,11.3534,11.5061,11.7061,11.8475,11.9661,11.9743,11.9525,11.9273,11.9203,11.899,11.8785,11.8813,11.8598,11.8316,11.8037,11.7552,11.7139,11.6922,11.668,11.6471,11.6408,11.6176,11.6003,11.5902,11.5607,11.4893,11.4616,11.4371,11.423,11.4129,11.3845,11.37,11.9456,11.8478,11.7804,11.7779,11.8136,11.8366,11.8997,11.9684,11.9485,0.0,0.0,11.9576,11.9492,11.9225,12.0563,12.0936,12.065,12.188,12.1754,12.0529,12.0458,12.0104,11.9346,11.8627,11.879,11.9693,12.0182,12.1844,12.4556,12.6316,12.8095,12.9687,12.9854,12.979,12.9599,12.9184,12.8458,12.7696,12.7896,12.6748,12.4164,12.3779,12.0708,11.4677,11.7627,11.6616,11.0994,11.3125,11.2547,10.8467,10.6986,10.638,10.6581,10.4244,10.4752,10.8491,10.6928,10.5961,10.6502,10.5906,10.6355,10.8343,11.067,11.0929,10.8127,10.6793,10.6529,10.762,10.6435,10.5646,10.5658,10.6872,10.7822,10.7949,10.9176,11.0033,11.0033,10.994,10.9854,10.9882,10.9871,11.0493,11.2009,11.2654,11.3879,11.6633,11.7695,11.8275,11.9565,11.9755,11.9603,11.9566,11.9528,11.949,11.9484,11.9179,11.864,11.8125,11.7602,11.7084,11.6675,11.6471,11.6445,11.6187,11.5303,11.4477,11.4027,11.3015,11.1724,11.1135,11.1027,11.1171,11.1957,11.1259,11.082,11.9238,11.8286,11.769,11.7635,0.0,11.82,11.7815,11.7015,11.7951,11.7707,11.6452,11.5686,11.5069,11.4725,11.6873,11.7591,11.7394,12.0165,12.0573,11.8914,11.9823,11.9681,11.8496,11.8421,11.8784,11.9623,12.0317,12.2026,12.4608,12.6124,12.7845,12.9854,12.9858,12.9816,12.964,12.9255,12.8505,12.7415,12.6653,12.4964,12.2553,12.1845,11.9225,11.4425,11.64,0.0,0.0,0.0,0.0,0.0,0.0,0.0,0.0,10.2369,0.0,10.0559,9.6214,9.4035,9.5154,9.4478,9.6311,10.1634,10.3836,10.3461,10.0047,10.2971,10.4545,10.3716,10.4405,10.4861,10.4907,10.5611,10.6184,10.6285,10.7757,10.8735,10.8716,10.9351,10.9795,10.9822,10.9798,11.0088,11.0947,11.1756,11.3362,11.5599,11.6787,11.8025,11.9466,11.9755,11.9693,11.9715,11.9731,11.9715,11.9661,11.9355,11.8838,11.8317,11.7767,11.6921,11.5787,11.5378,11.4897,11.405,11.335,11.2711,11.2245,11.1461,11.0571,11.0191,10.9862,10.9823,10.9755,10.9137,10.8912,11.9048,11.7976,11.7205,11.7146,11.7577,11.7815,11.6695,11.4902,11.6644,11.6201,11.3975,11.1805,11.0644,11.0444,11.2871,11.3899,11.3874,11.7811,11.8621,11.6724,11.8908,11.9143,11.7743,11.8646,11.9443,12.0207,12.0938,12.2504,12.4771,12.5889,12.7382,12.9292,12.9617,12.9725,12.9599,0.0,0.0,0.0,12.5489,12.3216,12.0941,12.0058,11.784,11.4316,11.557,0.0,11.3414,11.3811,11.3702,11.2764,11.0958,0.0,0.0,0.0,0.0,0.0,0.0,0.0,0.0,0.0,0.0,0.0,9.2786,9.2034,9.0782,9.7315,10.051,9.7982,10.1248,10.3452,10.3155,10.392,10.4484,10.4532,10.5973,10.7132,10.733,10.8495,10.9507,10.9747,10.981,10.9834,10.9918,11.0971,11.2425,11.4078,11.5798,11.7481,11.8997,11.9195,11.9352,11.9731,11.9697,11.9717,11.9717,11.909,11.8303,11.7975,11.722,11.5808,11.4401,11.3777,11.308,11.2024,11.1226,11.0919,11.0464,10.984,10.9131,10.9102,10.8809,10.8301,10.7398,10.6905,10.725,11.6554,11.5578,11.3524,11.2903,11.321,11.4256,11.4804,11.513,11.6804,11.6581,11.4766,11.2255,11.0772,11.0371,11.1638,11.2127,11.2142,11.514,11.6409,11.6337,11.8408,11.9442,11.9436,12.0464,12.1234,12.1724,12.1009,12.1827,12.398,12.4391,12.5542,12.7462,12.8824,12.9457,12.9309,12.8833,12.8937,12.9594,12.796,12.5918,12.3707,12.1902,11.8794,11.4461,11.5652,11.4461,11.0344,11.2655,11.2186,10.807,10.5073,10.3837,10.46,9.9868,9.5898,0.0,8.8692,0.0,0.0,0.0,0.0,0.0,0.0,0.0,0.0,8.7375,8.9525,8.9103,9.4838,9.7951,9.6432,10.0205,10.2748,10.2824,10.4287,10.5861,10.7129,10.7472,10.8204,10.963,10.9789,10.9811,10.9811,10.9962,11.0774,11.251,11.4116,11.5617,11.7138,11.7576,11.8182,11.9566,11.9717,11.9717,11.9585,11.8134,11.6715,11.5987,11.4551,11.2807,11.2168,11.19,11.1766,11.1361,10.9926,10.8842,10.8524,10.6982,10.5868,10.5832,10.5761,10.5421,10.4465,10.4047,10.4651,11.4331,11.4366,11.2288,11.115,11.0794,11.1472,11.2046,11.2602,11.4228,11.4004,11.2341,10.9867,10.7302,10.5093,10.6413,10.7323,10.8227,11.1151,11.2675,11.3016,11.5105,11.5791,11.5341,11.612,11.6788,11.7243,11.6978,11.8354,12.115,12.2382,12.4269,12.7004,12.8592,12.6912,12.2333,12.5077,12.6779,12.7012,12.6742,12.5337,12.2935,12.1045,11.8552,11.558,11.5255,11.4172,11.215,11.3377,11.2727,10.9767,10.7456,10.5872,10.4696,9.4466,8.8979,0.0,0.0,0.0,0.0,0.0,0.0,0.0,0.0,0.0,0.0,0.0,8.0063,8.5612,9.3092,9.5747,9.1252,9.4566,9.7277,9.815,9.7277,9.873,10.3921,10.3719,10.4528,10.8008,10.8409,10.881,10.9681,10.9794,11.0417,11.2024,11.2857,11.3561,11.4415,11.6119,11.7445,11.824,11.9149,11.9717,11.9717,11.7755,11.6022,11.5283,11.3545,11.1718,11.0463,10.9519,10.8561,10.7677,10.6005,10.4564,10.4112,10.3333,10.2697,10.263,10.2859,10.2963,10.2815,10.2555,10.2914,11.2792,11.3067,10.8492,10.683,10.7258,10.7861,10.902,11.0537,11.2118,11.1809,11.0134,10.7742,10.4306,10.0198,10.0114,10.1072,10.3002,10.5763,10.7828,10.948,11.1351,11.2184,11.1977,11.3,11.3648,11.403,11.3959,11.5524,11.8506,11.9589,12.1195,12.3311,12.409,12.1494,11.5901,11.993,12.2877,12.4318,12.4837,12.4244,12.2508,12.034,11.832,11.6519,11.4966,11.41,11.41,11.3899,11.3218,11.2065,10.9209,10.6335,10.3524,8.951,0.0,0.0,0.0,0.0,0.0,0.0,0.0,0.0,0.0,6.4453,5.8612,0.0,7.2135,0.0,8.8839,9.2365,8.8437,9.0023,0.0,0.0,8.9803,9.0348,9.7301,9.8109,9.9879,10.4447,10.5985,10.7349,10.9015,10.9243,10.9659,11.0833,11.1326,11.178,11.2218,11.4491,11.6157,11.6574,11.7634,11.8638,11.8731,11.7399,11.5836,11.464,11.2439,11.0367,10.8878,10.7309,10.5835,10.4583,10.2807,10.1448,10.1205,10.0872,10.0663,9.9761,10.0033,10.0732,10.1572,10.1441,10.1673,11.2162,11.1069,9.9076,9.6625,10.0782,10.2522,10.5908,11.0463,11.214,11.1759,10.9767,10.7649,10.3763,9.8596,9.3759,0.0,9.6467,9.7975,10.1394,10.6352,10.8468,11.0458,11.2527,11.4582,11.5754,11.5949,11.4587,11.4945,11.6681,11.5541,11.4325,11.3155,11.1467,11.1573,11.3262,11.3483,11.6775,12.3235,12.3251,12.362,12.435,12.1002,11.832,11.6483,11.493,11.41,11.4063,11.3316,11.2809,11.2481,10.5993,10.1045,9.8028,0.0,0.0,0.0,0.0,0.0,0.0,0.0,0.0,0.0,0.0,0.0,0.0,0.0,0.0,6.8631,7.7828,0.0,8.9385,8.8619,0.0,0.0,0.0,8.2159,8.5922,9.0234,9.428,9.7768,0.0,0.0,10.7318,10.75,10.7538,10.7659,10.9038,11.0562,11.2105,11.2483,11.3165,11.468,11.5021,11.5533,11.6698,11.6531,11.5369,11.3125,10.9811,10.7594,10.6961,10.563,10.4652,10.4214,10.2697,10.1155,10.1229,10.0693,10.0058,9.7531,9.7489,9.8289,9.9806,10.0165,10.0444,10.1326,9.7148,9.0892,9.0045,9.2888,9.3753,9.7484,10.3009,10.2466,10.1762,10.0793,9.6582,9.2537,8.8563,8.4089,0.0,0.0,0.0,9.3657,10.0678,10.1752,10.4437,10.8362,10.9564,11.0694,11.1736,11.1304,11.1465,11.2146,11.2654,10.7547,9.7415,0.0,10.1149,10.0385,10.8235,11.4088,11.7687,12.2008,12.4419,12.4728,12.1236,11.7496,11.3811,11.3052,11.2422,11.1826,11.1461,10.9688,10.619,10.134,9.527,0.0,0.0,0.0,0.0,0.0,0.0,0.0,0.0,0.0,0.0,0.0,5.1078,4.6871,0.0,0.0,0.0,6.1685,6.6135,7.4136,7.8861,0.0,0.0,0.0,0.0,0.0,0.0,0.0,8.9064,9.4181,9.8653,10.2202,10.2784,10.3593,10.5526,10.7232,10.8521,10.9198,0.0,11.2521,11.3198,11.3944,11.4614,11.5036,11.3928,11.2609,11.1488,10.8957,10.6798,10.5654,10.401,10.2555,10.1507,9.9867,9.8464,9.8464,9.7037,9.5794,9.5886,9.597,9.6677,9.8244,9.8605,9.9028,8.8549,0.0,0.0,0.0,0.0,8.3443,8.6872,9.238,9.1434,9.0929,9.0529,8.6117,0.0,0.0,0.0,0.0,0.0,0.0,8.7664,9.5762,9.775,10.1417,10.6529,10.6419,10.7007,10.8122,10.7458,10.683,10.631,10.4326,9.666,8.3897,0.0,0.0,0.0,0.0,10.8961,11.2772,11.9849,12.3827,12.4302,12.1177,11.7729,11.4043,11.2789,11.1498,11.0324,10.8888,10.5793,10.0724,9.4896,0.0,0.0,0.0,0.0,0.0,0.0,0.0,0.0,0.0,0.0,0.0,0.0,0.0,0.0,0.0,0.0,0.0,0.0,0.0,6.2111,6.9509,7.3366,0.0,0.0,0.0,0.0,0.0,0.0,0.0,0.0,0.0,9.3662,9.6539,9.9717,0.0,0.0,10.712,10.6726,10.9038,11.0691,11.0194,11.0895,0.0,11.122,11.0499,10.9863,10.9213,10.8076,10.5963,10.2409,10.1506,10.0474,9.7805,9.6704,9.5988,9.5579,9.3692,9.2449,9.305,9.3576,9.4183,9.4815,9.5737,9.6723,0.0,0.0,0.0,0.0,7.1622,0.0,0.0,0.0,8.0474,8.0755,0.0,7.8283,0.0,0.0,0.0,0.0,7.255,7.735,0.0,0.0,9.7628,10.3262,10.7995,10.6791,10.6364,10.6373,10.3286,10.101,9.8917,8.8328,0.0,0.0,0.0,0.0,0.0,0.0,9.968,10.8688,11.645,12.1127,12.2659,12.0631,11.9449,11.9122,11.4958,11.1823,11.02,10.5341,10.1158,9.7876,8.6256,0.0,0.0,0.0,0.0,0.0,0.0,0.0,0.0,0.0,0.0,0.0,0.0,0.0,0.0,0.0,0.0,0.0,0.0,0.0,0.0,6.2298,0.0,0.0,0.0,0.0,0.0,0.0,0.0,0.0,0.0,8.3748,8.1009,8.8885,9.6248,9.9582,0.0,0.0,0.0,0.0,10.6696,10.5156,10.4891,10.481,10.4295,10.6698,10.7918,10.5994,0.0,0.0,9.6597,9.7843,9.8263,9.3361,9.3953,9.4674,9.308,9.1095,8.9691,8.8502,8.9211,8.9992,8.8951,9.0575,9.308,0.0,0.0,0.0,0.0,0.0,0.0,0.0,0.0,0.0,7.0509,7.0018,6.7287,0.0,0.0,0.0,0.0,0.0,0.0,0.0,0.0,8.5628,9.0832,9.5824,9.7576,9.7855,9.684,9.4591,8.986,0.0,0.0,0.0,0.0,0.0,0.0,0.0,0.0,9.9413,10.4676,11.5186,12.1423,12.244,11.969,11.8626,11.9413,11.3822,10.782,10.1736,9.9091,9.5477,0.0,0.0,0.0,0.0,0.0,0.0,0.0,0.0,0.0,0.0,0.0,0.0,0.0,0.0,0.0,0.0,0.0,0.0,0.0,0.0,0.0,0.0,0.0,6.1869,0.0,0.0,0.0,0.0,0.0,0.0,0.0,0.0,0.0,7.4734,8.1742,8.8809,9.437,9.9356,10.2691,10.3242,0.0,0.0,0.0,0.0,0.0,0.0,0.0,10.072,10.0914,9.7659,9.4667,9.3702,9.4499,9.4267,9.1409,0.0,0.0,8.3222,7.9727,7.849,7.9911,7.9834,8.0313,8.2735,8.4191,8.5707,0.0,0.0,0.0,0.0,0.0,0.0,0.0,0.0,0.0,6.0287,6.007,0.0,0.0,0.0,0.0,0.0,0.0,0.0,0.0,0.0,0.0,0.0,8.6568,8.8822,0.0,0.0,0.0,0.0,0.0,0.0,0.0,0.0,0.0,0.0,0.0,0.0,9.8383,10.1053,11.4123,12.108,12.0944,11.8901,11.817,11.9081,11.3391,10.6883,9.9829,0.0,0.0,0.0,0.0,0.0,0.0,0.0,0.0,0.0,0.0,0.0,0.0,0.0,0.0,0.0,0.0,0.0,0.0,0.0,0.0,0.0,0.0,0.0,0.0,0.0,5.6538,0.0,0.0,0.0,0.0,0.0,0.0,0.0,0.0,0.0,0.0,7.5231,8.2569,8.9865,9.5557,9.9641,10.136,10.2961,10.3718,0.0,0.0,0.0,0.0,0.0,0.0,0.0,0.0,0.0,0.0,0.0,0.0,0.0,8.5305,8.4005,7.5878,7.2316,7.0843,7.1839,0.0,0.0,0.0,0.0,0.0,0.0,0.0,0.0,0.0,0.0,0.0,0.0,0.0,0.0,0.0,5.0381,0.0,0.0,5.2589,0.0,0.0,0.0,0.0,0.0,0.0,0.0,0.0,0.0,0.0,0.0,0.0,0.0,0.0,0.0,0.0,0.0,0.0,0.0,0.0,0.0,0.0,9.6144,9.7376,11.2891,11.9973,11.7915,11.8157,11.8288,11.8252,11.3817,10.9368,10.5109,0.0,0.0,0.0,0.0,0.0,0.0,0.0,0.0,0.0,0.0,0.0,0.0,0.0,0.0,0.0,0.0,0.0,0.0,0.0,0.0,0.0,0.0,0.0,0.0,0.0,0.0,5.2927,5.8525,6.0389,0.0,0.0,0.0,0.0,0.0,0.0,0.0,0.0,0.0,8.6073,9.2926,9.768,9.9613,10.1064,10.1352,9.9763,9.9612,9.9128,9.7439,9.9542,9.9965,0.0,0.0,0.0,0.0,0.0,0.0,0.0,0.0,0.0,0.0,0.0,0.0,0.0,0.0,0.0,0.0,0.0,0.0,0.0,0.0,0.0,0.0,0.0,0.0,0.0,0.0,0.0,0.0,0.0,0.0,0.0,0.0,0.0,0.0,0.0,0.0,0.0,0.0,0.0,0.0,0.0,0.0,0.0,0.0,0.0,0.0,0.0,0.0,0.0,0.0,0.0,0.0,0.0,0.0,9.5417,9.7239,11.1069,11.8082,11.7769,11.7229,11.7384,11.8208,11.4012,10.9587,0.0,0.0,0.0,0.0,0.0,0.0,0.0,0.0,0.0,0.0,0.0,0.0,0.0,0.0,0.0,0.0,0.0,0.0,0.0,0.0,0.0,0.0,0.0,0.0,0.0,0.0,0.0,0.0,6.258,6.3368,5.7084,0.0,0.0,0.0,0.0,0.0,0.0,0.0,0.0,0.0,0.0,9.3629,9.7548,9.8483,9.8568,9.7981,9.801,9.7867,9.7231,9.6093,9.4681,9.2889,0.0,0.0,0.0,0.0,0.0,0.0,0.0,0.0,0.0,0.0,0.0,0.0,0.0,0.0,0.0,0.0,0.0,0.0,0.0,0.0,0.0,0.0,0.0,0.0,0.0,0.0,0.0,0.0,0.0,0.0,0.0,0.0,0.0,0.0,0.0,0.0,0.0,0.0,0.0,0.0,0.0,0.0,0.0,0.0,0.0,0.0,0.0,0.0,0.0,0.0,0.0,0.0,0.0,9.522,9.7713,11.0999,11.7865,11.7502,11.689,11.7059,11.8176,11.4521,10.9419,0.0,0.0,0.0,0.0,0.0,0.0,0.0,0.0,0.0,0.0,0.0,0.0,0.0,0.0,0.0,0.0,0.0,0.0,0.0,0.0,0.0,0.0,0.0,0.0,0.0,0.0,0.0,0.0,5.8047,5.9478,5.6501,0.0,0.0,0.0,0.0,0.0,0.0,0.0,0.0,0.0,0.0,8.9096,9.464,9.544,0.0,0.0,9.5855,9.5665,9.6204,9.4723,9.2522,8.9638,8.3838,0.0,0.0,0.0,0.0,0.0,0.0,0.0,0.0,0.0,0.0,0.0,0.0,0.0,0.0,0.0,0.0,0.0,0.0,0.0,0.0,0.0,0.0,0.0,0.0,0.0,0.0,0.0,0.0,0.0,0.0,0.0,0.0,0.0,0.0,0.0,0.0,0.0,0.0,0.0,0.0,0.0,0.0,0.0,0.0,0.0,0.0,0.0,0.0,0.0,0.0,0.0,0.0,9.5166,9.8516,11.2218,11.8667,11.7275,11.7255,11.7554,11.8111,11.5269,10.9079,0.0,0.0,0.0,0.0,0.0,0.0,0.0,0.0,0.0,0.0,0.0,0.0,0.0,0.0,0.0,0.0,0.0,0.0,0.0,0.0,0.0,0.0,0.0,0.0,0.0,0.0,0.0,0.0,0.0,0.0,0.0,0.0,0.0,0.0,0.0,0.0,0.0,0.0,0.0,0.0,0.0,8.4704,9.1419,9.2154,9.2637,0.0,9.3183,9.2685,9.4116,9.4402,9.2315,8.5664,0.0,0.0,0.0,0.0,0.0,0.0,0.0,0.0,0.0,0.0,0.0,0.0,0.0,0.0,0.0,0.0,0.0,0.0,0.0,0.0,0.0,0.0,0.0,0.0,0.0,0.0,0.0,0.0,0.0,0.0,0.0,0.0,0.0,0.0,0.0,0.0,0.0,0.0,0.0,0.0,0.0,0.0,0.0,0.0,0.0,0.0,0.0,0.0,0.0,0.0,0.0,0.0,0.0,0.0,9.8292,11.1504,11.8513,11.8927,11.9407,11.969,11.9794,11.5869,0.0,0.0,0.0,0.0,0.0,0.0,0.0,0.0,0.0,0.0,0.0,0.0,0.0,0.0,0.0,0.0,0.0,0.0,0.0,0.0,0.0,0.0,0.0,0.0,0.0,0.0,0.0,4.1717,0.0,0.0,0.0,0.0,0.0,0.0,0.0,0.0,0.0,0.0,0.0,0.0,0.0,0.0,8.4819,9.1419,9.0244,8.9256,0.0,0.0,8.8836,8.9102,8.9294,8.789,0.0,0.0,0.0,0.0,0.0,0.0,0.0,0.0,0.0,0.0,0.0,0.0,0.0,0.0,0.0,0.0,0.0,0.0,0.0,0.0,0.0,0.0,0.0,0.0,0.0,0.0,0.0,0.0,0.0,0.0,0.0,0.0,0.0,0.0,0.0,0.0,0.0,0.0,0.0,0.0,0.0,0.0,0.0,0.0,0.0,0.0,0.0,0.0,0.0,0.0,0.0,0.0,0.0,0.0,8.9328,9.8478,10.8506,11.5487,11.9065,11.9336,11.9211,11.8753,11.5537,10.8776,0.0,0.0,0.0,0.0,0.0,0.0,0.0,0.0,0.0,0.0,0.0,0.0,0.0,0.0,0.0,0.0,0.0,0.0,0.0,0.0,0.0,0.0,0.0,0.0,0.0,0.0,0.0,0.0,0.0,0.0,0.0,0.0,0.0,0.0,0.0,0.0,0.0,0.0,0.0,0.0,0.0,0.0,8.842,8.6296,0.0,0.0,0.0,8.3562,8.496,0.0,0.0,0.0,0.0,0.0,0.0,0.0,0.0,0.0,0.0,0.0,0.0,0.0,0.0,0.0,0.0,0.0,0.0,0.0,0.0,0.0,0.0,0.0,0.0,0.0,0.0,0.0,0.0,0.0,0.0,0.0,0.0,0.0,0.0,0.0,0.0,0.0,0.0,0.0,0.0,0.0,0.0,0.0,0.0,0.0,0.0,0.0,0.0,0.0,0.0,0.0,0.0,0.0,0.0,0.0,0.0,0.0,9.8359,10.5483,11.2228,11.8391,11.8566,11.7812,11.6736,11.4896,10.8397,0.0,0.0,0.0,0.0,0.0,0.0,0.0,0.0,0.0,0.0,0.0,0.0,0.0,0.0,0.0,0.0,0.0,0.0,0.0,0.0,0.0,0.0,0.0,0.0,0.0,0.0,0.0,0.0,0.0,0.0,0.0,0.0,0.0,0.0,0.0,0.0,0.0,0.0,0.0,0.0,0.0,8.0616,8.417,8.1569,7.9857,0.0,0.0,7.7905,8.1047,7.9993,0.0,0.0,0.0,0.0,0.0,0.0,0.0,0.0,0.0,0.0,0.0,0.0,0.0,0.0,0.0,0.0,0.0,0.0,0.0,0.0,0.0,0.0,0.0,0.0,0.0,0.0,0.0,0.0,0.0,0.0,0.0,0.0,0.0,0.0,0.0,0.0,0.0,0.0,0.0,0.0,0.0,0.0,0.0,0.0,0.0,0.0,0.0,0.0,0.0,0.0,0.0,0.0,0.0,0.0,0.0,0.0,9.7111,10.8735,11.6062,11.8691,11.997,11.9895,11.8315,11.5458,10.8431,0.0,0.0,0.0,0.0,0.0,0.0,0.0,0.0,0.0,0.0,0.0,0.0,0.0,0.0,0.0,0.0,0.0,0.0,0.0,0.0,0.0,0.0,0.0,0.0,0.0,0.0,0.0,0.0,0.0,0.0,0.0,0.0,0.0,0.0,0.0,0.0,0.0,0.0,0.0,0.0,0.0,7.7714,8.2192,7.8984,0.0,0.0,0.0,0.0,7.608,7.3927,0.0,0.0,0.0,0.0,0.0,0.0,0.0,0.0,0.0,0.0,0.0,0.0,0.0,0.0,0.0,0.0,0.0,0.0,0.0,0.0,0.0,0.0,0.0,0.0,0.0,0.0,0.0,0.0,0.0,0.0,0.0,0.0,0.0,0.0,0.0,0.0,0.0,0.0,0.0,0.0,0.0,0.0,0.0,0.0,0.0,0.0,0.0,0.0,0.0,0.0,0.0,0.0,0.0,0.0,0.0,0.0,9.7374,10.5269,11.1548,11.6247,11.7262,11.6924,11.5232,11.3578,10.7224,0.0,0.0,0.0,0.0,0.0,0.0,0.0,0.0,0.0,0.0,0.0,0.0,0.0,0.0,0.0,0.0,0.0,0.0,0.0,0.0,0.0,0.0,0.0,0.0,0.0,0.0,0.0,0.0,0.0,0.0,0.0,0.0,0.0,0.0,0.0,0.0,0.0,0.0,0.0,0.0,7.1785,7.6235,7.9529,0.0,0.0,0.0,0.0,0.0,0.0,7.0199,6.7514,0.0,0.0,0.0,0.0,0.0,0.0,0.0,0.0,0.0,0.0,0.0,0.0,0.0,0.0,0.0,0.0,0.0,0.0,0.0,0.0,0.0,0.0,0.0,0.0,0.0,0.0,0.0,0.0,0.0,0.0,0.0,0.0,0.0,0.0,0.0,0.0,0.0,0.0,0.0,0.0,0.0,0.0,0.0,0.0,0.0,0.0,0.0,0.0,0.0,0.0,0.0,0.0,0.0,0.0,0.0,9.7118,10.0344,10.5645,11.3277,11.3766,11.3127,11.1435,11.1134,10.5532,9.4103,0.0,0.0,0.0,0.0,0.0,0.0,0.0,0.0,0.0,0.0,0.0,0.0,0.0,0.0,0.0,0.0,0.0,0.0,0.0,0.0,0.0,0.0,0.0,0.0,0.0,0.0,0.0,0.0,0.0,0.0,0.0,0.0,0.0,0.0,0.0,0.0,0.0,0.0,0.0,6.974,7.4032,0.0,0.0,0.0,0.0,0.0,0.0,0.0,0.0,6.5013,0.0,0.0,0.0,0.0,0.0,0.0,0.0,0.0,0.0,0.0,0.0,0.0,0.0,0.0,0.0,0.0,0.0,0.0,0.0,0.0,0.0,0.0,0.0,0.0,0.0,0.0,0.0,0.0,0.0,0.0,0.0,0.0,0.0,0.0,0.0,0.0,0.0,0.0,0.0,0.0,0.0,0.0,0.0,0.0,0.0,0.0,0.0,0.0,0.0,0.0,0.0,0.0,0.0,0.0,0.0,0.0,9.9186,10.6247,11.1548,11.3164,11.3089,11.1435,11.0006,10.3841,9.2374,0.0,0.0,0.0,0.0,0.0,0.0,0.0,0.0,0.0,0.0,0.0,0.0,0.0,0.0,0.0,0.0,0.0,0.0,0.0,0.0,0.0,0.0,0.0,0.0,0.0,0.0,0.0,0.0,0.0,0.0,0.0,0.0,0.0,0.0,0.0,0.0,0.0,0.0,5.4178,6.153,0.0,0.0,0.0,0.0,0.0,0.0,0.0,0.0,6.326,0.0,0.0,0.0,0.0,0.0,0.0,0.0,0.0,0.0,0.0,0.0,0.0,0.0,0.0,0.0,0.0,0.0,0.0,0.0,0.0,0.0,0.0,0.0,0.0,0.0,0.0,0.0,0.0,0.0,0.0,0.0,0.0,0.0,0.0,0.0,0.0,0.0,0.0,0.0,0.0,0.0,0.0,0.0,0.0,0.0,0.0,0.0,0.0,0.0,0.0,0.0,0.0,0.0,0.0,0.0,0.0,0.0,0.0,10.2938,10.8615,11.0382,11.0833,10.9931,10.5871,9.8577,0.0,0.0,0.0,0.0,0.0,0.0,0.0,0.0,0.0,0.0,0.0,0.0,0.0,0.0,0.0,0.0,0.0,0.0,0.0,0.0,0.0,0.0,0.0,0.0,0.0,0.0,0.0,0.0,0.0,0.0,0.0,0.0,0.0,0.0,0.0,0.0,0.0,0.0,0.0,0.0,0.0,0.0,0.0,0.0,0.0,0.0,0.0,0.0,0.0,0.0,0.0,0.0,0.0,0.0,0.0,0.0,0.0,0.0,0.0,0.0,0.0,0.0,0.0,0.0,0.0,0.0,0.0,0.0,0.0,0.0,0.0,0.0,0.0,0.0,0.0,0.0,0.0,0.0,0.0,0.0,0.0,0.0,0.0,0.0,0.0,0.0,0.0,0.0,0.0,0.0,0.0,0.0,0.0,0.0,0.0,0.0,0.0,0.0,0.0,0.0,0.0,0.0,0.0,0.0,0.0,0.0,0.0,0.0,9.9291,10.5796,10.7863,10.8728,10.8352,10.1591,9.3398,0.0,0.0,0.0,0.0,0.0,0.0,0.0,0.0,0.0,0.0,0.0,0.0,0.0,0.0,0.0,0.0,0.0,0.0,0.0,0.0,0.0,0.0,0.0,0.0,0.0,0.0,0.0,0.0,0.0,0.0,0.0,0.0,0.0,0.0,0.0,0.0,0.0,0.0,0.0,0.0,0.0,0.0,0.0,0.0,0.0,0.0,0.0,0.0,6.3121,0.0,0.0,0.0,0.0,0.0,0.0,0.0,0.0,0.0,0.0,0.0,0.0,0.0,0.0,0.0,0.0,0.0,0.0,0.0,0.0,0.0,0.0,0.0,0.0,0.0,0.0,0.0,0.0,0.0,0.0,0.0,0.0,0.0,0.0,0.0,0.0,0.0,0.0,0.0,0.0,0.0,0.0,0.0,0.0,0.0,0.0,0.0,0.0,0.0,0.0,0.0,0.0,0.0,0.0,0.0,0.0,0.0,0.0,0.0,9.7562,10.4104,10.7262,10.8202,10.6623,9.8854,9.0588,0.0,0.0,0.0,0.0,0.0,0.0,0.0,0.0,0.0,0.0,0.0,0.0,0.0,0.0,0.0,0.0,0.0,0.0,0.0,0.0,0.0,0.0,0.0,0.0,0.0,0.0,0.0,0.0,0.0,0.0,0.0,0.0,0.0,0.0,0.0,0.0,0.0,0.0,0.0,0.0,0.0,0.0,0.0,0.0,0.0,0.0,0.0,0.0,0.0,0.0,0.0,0.0,0.0,0.0,0.0,0.0,0.0,0.0,0.0,0.0,0.0,0.0,0.0,0.0,0.0,0.0,0.0,0.0,0.0,0.0,0.0,0.0,0.0,0.0,0.0,0.0,0.0,0.0,0.0,0.0,0.0,0.0,0.0,0.0,0.0,0.0,0.0,0.0,0.0,0.0,0.0,0.0,0.0,0.0,0.0,0.0,0.0,0.0,0.0,0.0,0.0,0.0,0.0,0.0,0.0,0.0,0.0,0.0,9.3464,10.0946,10.4329,10.3916,9.9442,9.2195,8.4877,0.0,0.0,0.0,0.0,0.0,0.0,0.0,0.0,0.0,0.0,0.0,0.0,0.0,0.0,0.0,0.0,0.0,0.0,0.0,0.0,0.0,0.0,0.0,0.0,0.0,0.0,0.0,0.0,0.0,0.0,0.0,0.0,0.0,0.0,0.0,0.0,0.0,0.0,0.0,0.0,0.0,0.0,0.0,0.0,0.0,0.0,0.0,0.0,0.0,0.0,0.0,0.0,0.0,0.0,0.0,0.0,0.0,0.0,0.0,0.0,0.0,0.0,0.0,0.0,0.0,0.0,0.0,0.0,0.0,0.0,0.0,0.0,0.0,0.0,0.0,0.0,0.0,0.0,0.0,0.0,0.0,0.0,0.0,0.0,0.0,0.0,0.0,0.0,0.0,0.0,0.0,0.0,0.0,0.0,0.0,0.0,0.0,0.0,0.0,0.0,0.0,0.0,0.0,0.0,0.0,0.0,0.0,0.0,0.0,9.6171,9.8803,9.7336,9.1622,8.5467,7.8928,0.0,0.0,0.0,0.0,0.0,0.0,0.0,0.0,0.0,0.0,0.0,0.0,0.0,0.0,0.0,0.0,0.0,0.0,0.0,0.0,0.0,0.0,0.0,0.0,0.0,0.0,0.0,0.0,0.0,0.0,0.0,0.0,0.0,0.0,0.0,0.0,0.0,0.0,0.0,0.0,0.0,0.0,0.0,0.0,0.0,0.0,0.0,0.0,0.0,0.0,0.0,0.0,0.0,0.0,0.0,0.0,0.0,0.0,0.0,0.0,0.0,0.0,0.0,0.0,0.0,0.0,0.0,0.0,0.0,0.0,0.0,0.0,0.0,0.0,0.0,0.0,0.0,0.0,0.0,0.0,0.0,0.0,0.0,0.0,0.0,0.0,0.0,0.0,0.0,0.0,0.0,0.0,0.0,0.0,0.0,0.0,0.0,0.0,0.0,0.0,0.0,0.0,0.0,0.0,0.0,0.0,0.0,0.0,0.0,8.9732,8.9855,8.8238,8.4817,7.983,7.3327,0.0,0.0,0.0,0.0,0.0,0.0,0.0,0.0,0.0,0.0,0.0,0.0,0.0,0.0,0.0,0.0,0.0,0.0,0.0,0.0,0.0,0.0,0.0,0.0,0.0,0.0,0.0,0.0,0.0,0.0,0.0,0.0,0.0,0.0,0.0,0.0,0.0,0.0,0.0,0.0,0.0,0.0,0.0,0.0,0.0,0.0,0.0,0.0,0.0,0.0,0.0,0.0,0.0,0.0,0.0,0.0,0.0,0.0,0.0,0.0,0.0,0.0,0.0,0.0,0.0,0.0,0.0,0.0,0.0,0.0,0.0,0.0,0.0,0.0,0.0,0.0,0.0,0.0,0.0,0.0,0.0,0.0,0.0,0.0,0.0,0.0,0.0,0.0,0.0,0.0,0.0,0.0,0.0,0.0,0.0,0.0,0.0,0.0,0.0,0.0,0.0,0.0,0.0,0.0,0.0,0.0,0.0,0.0,0.0,7.8388,8.0268,8.1245,8.1132,7.3215,6.8028,6.5868,0.0,0.0,0.0,0.0,0.0,0.0,0.0,0.0,0.0,0.0,0.0,0.0,0.0,0.0,0.0,0.0,0.0,0.0,0.0,0.0,0.0,0.0,0.0,0.0,0.0,0.0,0.0,0.0,0.0,0.0,0.0,0.0,0.0,0.0,0.0,0.0,0.0,0.0,0.0,0.0,0.0,0.0,0.0,0.0,0.0,0.0,0.0,0.0,0.0,0.0,0.0,0.0,0.0,0.0,0.0,0.0,0.0,0.0,0.0,0.0,0.0,0.0,0.0,0.0,0.0,0.0,0.0,0.0,0.0,0.0,0.0,0.0,0.0,0.0,0.0,0.0,0.0,0.0,0.0,0.0,0.0,0.0,0.0,0.0,0.0,0.0,0.0,0.0,0.0,0.0,0.0,0.0,0.0,0.0,0.0,0.0,0.0,0.0,0.0,0.0,0.0,0.0,0.0,0.0,0.0,0.0,0.0,0.0,7.1057,7.4252,7.6095,7.5982,6.9494,6.5021,0.0,0.0,0.0,0.0,0.0,0.0,0.0,0.0,0.0,0.0,0.0,0.0,0.0,0.0,0.0,0.0,0.0,0.0,0.0,0.0,0.0,0.0,0.0,0.0,0.0,0.0,0.0,0.0,0.0,0.0,0.0,0.0,0.0,0.0,0.0,0.0,0.0,0.0,0.0,0.0,0.0,0.0,0.0,0.0,0.0,0.0,0.0,0.0,0.0,0.0,0.0,0.0,0.0,0.0,0.0,0.0,0.0,0.0,0.0,0.0,0.0,0.0,0.0,0.0,0.0,0.0,0.0,0.0,0.0,0.0,0.0,0.0,0.0,0.0,0.0,0.0,0.0,0.0,0.0,0.0,0.0,0.0,0.0,0.0,0.0,0.0,0.0,0.0,0.0,0.0,0.0,0.0,0.0,0.0,0.0,0.0,0.0,0.0,0.0,0.0,0.0,0.0,0.0,0.0,0.0,0.0,0.0,0.0,6.2936,6.9139,7.2448,7.2861,6.9778,6.9284,6.4625,0.0,0.0,0.0,0.0,0.0,0.0,0.0,0.0,0.0,0.0,0.0,0.0,0.0,0.0,0.0,0.0,0.0,0.0,0.0,0.0,0.0,0.0,0.0,0.0,0.0,0.0,0.0,0.0,0.0,0.0,0.0,0.0,0.0,0.0,0.0,0.0,0.0,0.0,0.0,0.0,0.0,0.0,0.0,0.0,0.0,0.0,0.0,0.0,0.0,0.0,0.0,0.0,0.0,0.0,0.0,0.0,0.0,0.0,0.0,0.0,0.0,0.0,0.0,0.0,0.0,0.0,0.0,0.0,0.0,0.0,0.0,0.0,0.0,0.0,0.0,0.0,0.0,0.0,0.0,0.0,0.0,0.0,0.0,0.0,0.0,0.0,0.0,0.0,0.0,0.0,0.0,0.0,0.0,0.0,0.0,0.0,0.0,0.0,0.0,0.0,0.0,0.0,0.0,0.0,0.0,0.0,0.0,0.0,0.0,6.4177,0.0,7.0831,0.0,6.799,6.2729,0.0,0.0,0.0,0.0,0.0,0.0,0.0,0.0,0.0,0.0,0.0,0.0,0.0,0.0,0.0,0.0,0.0,0.0,0.0,0.0,0.0,0.0,0.0,0.0,0.0,0.0,0.0,0.0,0.0,0.0,0.0,0.0,0.0,0.0,0.0,0.0,0.0,0.0,0.0,0.0,0.0,0.0,0.0,0.0,0.0,0.0,0.0,0.0,0.0,0.0,0.0,0.0,0.0,0.0,0.0,0.0,0.0,0.0,0.0,0.0,0.0,0.0,0.0,0.0,0.0,0.0,0.0,0.0,0.0,0.0,0.0,0.0,0.0,0.0,0.0,0.0,0.0,0.0,0.0,0.0,0.0,0.0,0.0,0.0,0.0,0.0,0.0,0.0,0.0,0.0,0.0,0.0,0.0,0.0,0.0,0.0,0.0,0.0,0.0,0.0,0.0,0.0,0.0,0.0,0.0,0.0,0.0,0.0,0.0,6.35,6.4044,6.8237,7.5643,6.7786,6.3387,0.0,0.0,0.0,0.0,0.0,0.0,0.0,0.0,0.0,0.0,0.0,0.0,0.0,0.0,0.0,0.0,0.0,0.0,0.0,0.0,0.0,0.0,0.0,0.0,0.0,0.0,0.0,0.0,0.0,0.0,0.0,0.0,0.0,0.0,0.0,0.0,0.0,0.0,0.0,0.0,0.0,0.0,0.0,0.0,0.0,0.0,0.0,0.0,0.0,0.0,0.0,0.0,0.0,0.0,0.0,0.0,0.0,0.0,0.0,0.0,0.0,0.0,0.0,0.0,0.0,0.0,0.0,0.0,0.0,0.0,0.0,0.0,0.0,0.0,0.0,0.0,0.0,0.0,0.0,0.0,0.0,0.0,0.0,0.0,0.0,0.0,0.0,0.0,0.0,0.0,0.0,0.0,0.0,0.0,0.0,0.0,0.0,0.0,0.0,0.0,0.0,0.0,0.0,0.0,0.0,0.0,0.0,0.0,0.0,6.6169,6.5154,6.5229,6.6771,6.8124,6.6056,0.0,0.0,0.0,0.0,0.0,0.0,0.0,0.0,0.0,0.0,0.0,0.0,0.0,0.0,0.0,0.0,0.0,0.0,0.0,0.0,0.0,0.0,0.0,0.0,0.0,0.0,0.0,0.0,0.0,0.0,0.0,0.0,0.0,0.0,0.0,0.0,0.0,0.0,0.0,0.0,0.0,0.0,0.0,0.0,0.0,0.0,0.0,0.0,0.0,0.0,0.0,0.0,0.0,0.0,0.0,0.0,0.0,0.0,0.0,0.0,0.0,0.0,0.0,0.0,0.0,0.0,0.0,0.0,0.0,0.0,0.0,0.0,0.0,0.0,0.0,0.0,0.0,0.0,0.0,0.0,0.0,0.0,0.0,0.0,0.0,0.0,0.0,0.0,0.0,0.0,0.0,0.0,0.0,0.0,0.0,0.0,0.0,0.0,0.0,0.0,0.0,0.0,0.0,0.0,0.0,0.0,0.0,0.0,0.0,0.0,6.459,6.5229,6.3312,6.256,6.2485,6.2992,0.0,0.0,0.0,0.0,0.0,0.0,0.0,0.0,0.0,0.0,0.0,0.0,0.0,0.0,0.0,0.0,0.0,0.0,0.0,0.0,0.0,0.0,0.0,0.0,0.0,0.0,0.0,0.0,0.0,0.0,0.0,0.0,0.0,0.0,0.0,0.0,0.0,0.0,0.0,0.0,0.0,0.0,0.0,0.0,0.0,0.0,0.0,0.0,0.0,0.0,0.0,0.0,0.0,0.0,0.0,0.0,0.0,0.0,0.0,0.0,0.0,0.0,0.0,0.0,0.0,0.0,0.0,0.0,0.0,0.0,0.0,0.0,0.0,0.0,0.0,0.0,0.0,0.0,0.0,0.0,0.0,0.0,0.0,0.0,0.0,0.0,0.0,0.0,0.0,0.0,0.0,0.0,0.0,0.0,0.0,0.0,0.0,0.0,0.0,0.0,0.0,0.0,0.0,0.0,0.0,0.0,0.0,0.0,0.0,0.0,6.3199,6.1846,6.0304,6.0379,0.0,0.0,0.0,0.0,0.0,0.0,0.0,0.0,0.0,0.0,0.0,0.0,0.0,0.0,0.0,0.0,0.0,0.0,0.0,0.0,0.0,0.0,0.0,0.0,0.0,0.0,0.0,0.0,0.0,0.0,0.0,0.0,0.0,0.0,0.0,0.0,0.0,0.0,0.0,0.0,0.0,0.0,0.0,0.0,0.0,0.0,0.0,0.0,0.0,0.0,0.0,0.0,0.0,0.0,0.0,0.0,0.0,0.0,0.0,0.0,0.0,0.0,0.0,0.0,0.0,0.0,0.0,0.0,0.0,0.0,0.0,0.0,0.0,0.0,0.0,0.0,0.0,0.0,0.0,0.0,0.0,0.0,0.0,0.0,0.0,0.0,0.0,0.0,0.0,0.0,0.0,0.0,0.0,0.0,0.0,0.0,0.0,0.0,0.0,0.0,0.0,0.0,0.0,0.0,0.0,0.0,0.0,0.0,0.0,0.0,0.0,6.0342,6.1545,6.053,0.0,5.9139,0.0,0.0,0.0,0.0,0.0,0.0,0.0,0.0,0.0,0.0,0.0,0.0,0.0,0.0,0.0,0.0,0.0,0.0,0.0,0.0,0.0,0.0,0.0,0.0,0.0,0.0,0.0,0.0,0.0,0.0,0.0,0.0,0.0,0.0,0.0,0.0,0.0,0.0,0.0,0.0,0.0,0.0,0.0,0.0,0.0,0.0,0.0,0.0,0.0,0.0,0.0,0.0,0.0,0.0,0.0,0.0,0.0,0.0,0.0,0.0,0.0,0.0,0.0,0.0,0.0,0.0,0.0,0.0,0.0,0.0,0.0,0.0,0.0,0.0,0.0,0.0,0.0,0.0,0.0,0.0,0.0,0.0,0.0,0.0,0.0,0.0,0.0,0.0,0.0,0.0,0.0,0.0,0.0,0.0,0.0,0.0,0.0,0.0,0.0,0.0,0.0,0.0,0.0,0.0,0.0,0.0,0.0,0.0,0.0,0.0,0.0,0.0,6.2109,6.0868,5.5868,0.0,0.0,0.0,0.0,0.0,0.0,0.0,0.0,0.0,0.0,0.0,0.0,0.0,0.0,0.0,0.0,0.0,0.0,0.0,0.0,0.0,0.0,0.0,0.0,0.0,0.0,0.0,0.0,0.0,0.0,0.0,0.0,0.0,0.0,0.0,0.0,0.0,0.0,0.0,0.0,0.0,0.0,0.0,0.0,0.0,0.0,0.0,0.0,0.0,0.0,0.0,0.0,0.0,0.0,0.0,0.0,0.0,0.0,0.0,0.0,0.0,0.0,0.0,0.0,0.0,0.0,0.0,0.0,0.0,0.0,0.0,0.0,0.0,0.0,0.0,0.0,0.0,0.0,0.0,0.0,0.0,0.0,0.0,0.0,0.0,0.0,0.0,0.0,0.0,0.0,0.0,0.0,0.0,0.0,0.0,0.0,0.0,0.0,0.0,0.0,0.0,0.0,0.0,0.0,0.0,0.0,0.0,0.0,0.0,0.0,6.068,5.8462,6.0041,5.8537,5.3537,0.0,0.0,0.0,0.0,0.0,0.0,0.0,0.0,0.0,0.0,0.0,0.0,0.0,0.0,0.0,0.0,0.0,0.0,0.0,0.0,0.0,0.0,0.0,0.0,0.0,0.0,0.0,0.0,0.0,0.0,0.0,0.0,0.0,0.0,0.0,0.0,0.0,0.0,0.0,0.0,0.0,0.0,0.0,0.0,0.0,0.0,0.0,0.0,0.0,0.0,0.0,0.0,0.0,0.0,0.0,0.0,0.0,0.0,0.0,0.0,0.0,0.0,0.0,0.0,0.0,0.0,0.0,0.0,0.0,0.0,0.0,0.0,0.0,0.0,0.0,0.0,0.0,0.0,0.0,0.0,0.0,0.0,0.0,0.0,0.0,0.0,0.0,0.0,0.0,0.0,0.0,0.0,0.0,0.0,0.0,0.0,0.0,0.0,0.0,0.0,0.0,0.0,0.0,0.0,0.0,0.0,0.0,0.0,0.0,0.0,0.0,0.0,0.0,0.0,5.2468,0.0,0.0,0.0,0.0,0.0,0.0,0.0,0.0,0.0,0.0,0.0,0.0,0.0,0.0,0.0,0.0,0.0,0.0,0.0,0.0,0.0,0.0,0.0,0.0,0.0,0.0,0.0,0.0,0.0,0.0,0.0,0.0,0.0,0.0,0.0,0.0,0.0,0.0,0.0,0.0,0.0,0.0,0.0,0.0,0.0,0.0,0.0,0.0,0.0,0.0,0.0,0.0,0.0,0.0,0.0,0.0,0.0,0.0,0.0,0.0,0.0,0.0,0.0,0.0,0.0,0.0,0.0,0.0,0.0,0.0,0.0,0.0,0.0,0.0,0.0,0.0,0.0,0.0,0.0,0.0,0.0,0.0,0.0,0.0,0.0,0.0,0.0,0.0,0.0,0.0,0.0,0.0,0.0,0.0,0.0,0.0,0.0,0.0,0.0,0.0,0.0,0.0,0.0,0.0,0.0,0.0,0.0,0.0,0.0,0.0,0.0,0.0,0.0,0.0,0.0,0.0,0.0,0.0,0.0,0.0,0.0,0.0,0.0,0.0,0.0,0.0,0.0,0.0,0.0,0.0,0.0,0.0,0.0,0.0,0.0,0.0,0.0,0.0,0.0,0.0,0.0,0.0,0.0,0.0,0.0,0.0,0.0,0.0,0.0,0.0,0.0,0.0,0.0,0.0,0.0,0.0,0.0,0.0,0.0,0.0,0.0,0.0,0.0,0.0,0.0,0.0,0.0,0.0,0.0,0.0,0.0,0.0,0.0,0.0,0.0,0.0,0.0,0.0,0.0,0.0,0.0,0.0,0.0,0.0,0.0,0.0,0.0,0.0,0.0,0.0,0.0,0.0,0.0,0.0,0.0,0.0,0.0,0.0,0.0,0.0,0.0,0.0,0.0,0.0,0.0,0.0,0.0,0.0,0.0,0.0,0.0,0.0,0.0,0.0,0.0,0.0,0.0,0.0,0.0,0.0,0.0,0.0,0.0,0.0,0.0,0.0,0.0,0.0,0.0,0.0,0.0,0.0,0.0,0.0,0.0,0.0,0.0,0.0,0.0,0.0,0.0,0.0,0.0,0.0,0.0,0.0,0.0,0.0,0.0,0.0,0.0,0.0,0.0,0.0,0.0,0.0,0.0,0.0,0.0,0.0,0.0,0.0,0.0,0.0,0.0,0.0,0.0,0.0,0.0,0.0,0.0,0.0,0.0,0.0,0.0,0.0,0.0,0.0,0.0,0.0,0.0,0.0,0.0,0.0,0.0,0.0,0.0,0.0,0.0,0.0,0.0,0.0,0.0,0.0,0.0,0.0,0.0,0.0,0.0,0.0,0.0,0.0,0.0,0.0,0.0,0.0,0.0,0.0,0.0,0.0,0.0,0.0,0.0,0.0,0.0,0.0,0.0,0.0,0.0,0.0,0.0,0.0,0.0,0.0,0.0,0.0,0.0,0.0,0.0,0.0,0.0,0.0,0.0,0.0,0.0,0.0,0.0,0.0,0.0,0.0,0.0,0.0,0.0,0.0,0.0,0.0,0.0,0.0,0.0,0.0,0.0,0.0,0.0,0.0,0.0,0.0,0.0,0.0,0.0,0.0,0.0,0.0,0.0,0.0,0.0,0.0,0.0,0.0,0.0,0.0,0.0,0.0,0.0,0.0,0.0,0.0,0.0,0.0,0.0,0.0,0.0,0.0,0.0,0.0,0.0,0.0,0.0,0.0,0.0,0.0,0.0,0.0,0.0,0.0,0.0,0.0,0.0,0.0,0.0,0.0,0.0,0.0,0.0,0.0,0.0,0.0,0.0,0.0,0.0,0.0,0.0,0.0,0.0,0.0,0.0,0.0,0.0,0.0,0.0,0.0,0.0,0.0,0.0,0.0,0.0,0.0,0.0,0.0,0.0,0.0,0.0,0.0,0.0,0.0,0.0,0.0,0.0,0.0,0.0,0.0,0.0,0.0,0.0,0.0,0.0,0.0,0.0,0.0,0.0,0.0,0.0,0.0,0.0,0.0,0.0,0.0,0.0,0.0,0.0,0.0,0.0,0.0,0.0,0.0,0.0,0.0,0.0,0.0,0.0,0.0,0.0,0.0,0.0,0.0,0.0,0.0,0.0,0.0,0.0,0.0,0.0,0.0,0.0,0.0,0.0,0.0,0.0,0.0,0.0,0.0,0.0,0.0,0.0,0.0,0.0,0.0,0.0,0.0,0.0,0.0,0.0,0.0,0.0,0.0,0.0,0.0,0.0,0.0,0.0,0.0,0.0,0.0,0.0,0.0,0.0,0.0,0.0,0.0,0.0,0.0,0.0,0.0,0.0,0.0,0.0,0.0,0.0,0.0,0.0,0.0,0.0,0.0,0.0,0.0,0.0,0.0,0.0,0.0,0.0,0.0,0.0,0.0,0.0,0.0,0.0,0.0,0.0,0.0,0.0,0.0,0.0,0.0,0.0,0.0,0.0,0.0,0.0,0.0,0.0,0.0,0.0,0.0,0.0,0.0,0.0,0.0,0.0,0.0,0.0,0.0,0.0,0.0,0.0,0.0,0.0,0.0,0.0,0.0,0.0,0.0,0.0,0.0,0.0,0.0,0.0,0.0,0.0,0.0,0.0,0.0,0.0,0.0,0.0,0.0,0.0,0.0,0.0,0.0,0.0,0.0,0.0,0.0,0.0,0.0,0.0,0.0,0.0,0.0,0.0,0.0,0.0,0.0,0.0,0.0,0.0,0.0,0.0,0.0,0.0,0.0,0.0,0.0,0.0,0.0,0.0,0.0,0.0,0.0,0.0,0.0,0.0,0.0,0.0,0.0,0.0,0.0,0.0,0.0,0.0,0.0,0.0,0.0,0.0,0.0,0.0,0.0,0.0,0.0,0.0,0.0,0.0,0.0,0.0,0.0,0.0,0.0,0.0,0.0,0.0,0.0,0.0,0.0,0.0,0.0,0.0,0.0,0.0,0.0,0.0,0.0,0.0,0.0,0.0,0.0,0.0,0.0,0.0,0.0,0.0,0.0,0.0,0.0,0.0,0.0,0.0,0.0,0.0,0.0,0.0,0.0,0.0,0.0,0.0,0.0,0.0,0.0,0.0,0.0,0.0,0.0,0.0,0.0,0.0,0.0,0.0,0.0,0.0,0.0,0.0,0.0,0.0,0.0,0.0,0.0,0.0,0.0,0.0,0.0,0.0,0.0,0.0,0.0,0.0,0.0,0.0,0.0,0.0,0.0,0.0,0.0,0.0,0.0,0.0,0.0,0.0,0.0,0.0,0.0,0.0,0.0,0.0,0.0,0.0,0.0,0.0,0.0,0.0,0.0,0.0,0.0,0.0,0.0,0.0,0.0,0.0,0.0,0.0,0.0,0.0,0.0,0.0,0.0,0.0,0.0,0.0,0.0,0.0,0.0,0.0,0.0,0.0,0.0,0.0,0.0,0.0,0.0,0.0,0.0,0.0,0.0,0.0,0.0,0.0,0.0,0.0,0.0,0.0,0.0,0.0,0.0,0.0,0.0,0.0,0.0,0.0,0.0,0.0,0.0,0.0,0.0,0.0,0.0,0.0,0.0,0.0,0.0,0.0,0.0,0.0,0.0,0.0,0.0,0.0,0.0,0.0,0.0,0.0,0.0,0.0,0.0,0.0,0.0,0.0,0.0,0.0,0.0,0.0,0.0,0.0,0.0,0.0,0.0,0.0,0.0,0.0,0.0,0.0,0.0,0.0,0.0,0.0,0.0,0.0,0.0,0.0,0.0,0.0,0.0,0.0,0.0,0.0,0.0,0.0,0.0,0.0,0.0,0.0,0.0,0.0,0.0,0.0,0.0,0.0,0.0,0.0,0.0,0.0,0.0,0.0,0.0,0.0,0.0,0.0,0.0,0.0,0.0,0.0,0.0,0.0,0.0,0.0,0.0,0.0,0.0,0.0,0.0,0.0,0.0,0.0,0.0,0.0,0.0,0.0,0.0,0.0,0.0,0.0,0.0,0.0,0.0,0.0,0.0,0.0,0.0,0.0,0.0,0.0,0.0,0.0,0.0,0.0,0.0,0.0,0.0,0.0,0.0,0.0,0.0,0.0,0.0,0.0,0.0,0.0,0.0,0.0,0.0,0.0,0.0,0.0,0.0,0.0,0.0,0.0,0.0,0.0,0.0,0.0,0.0,0.0,0.0,0.0,0.0,0.0,0.0,0.0,0.0,0.0,0.0,0.0,0.0,0.0,0.0,0.0,0.0,0.0,0.0,0.0,0.0,0.0,0.0,0.0,0.0,0.0,0.0,0.0,0.0,0.0,0.0,0.0,0.0,0.0,0.0,0.0,0.0,0.0,0.0,0.0,0.0,0.0,0.0,0.0,0.0,0.0,0.0,0.0,0.0,0.0,0.0]}],[{"header":{"parameterUnit":"kt","parameterCategory":2,"dx":1,"dy":1,"la1":29.587661999999998,"la2":31.0,"lo1":-88.76705300000003,"lo2":-86.6583820000003,"nx":115,"ny":88,"refTime":"2022-09-26T18:00:00:Z","depth":0,"parameterNumber":2,"parameterNumberName":"V-component_of_WINDS"},"data":[5.7893,5.3048,4.7143,4.4186,4.31,4.2633,4.3857,4.6619,4.9693,5.3222,5.6429,5.8469,5.9805,6.0771,5.7805,5.6285,5.5375,5.3182,4.9152,4.6588,4.6774,4.5598,4.4674,4.2885,4.0281,3.7853,3.531,3.4096,3.4333,3.4672,3.4498,3.4399,3.3954,3.3744,3.3971,3.4578,3.5904,3.6804,3.7141,3.6958,3.5119,3.2108,2.8139,2.4742,2.1603,1.9273,1.8009,1.7372,1.7157,1.6864,1.6024,1.5074,1.4183,1.3152,1.2609,1.2702,1.2385,1.0398,0.7836,0.5093,0.2155,-0.1766,-0.373,-0.4123,-0.4711,-0.5299,-0.5885,-0.6078,-0.7054,-0.7839,-0.8034,-0.8812,-0.9987,-1.1355,-1.2328,-1.2906,-1.3482,-1.3676,-1.407,-1.4076,-1.4076,-1.4076,-1.3882,-1.3694,-1.3694,-1.3494,-1.31,-1.3294,-1.3876,-1.617,-1.8461,-2.0943,-2.3627,-2.5711,-2.763,-2.7641,-2.7993,-2.7909,-2.8096,-2.8446,-2.8783,-2.9307,-2.9389,-2.9131,-2.9506,-2.9964,-3.0222,-3.028,-3.0632,-3.0738,-3.0843,-3.1086,-3.2132,-3.3305,-3.4809,5.8908,5.63,4.7852,4.2883,4.0972,4.0593,4.1628,4.3833,4.7175,5.0564,5.3406,5.4363,5.5632,5.7186,5.782,5.6439,5.5214,5.3881,5.1911,4.9997,5.1196,4.9274,4.6755,4.4361,4.1681,3.9089,3.5992,3.4841,3.3991,3.4562,3.4744,3.4943,3.4745,3.4341,3.4065,3.4008,3.4707,3.6035,3.6245,3.5537,3.3082,3.052,2.7129,2.362,2.0334,1.7795,1.7378,1.7163,1.6942,1.6424,1.5648,1.4808,1.3985,1.3543,1.2966,1.2829,1.2521,1.0652,0.8044,0.55,0.2354,-0.0588,-0.3332,-0.4707,-0.5493,-0.6081,-0.6668,-0.7252,-0.8422,-0.9007,-0.8812,-0.9401,-1.0771,-1.2139,-1.2722,-1.33,-1.3682,-1.4064,-1.427,-1.4663,-1.4663,-1.4663,-1.4663,-1.4663,-1.4463,-1.407,-1.407,-1.407,-1.4651,-1.6954,-1.8794,-2.099,-2.3284,-2.5295,-2.7325,-2.7828,-2.8239,-2.8224,-2.8779,-2.8772,-2.9051,-2.9729,-2.994,-2.9741,-2.9776,-2.9902,-3.0386,-3.0621,-3.052,-3.0625,-3.0671,-3.1086,-3.1926,-3.2714,-3.4455,5.8793,5.6551,4.7825,4.2464,4.012,3.9575,3.9635,4.1138,4.4762,4.7169,4.7925,5.0162,5.2446,5.44,5.5615,5.4928,5.4616,5.4335,5.2239,5.1139,5.1427,5.0339,4.7883,4.4281,4.1827,3.9232,3.6198,3.4574,3.3678,3.4204,3.4612,3.4336,3.3977,3.3738,3.3535,3.3478,3.4221,3.5462,3.5927,3.3235,2.8533,2.7309,2.5335,2.3372,2.0921,1.9404,1.8474,1.7682,1.7205,1.6438,1.5584,1.4798,1.3957,1.3559,1.3199,1.3067,1.2347,1.1053,0.8574,0.5957,0.3366,0.0,-0.2744,-0.4515,-0.5299,-0.7445,-0.8034,-0.8031,-0.9202,-0.9982,-0.9787,-1.0177,-1.1355,-1.2523,-1.3105,-1.3888,-1.4469,-1.4657,-1.4851,-1.5051,-1.5051,-1.5051,-1.4857,-1.4863,-1.4876,-1.4482,-1.4463,-1.4463,-1.5625,-1.7361,-1.8968,-2.0685,-2.281,-2.4675,-2.6637,-2.7539,-2.8241,-2.8955,-2.9539,-2.953,-2.9353,-3.0007,-3.0527,-3.0456,-3.0252,-3.031,-3.0322,-3.0531,-3.066,-3.0233,-3.0452,-3.0879,-3.15,-3.2108,-3.3356,5.765,5.5453,4.8136,4.2606,3.907,3.845,3.7964,3.8324,4.2079,4.2881,4.2796,4.5844,4.866,5.0136,5.1881,5.2336,5.246,5.207,5.1842,5.1323,5.0276,4.9027,4.7575,4.2954,3.9976,3.7487,3.5667,3.3988,3.3245,3.3165,3.3291,3.3689,3.3932,3.3708,3.359,3.3326,3.3053,3.3247,3.3017,3.0019,2.6563,2.5014,2.3623,2.2217,2.0652,1.9285,1.8524,1.7717,1.7158,1.6648,1.5768,1.4923,1.3664,1.36,1.3484,1.3336,1.2815,1.1461,0.9346,0.6879,0.4014,0.0795,-0.1974,-0.3743,-0.5892,-0.823,-0.9397,-0.9202,-0.9588,-1.0372,-1.0956,-1.1346,-1.1934,-1.2712,-1.3488,-1.4469,-1.5457,-1.5444,-1.5431,-1.5431,-1.5431,-1.5244,-1.4857,-1.487,-1.4895,-1.4913,-1.4725,-1.514,-1.6341,-1.7088,-1.8552,-2.0024,-2.1965,-2.3769,-2.589,-2.7168,-2.8601,-2.9471,-2.9741,-2.9809,-2.9873,-3.029,-3.0463,-3.066,-3.0545,-3.0383,-3.0348,-3.0475,-3.0245,-3.0014,-3.0014,-3.0671,-3.1293,-3.1697,-3.2498,5.595,5.3345,4.9009,4.3506,3.7689,3.6247,3.6176,3.7239,3.7673,3.7598,3.8336,4.1721,4.3774,4.5339,4.8628,4.9279,4.9258,5.0578,5.0861,4.9563,4.805,4.6667,4.477,4.1277,3.782,3.6441,3.4936,3.3043,3.2867,3.2942,3.2969,3.3074,3.3415,3.3357,3.3049,3.2883,3.1861,3.0784,2.8916,2.732,2.5082,2.3595,2.2133,2.1245,2.0088,1.874,1.7977,1.7125,1.6244,1.5958,1.5397,1.4809,1.4021,1.3717,1.3632,1.3306,1.2577,1.1637,1.0131,0.7635,0.4492,0.1617,-0.1405,-0.379,-0.6158,-0.8719,-0.992,-0.992,-1.0925,-1.1716,-1.1883,-1.2075,-1.2639,-1.3211,-1.3935,-1.4669,-1.5451,-1.5444,-1.5631,-1.5625,-1.5444,-1.5496,-1.512,-1.5379,-1.5411,-1.5324,-1.5368,-1.5796,-1.6292,-1.6707,-1.7864,-1.9149,-2.051,-2.1894,-2.4502,-2.7176,-2.8608,-2.9491,-2.9688,-2.9966,-2.9738,-3.0146,-3.0554,-3.0206,-2.9615,-2.9868,-2.9722,-3.0048,-2.984,-2.9215,-2.9238,-3.0268,-3.1056,-3.158,-3.2102,5.4827,5.3395,4.8555,4.4049,3.9835,3.6639,3.4913,3.4543,3.4627,3.4765,3.5266,3.8856,4.1016,4.2258,4.5671,4.7778,4.7178,4.9194,4.9585,4.7759,4.499,4.3889,4.1253,3.7791,3.5383,3.4268,3.2831,3.2079,3.196,3.2174,3.2412,3.2476,3.3085,3.2364,3.1883,3.1588,3.017,2.7799,2.5313,2.3353,2.1829,2.0769,2.0253,1.9943,1.9472,1.855,1.8047,1.757,1.6434,1.5807,1.5356,1.4731,1.4107,1.3844,1.378,1.3123,1.2376,1.1239,1.0305,0.7773,0.5199,0.2258,-0.1012,-0.3637,-0.625,-0.9069,-1.0277,-1.0875,-1.2096,-1.2908,-1.2866,-1.3028,-1.3382,-1.3733,-1.4414,-1.5082,-1.5257,-1.5451,-1.5631,-1.5625,-1.549,-1.5548,-1.5633,-1.5875,-1.5967,-1.5952,-1.6063,-1.6297,-1.6436,-1.6614,-1.7717,-1.8465,-1.9241,-2.0396,-2.3802,-2.6991,-2.8437,-2.9317,-2.9704,-2.9547,-2.9393,-2.9531,-2.9177,-2.8886,-2.8706,-2.8354,-2.8025,-2.8471,-2.9128,-2.7869,-2.7278,-2.8801,-2.9877,-3.1039,-3.213,5.438,5.2727,4.7941,4.4344,4.1432,3.7263,3.4303,3.3016,3.239,3.2422,3.2796,3.5556,3.7307,3.9812,4.3317,4.5425,4.6582,4.7872,4.795,4.6264,4.3342,4.1471,3.876,3.5521,3.318,3.2369,3.2099,3.1728,3.1467,3.1675,3.1928,3.1891,3.1755,3.1723,3.1,3.0459,2.8418,2.6374,2.3739,2.1895,2.0543,1.9288,1.881,1.8555,1.8307,1.8307,1.7539,1.6873,1.6246,1.56,1.5157,1.4764,1.4097,1.4039,1.379,1.3142,1.1542,1.0405,0.9225,0.7489,0.5309,0.2504,-0.0619,-0.3301,-0.6203,-0.9104,-1.1949,-1.2314,-1.2906,-1.3291,-1.3456,-1.3838,-1.4213,-1.4515,-1.5183,-1.5482,-1.562,-1.577,-1.5631,-1.5658,-1.5809,-1.5908,-1.6132,-1.6192,-1.6277,-1.6468,-1.6594,-1.6633,-1.6732,-1.6838,-1.7362,-1.7545,-1.8369,-1.9513,-2.2913,-2.6645,-2.7964,-2.9126,-2.9198,-2.9232,-2.8754,-2.8247,-2.7782,-2.7612,-2.8003,-2.7402,-2.6737,-2.7363,-2.844,-2.712,-2.6324,-2.7576,-2.8862,-3.1358,-3.2813,5.3896,5.0385,4.7193,4.4302,4.169,3.7983,3.5032,3.3016,3.1356,3.067,3.0571,3.1096,3.3393,3.5607,3.907,4.1966,4.4181,4.5925,4.6794,4.5775,4.2332,4.0871,3.8308,3.4668,3.271,3.2219,3.1696,3.0953,3.0541,3.0925,3.1425,3.1551,3.1166,3.1499,3.1342,3.0359,2.8036,2.6154,2.3909,2.203,2.0572,1.8856,1.839,1.7679,1.7443,1.72,1.6904,1.6061,1.5693,1.5319,1.5178,1.4858,1.4509,1.4367,1.3849,1.2869,1.097,1.0042,0.8899,0.6727,0.4734,0.2765,-0.0,-0.2538,-0.5915,-1.0297,-1.2577,-1.3373,-1.3783,-1.3935,-1.4068,-1.4468,-1.5064,-1.5356,-1.5816,-1.5907,-1.6027,-1.5928,-1.5783,-1.5809,-1.5974,-1.6165,-1.6396,-1.6515,-1.6581,-1.6745,-1.6857,-1.6917,-1.7002,-1.7101,-1.6948,-1.7124,-1.7989,-1.9193,-2.1949,-2.5485,-2.7313,-2.8244,-2.8372,-2.8474,-2.7963,-2.7435,-2.7123,-2.6975,-2.72,-2.727,-2.717,-2.7352,-2.7556,-2.7319,-2.6708,-2.7742,-2.9864,-3.2165,-3.3491,5.5505,5.3629,4.8119,4.4515,4.2316,4.009,3.6696,3.3006,3.0623,2.8731,2.8059,2.9317,3.1143,3.3806,3.6622,3.9565,4.3288,4.437,4.4981,4.4613,4.1858,3.9919,3.7823,3.5137,3.2628,3.1707,3.0892,3.0418,3.0428,2.9868,3.0196,3.0822,3.1339,3.2054,3.1381,2.9868,2.7174,2.7431,2.5053,2.2924,2.1346,2.0057,1.8876,1.7679,1.6726,1.6246,1.6229,1.5926,1.5117,1.5217,1.5099,1.4779,1.4636,1.4284,1.3977,1.2965,1.151,1.0345,0.8303,0.611,0.4785,0.3236,0.2376,-0.1079,-0.6671,-1.1349,-1.324,-1.4289,-1.4752,-1.4958,-1.5129,-1.5365,-1.5752,-1.5891,-1.6157,-1.6193,-1.6115,-1.6297,-1.6185,-1.6218,-1.635,-1.6521,-1.6706,-1.6778,-1.6857,-1.6989,-1.7115,-1.7207,-1.7293,-1.6858,-1.6663,-1.7215,-1.7896,-1.9284,-2.1645,-2.5001,-2.6685,-2.7382,-2.7662,-2.8001,-2.7484,-2.7157,-2.6844,-2.6498,-2.669,-2.7025,-2.7162,-2.691,-2.6727,-2.6438,-2.7199,-2.8958,-3.086,-3.2469,-3.3736,5.8439,5.6982,5.1518,4.7611,4.47,4.2749,3.8393,3.3278,3.0972,2.8555,2.6698,2.6819,2.8736,3.1194,3.3744,3.6401,3.9241,4.0448,4.1926,4.1802,3.9754,3.844,3.7001,3.4613,3.2348,3.1174,2.997,2.9573,2.9606,2.9232,2.9361,3.0091,3.0947,3.2277,3.1337,3.0265,2.7983,2.9141,2.7234,2.5011,2.2946,2.1302,1.9666,1.7904,1.624,1.5766,1.5777,1.5534,1.5223,1.5122,1.5101,1.5022,1.4921,1.4758,1.4212,1.3426,1.2266,1.0872,0.8592,0.6117,0.4802,0.3705,0.2393,-0.1086,-0.7611,-1.2201,-1.4155,-1.498,-1.5566,-1.5787,-1.5847,-1.6092,-1.6441,-1.6371,-1.6434,-1.648,-1.6395,-1.6581,-1.6561,-1.6574,-1.6633,-1.6778,-1.6897,-1.6956,-1.73,-1.744,-1.7246,-1.7332,-1.7102,-1.6872,-1.6451,-1.6974,-1.796,-1.9404,-2.1359,-2.4791,-2.6783,-2.6793,-2.6994,-2.7234,-2.7168,-2.684,-2.6693,-2.6443,-2.6498,-2.6544,-2.6774,-2.6778,-2.61,-2.7191,-2.9473,-3.1468,-3.2068,-3.2822,-3.3853,6.2715,6.0011,5.7232,5.3345,4.8772,4.551,3.9921,3.427,3.2775,2.9812,2.598,2.471,2.5658,2.7894,3.1087,3.3213,3.5092,3.6673,3.8429,3.912,3.816,3.6981,3.6017,3.4327,3.2212,3.0105,2.8616,2.7608,2.7054,2.7515,2.8425,2.9166,2.9848,3.0671,3.1234,3.1894,3.1965,3.1318,2.9036,2.7361,2.5453,2.2614,2.0643,1.8889,1.7182,1.6009,1.5777,1.5302,1.5286,1.5238,1.5238,1.5223,1.5186,1.5043,1.4705,1.3935,1.2922,1.1626,0.9792,0.7039,0.5029,0.3709,0.2398,-0.1742,-0.8268,-1.2856,-1.5709,-1.544,-1.6068,-1.6284,-1.6499,-1.6688,-1.689,-1.7026,-1.6864,-1.693,-1.6871,-1.6831,-1.6798,-1.6785,-1.6871,-1.6963,-1.7055,-1.7154,-1.7727,-1.7795,-1.7587,-1.7306,-1.7095,-1.6717,-1.6317,-1.7075,-1.8097,-1.9538,-2.1664,-2.4731,-2.6359,-2.6387,-2.647,-2.66,-2.6739,-2.6562,-2.6804,-2.659,-2.6599,-2.6581,-2.6571,-2.6571,-2.708,-2.7597,-3.0484,-3.219,-3.2661,-3.3119,-3.3577,6.5801,6.2715,6.0055,5.7463,5.437,4.8426,4.2964,3.8146,3.2974,2.8173,2.5019,2.4514,2.5492,2.7465,3.0077,3.2329,3.389,3.4999,3.7511,3.7923,3.7766,3.7537,3.7272,3.5603,3.2849,3.1178,2.8877,2.7071,2.6479,2.6156,2.6724,2.7497,2.7998,2.9015,2.9494,2.9877,3.0158,3.0471,2.9677,2.8681,2.7258,2.4981,2.3369,1.9349,1.9086,1.7686,1.5826,1.5307,1.5307,1.5572,1.5799,1.555,1.5518,1.5223,1.4877,1.4226,1.3082,1.1733,1.0062,0.7762,0.5743,0.3939,0.262,-0.3267,-1.0252,-1.5082,-1.5937,-1.5889,-1.629,-1.6707,-1.715,-1.6935,-1.715,-1.715,-1.72,-1.7154,-1.7101,-1.7062,-1.7029,-1.6996,-1.7115,-1.7213,-1.7266,-1.7486,-1.7815,-1.7647,-1.7543,-1.7787,-1.7125,-1.6807,-1.6422,-1.7248,-1.8539,-2.0163,-2.1741,-2.4102,-2.6257,-2.6034,-2.6239,-2.6375,-2.6366,-2.6599,-2.6608,-2.6608,-2.6608,-2.6608,-2.6832,-2.6822,-2.751,-2.8205,-2.9834,-3.1938,-3.2409,-3.3406,-3.3841,6.9015,6.6853,6.4122,6.046,5.6056,5.0129,4.5125,4.0322,3.4694,2.981,2.6369,2.4857,2.5288,2.7199,2.9736,3.1757,3.2964,3.3006,3.5271,3.6766,3.6979,3.6803,3.7178,3.5797,3.347,3.1154,2.7823,2.6015,2.6064,2.5391,2.5678,2.6222,2.7243,2.7752,2.8525,2.925,2.9521,2.9649,2.8983,2.8806,2.7681,2.6667,2.4441,2.0621,2.0844,1.8703,1.6235,1.562,1.6136,1.7162,1.8341,1.8089,1.7593,1.7354,1.6506,1.4877,1.3502,1.237,1.1083,0.8785,0.6717,0.4862,0.2407,-0.1743,-0.9375,-1.2654,-1.4166,-1.6117,-1.6518,-1.6714,-1.715,-1.7372,-1.7372,-1.7372,-1.7358,-1.7345,-1.7312,-1.7279,-1.7246,-1.7194,-1.7293,-1.7372,-1.7587,-1.7828,-1.768,-1.7543,-1.802,-1.8057,-1.7401,-1.6889,-1.7087,-1.7718,-1.9862,-2.1605,-2.2812,-2.4222,-2.5653,-2.5835,-2.5981,-2.6196,-2.6599,-2.6608,-2.6608,-2.6608,-2.6608,-2.6608,-2.6832,-2.7064,-2.7983,-2.9583,-3.0746,-3.1698,-3.2706,-3.3705,-3.4457,7.1889,7.1448,6.8372,6.2485,5.5042,5.1266,4.6669,4.1815,3.8429,3.4216,2.9662,2.6164,2.523,2.6846,2.9279,3.0962,3.0506,3.0253,3.3027,3.4281,3.3508,3.5215,3.6188,3.5114,3.2287,3.0579,2.6993,2.5214,2.4643,2.4865,2.492,2.4951,2.623,2.6733,2.7251,2.8024,2.8344,2.8046,2.7786,2.786,2.7868,2.7187,2.5228,2.3238,2.1709,1.9629,1.6914,1.702,1.7881,2.026,2.1566,2.1698,2.0493,2.0017,1.8669,1.6517,1.4872,1.3945,1.2634,1.0513,0.818,0.6274,0.4198,0.0219,-0.5226,-0.7174,-1.1528,-1.5907,-1.6302,-1.672,-1.6935,-1.7372,-1.7372,-1.7372,-1.7372,-1.7372,-1.7372,-1.7372,-1.7372,-1.7372,-1.7372,-1.7372,-1.7378,-1.782,-1.7701,-1.7833,-1.8077,-1.8068,-1.7409,-1.6974,-1.7443,-1.8624,-2.086,-2.2501,-2.3759,-2.4886,-2.6119,-2.6473,-2.6539,-2.6621,-2.6728,-2.6608,-2.6608,-2.6608,-2.6608,-2.6599,-2.6832,-2.7983,-2.9141,-3.0735,-3.1938,-3.2498,-3.3509,-3.4121,-3.496,7.3885,7.0622,6.6383,6.2764,5.9381,5.5025,5.0558,4.6233,4.134,3.744,3.3987,2.8978,2.6164,2.7122,3.0419,3.2514,3.2262,3.1758,3.4031,3.5032,3.5021,3.5509,3.628,3.4782,3.219,3.2349,2.7191,2.5128,2.4833,2.4896,2.4951,2.4951,2.5719,2.5455,2.5719,2.623,2.6461,2.5981,2.6219,2.7107,2.7869,2.7868,2.6765,2.5827,2.521,2.4903,2.2591,2.1874,2.1837,2.3142,2.4027,2.4223,2.3233,2.2981,2.1609,1.9136,1.7497,1.6529,1.5191,1.2757,0.9912,0.774,0.5383,0.3534,0.0219,-0.3042,-0.7602,-1.5493,-1.5883,-1.629,-1.6714,-1.715,-1.7157,-1.7372,-1.7372,-1.7372,-1.7372,-1.7372,-1.7372,-1.7398,-1.7411,-1.7398,-1.7609,-1.782,-1.7998,-1.8136,-1.8094,-1.785,-1.7411,-1.6974,-1.7659,-1.8821,-2.1042,-2.2718,-2.4187,-2.5599,-2.6279,-2.7099,-2.7343,-2.7406,-2.7067,-2.6948,-2.7045,-2.6672,-2.6608,-2.7139,-2.8244,-2.9272,-3.0306,-3.1576,-3.2599,-3.3359,-3.3982,-3.4342,-3.5125,7.1784,6.7484,6.4824,6.2402,5.9891,5.499,5.1282,4.7941,4.2601,3.8725,3.5758,3.202,2.925,2.8715,3.1496,3.3769,3.4031,3.2775,3.378,3.5293,3.4521,3.451,3.603,3.4031,3.1516,3.0215,2.7225,2.4951,2.4951,2.4943,2.4951,2.4951,2.4951,2.4951,2.5207,2.4951,2.4951,2.5088,2.5345,2.603,2.6795,2.7234,2.7072,2.601,2.6514,2.576,2.4881,2.5079,2.5937,2.627,2.734,2.7304,2.6294,2.5768,2.4572,2.2005,2.0862,1.9992,1.8313,1.5362,1.2637,0.9933,0.7962,0.6496,0.3975,-0.0875,-0.7617,-1.4843,-1.5469,-1.5871,-1.6505,-1.6714,-1.6935,-1.7157,-1.7372,-1.7372,-1.7372,-1.7372,-1.7424,-1.7444,-1.7484,-1.7688,-1.7892,-1.8143,-1.838,-1.8492,-1.84,-1.7921,-1.7698,-1.6928,-1.7562,-1.9263,-2.1252,-2.3222,-2.5194,-2.6142,-2.6865,-2.7541,-2.7793,-2.7795,-2.7435,-2.7288,-2.7388,-2.7485,-2.7909,-2.8889,-2.99,-3.084,-3.1978,-3.2634,-3.3287,-3.405,-3.5044,-3.5397,-3.568,6.7484,6.3535,6.3333,6.1526,5.8565,5.3578,5.0526,4.8896,4.3156,3.8787,3.6778,3.5054,3.3037,3.1768,3.3016,3.4292,3.4815,3.3801,3.354,3.4031,3.3257,3.2995,3.3257,3.201,3.0244,2.8978,2.6214,2.4959,2.5054,2.5062,2.5038,2.5014,2.5014,2.4951,2.4951,2.4951,2.4951,2.4951,2.4928,2.5246,2.5908,2.6091,2.6346,2.6185,2.6688,2.6767,2.6638,2.7884,2.8784,2.9568,3.1376,3.1225,2.9688,2.9191,2.7268,2.5724,2.4377,2.3939,2.089,1.7734,1.4903,1.2413,0.9926,0.7962,0.5377,0.0221,-0.5903,-1.3764,-1.5265,-1.5452,-1.6074,-1.6492,-1.6714,-1.715,-1.7378,-1.7385,-1.7241,-1.7319,-1.7596,-1.7629,-1.7912,-1.8084,-1.8202,-1.8486,-1.8736,-1.8596,-1.8478,-1.8234,-1.7708,-1.6785,-1.6893,-2.0029,-2.2621,-2.458,-2.6386,-2.6561,-2.7278,-2.826,-2.849,-2.8457,-2.8064,-2.7655,-2.7749,-2.8643,-2.9869,-3.0605,-3.1992,-3.293,-3.3696,-3.4124,-3.4256,-3.4971,-3.5822,-3.6141,-3.6401,6.3898,6.3313,6.1565,6.0231,5.8583,5.506,5.1989,4.8881,4.4358,4.0981,3.8787,3.5531,3.4521,3.5531,3.4532,3.4292,3.5838,3.4815,3.3027,3.2262,3.1496,3.073,2.9972,2.8715,2.7971,2.7463,2.5735,2.5093,2.5259,2.5346,2.5346,2.5558,2.5062,2.4951,2.4959,2.5223,2.4951,2.4951,2.4943,2.4762,2.5263,2.5857,2.6364,2.6398,2.8898,2.9782,2.9466,3.0746,3.1607,3.1919,3.2452,3.264,3.2149,3.2149,3.1157,2.8965,2.6698,2.4676,2.2172,1.9951,1.7382,1.4463,1.1709,0.9239,0.6594,0.3577,-0.1103,-0.7855,-1.2192,-1.5247,-1.5865,-1.6277,-1.6726,-1.717,-1.7411,-1.7235,-1.7398,-1.7508,-1.7794,-1.8084,-1.8341,-1.8499,-1.8565,-1.8796,-1.8674,-1.8758,-1.8059,-1.7832,-1.7834,-1.6655,-1.7584,-2.1024,-2.3407,-2.5646,-2.6936,-2.6817,-2.7794,-2.8506,-2.8796,-2.8868,-2.8462,-2.7814,-2.8898,-2.9754,-3.1035,-3.2855,-3.409,-3.5228,-3.5128,-3.5151,-3.5251,-3.5618,-3.6259,-3.6613,-3.7059,6.2665,6.1565,5.9286,5.7879,5.6943,5.271,4.9863,4.7717,4.3156,4.0528,3.8811,3.6552,3.6042,3.6801,3.5531,3.5043,3.5065,3.4052,3.201,2.9981,2.8959,2.7936,2.6419,2.669,2.6452,2.5744,2.5632,2.5307,2.5449,2.5622,2.6229,2.6419,2.6678,2.6762,2.6978,2.633,2.623,2.5711,2.5199,2.4857,2.4707,2.5197,2.6192,2.6731,2.8389,2.9757,3.0788,3.1799,3.2303,3.2796,3.3048,3.3048,3.2534,3.1758,3.0429,2.9389,2.7147,2.5246,2.4078,2.1932,1.9814,1.668,1.4591,1.1833,0.9146,0.7211,0.4209,-0.2623,-0.8923,-1.4837,-1.5667,-1.6093,-1.6803,-1.7319,-1.7589,-1.7502,-1.7678,-1.7985,-1.8255,-1.8604,-1.8491,-1.8557,-1.8654,-1.8713,-1.883,-1.8396,-1.7679,-1.7665,-1.771,-1.7601,-1.8007,-2.0909,-2.3024,-2.5183,-2.6954,-2.7419,-2.8172,-2.867,-2.8812,-2.8757,-2.8647,-2.8555,-2.9402,-3.0717,-3.3106,-3.5294,-3.6067,-3.5994,-3.6146,-3.624,-3.6099,-3.6088,-3.672,-3.7214,-3.7321,6.176,5.953,5.7209,5.5985,5.4578,4.9388,4.7028,4.608,4.1498,3.9084,3.8836,3.7583,3.6824,3.7073,3.7085,3.6575,3.5054,3.2514,2.9719,2.7182,2.5909,2.4377,2.3624,2.416,2.4726,2.4328,2.5109,2.5607,2.5756,2.5906,2.6858,2.7858,2.8105,2.8446,2.8583,2.8326,2.7141,2.6123,2.5504,2.4951,2.4896,2.4896,2.5407,2.6427,2.72,2.8243,2.9776,3.0788,3.1546,3.2293,3.2544,3.2544,3.1789,3.0029,2.9005,2.8073,2.6596,2.521,2.4767,2.3055,2.1332,1.9275,1.6295,1.3043,1.0993,0.9487,0.4007,-0.2196,-0.9824,-1.4235,-1.5305,-1.5334,-1.6076,-1.7114,-1.7437,-1.7985,-1.799,-1.7653,-1.7583,-1.8654,-1.8523,-1.8345,-1.8562,-1.8824,-1.8876,-1.8415,-1.7704,-1.715,-1.8454,-1.9456,-1.9911,-2.1483,-2.3105,-2.5439,-2.7234,-2.7743,-2.8261,-2.8751,-2.8987,-2.8923,-2.8913,-2.8923,-3.0429,-3.2516,-3.4832,-3.6425,-3.6827,-3.6639,-3.6639,-3.6651,-3.6627,-3.658,-3.6991,-3.738,-3.7759,6.0086,5.7899,5.6733,5.4827,5.2492,4.8704,4.6562,4.6065,4.1252,3.9096,3.8848,3.7594,3.7073,3.7073,3.7073,3.7073,3.5554,3.2503,2.7682,2.3617,2.2599,2.1578,2.1091,2.2169,2.3295,2.4619,2.5469,2.6049,2.6246,2.6412,2.7241,2.8264,2.8484,2.8568,2.8463,2.7932,2.7156,2.6045,2.5335,2.4951,2.4951,2.4951,2.4951,2.5455,2.6214,2.7234,2.8252,2.9522,3.0535,2.9785,3.0798,3.0545,2.9522,2.7998,2.7225,2.7208,2.5799,2.4682,2.4131,2.304,2.1709,2.0736,1.6392,1.3149,1.1515,0.7964,0.1345,-0.6632,-1.0505,-1.2512,-1.2432,-1.3301,-1.4071,-1.5146,-1.7026,-1.8081,-1.8067,-1.6518,-1.6617,-1.7606,-1.7164,-1.7667,-1.8166,-1.8876,-1.8652,-1.8428,-1.7479,-1.736,-1.9929,-2.1507,-2.2504,-2.4091,-2.5342,-2.7225,-2.7489,-2.7743,-2.8516,-2.9015,-2.9015,-2.8987,-2.8978,-3.0225,-3.2221,-3.4281,-3.5565,-3.654,-3.6968,-3.6885,-3.6909,-3.7003,-3.6968,-3.7109,-3.7168,-3.7547,-3.8043,5.9003,5.7707,5.4072,5.2107,5.0385,4.6468,4.4643,4.3685,4.054,3.8824,3.8328,3.7571,3.7073,3.7073,3.5804,3.5043,3.402,3.0992,2.6673,2.2599,2.004,1.9788,2.0072,2.177,2.3716,2.5242,2.5993,2.6325,2.653,2.6664,2.7308,2.8935,2.8593,2.8682,2.9407,2.8088,2.7089,2.646,2.5383,2.4951,2.4695,2.4695,2.4439,2.4695,2.4951,2.5958,2.6724,2.8252,2.8761,2.9024,2.9024,2.8252,2.6988,2.6222,2.5967,2.5909,2.4872,2.428,2.3449,2.2374,2.1566,2.0522,1.6454,1.366,1.0229,0.6189,-0.0452,-0.4665,-0.7031,-0.8341,-1.0695,-1.1604,-1.198,-1.3053,-1.4668,-1.6365,-1.6408,-1.4545,-1.3597,-1.4123,-1.5196,-1.6697,-1.7929,-1.8633,-1.8639,-1.7885,-1.6703,-1.7295,-2.0105,-2.1892,-2.344,-2.4785,-2.6555,-2.7454,-2.7454,-2.7743,-2.8261,-2.8516,-2.9024,-2.9522,-3.0057,-3.1799,-3.3508,-3.4782,-3.5815,-3.6575,-3.7073,-3.7073,-3.705,-3.7073,-3.7322,-3.7322,-3.7559,-3.7559,-3.7795,5.7608,5.681,5.1934,4.9465,4.8377,4.4892,4.2939,4.2188,4.0123,3.8824,3.8055,3.7322,3.7073,3.7073,3.4532,3.3006,3.2755,2.8959,2.5925,2.2863,1.9524,1.9814,2.2526,2.3731,2.525,2.6357,2.6555,2.6273,2.6124,2.6325,2.7281,2.8338,2.8363,2.9053,2.977,2.8458,2.7536,2.6927,2.5794,2.5101,2.4836,2.4508,2.3926,2.3926,2.3926,2.4687,2.5958,2.6716,2.7234,2.7743,2.7234,2.6214,2.5455,2.4951,2.4951,2.4888,2.4675,2.4117,2.2987,2.2213,2.1166,1.9862,1.6449,1.3043,0.9348,0.5064,0.1589,0.0224,-0.0441,-0.3515,-0.7357,-0.9208,-1.0072,-1.0692,-1.2286,-1.3665,-1.3411,-1.1685,-1.0673,-1.1199,-1.2731,-1.5448,-1.7376,-1.7805,-1.8269,-1.7111,-1.717,-1.7747,-1.9442,-2.1453,-2.2546,-2.3434,-2.4628,-2.5254,-2.5556,-2.6197,-2.6962,-2.748,-2.9522,-3.0545,-3.1656,-3.2942,-3.2796,-3.378,-3.5565,-3.6575,-3.7073,-3.7073,-3.6824,-3.7073,-3.731,-3.6813,-3.6552,-3.705,-3.7298,5.464,5.2365,5.0928,4.9186,4.7109,4.4792,4.3271,4.2431,4.0103,3.8649,3.808,3.7322,3.712,3.7073,3.402,3.2755,3.2493,2.6936,2.4656,2.3119,2.1863,2.2792,2.6913,2.7333,2.7399,2.8145,2.6435,2.5858,2.5765,2.5294,2.5902,2.6988,2.7794,2.8305,2.8164,2.8441,2.7757,2.676,2.5973,2.5662,2.5307,2.4358,2.3714,2.3692,2.3405,2.3662,2.4423,2.5703,2.6469,2.5463,2.5199,2.5199,2.4951,2.4951,2.4951,2.492,2.4857,2.4328,2.3063,2.216,2.1395,1.9462,1.5049,1.1626,1.0075,0.5317,0.114,0.0,-0.0881,-0.1984,-0.402,-0.6184,-0.7466,-0.8271,-1.0104,-1.0276,-0.8856,-0.7763,-0.7936,-0.8847,-1.052,-1.2422,-1.453,-1.6158,-1.7796,-1.7503,-1.7533,-1.8159,-1.9369,-2.0832,-2.1885,-2.2254,-2.268,-2.331,-2.3991,-2.4648,-2.5678,-2.6452,-2.8488,-2.9522,-3.0632,-3.1656,-3.1799,-3.201,-3.2775,-3.4031,-3.5304,-3.6065,-3.6326,-3.6314,-3.5543,-3.5293,-3.5293,-3.5543,-3.5781,5.3357,5.2046,4.9876,4.8097,4.6494,4.5147,4.345,4.1677,4.0442,3.9186,3.7725,3.7629,3.6841,3.5054,3.2514,3.0749,2.9231,2.5175,2.3647,2.3632,2.3141,2.6521,3.013,2.9689,2.9131,2.9482,2.6978,2.5773,2.5601,2.5068,2.5346,2.5616,2.6172,2.6449,2.698,2.7501,2.7585,2.6699,2.6842,2.6427,2.5464,2.4267,2.3605,2.3178,2.2635,2.2378,2.2892,2.4431,2.4943,2.4695,2.4695,2.4951,2.4951,2.4951,2.4951,2.4951,2.4951,2.4238,2.304,2.2284,2.1252,1.9182,1.5593,1.2883,1.0414,0.4912,0.0692,0.0,0.0,-0.1334,-0.2913,-0.4333,-0.5368,-0.5713,-0.6383,-0.7,-0.7389,-0.5932,-0.614,-0.774,-0.895,-1.0181,-1.3569,-1.5191,-1.6885,-1.7921,-1.7238,-1.8115,-1.88,-2.0459,-2.1446,-2.1266,-2.1233,-2.2009,-2.298,-2.3339,-2.4137,-2.4144,-2.5415,-2.6172,-2.7489,-2.9287,-2.9494,-2.9991,-3.0497,-3.1002,-3.1506,-3.202,-3.3288,-3.4292,-3.3769,-3.3518,-3.3278,-3.3278,-3.3529,5.1759,5.1469,4.8993,4.7495,4.685,4.5252,4.3475,4.1391,4.0849,3.9431,3.7972,3.7374,3.6286,3.4397,3.1003,2.8642,2.709,2.4462,2.3383,2.468,2.6322,3.0666,3.4366,3.2455,3.0842,3.0193,2.7421,2.5346,2.5068,2.4233,2.3676,2.3669,2.3947,2.4504,2.5594,2.7042,2.7187,2.6874,2.7558,2.7151,2.5607,2.4119,2.3123,2.2913,2.2127,2.1606,2.1863,2.2892,2.3405,2.3413,2.4183,2.4695,2.4951,2.4951,2.4951,2.4951,2.468,2.4284,2.2953,2.2203,2.14,1.9331,1.5989,1.3229,1.1008,0.4249,0.0,0.0,0.0,-0.0901,-0.2948,-0.3898,-0.3967,-0.3815,-0.4284,-0.4698,-0.5552,-0.4804,-0.4316,-0.6536,-0.7272,-0.8724,-1.1124,-1.3043,-1.4302,-1.5352,-1.5881,-1.619,-1.5577,-1.6688,-1.8878,-1.8886,-1.9131,-2.0431,-2.1455,-2.1794,-2.2092,-2.2092,-2.2599,-2.3353,-2.4393,-2.5942,-2.6699,-2.7962,-2.7954,-2.9231,-2.9241,-2.9494,-3.0,-3.1516,-3.1506,-3.1768,-3.1516,-3.1264,-3.1254,4.896,4.8974,4.8754,4.8142,4.7185,4.5617,4.3721,4.2316,4.1234,4.0174,3.8751,3.695,3.5888,3.4698,3.0704,2.8253,2.6896,2.5109,2.4734,2.745,3.149,3.5541,3.8456,3.5739,3.3173,3.1009,2.698,2.4226,2.3111,2.2287,2.1182,2.1157,2.2274,2.3111,2.4219,2.6711,2.7753,2.7089,2.7927,2.7575,2.614,2.4051,2.2935,2.2906,2.1612,2.1091,2.1606,2.1863,2.187,2.212,2.3156,2.4183,2.4695,2.4951,2.4951,2.4951,2.4951,2.3999,2.3013,2.2621,2.162,1.9686,1.665,1.3128,1.0556,0.5219,0.0,0.0,0.0,-0.046,-0.1859,-0.3037,-0.3299,-0.3828,-0.3352,-0.3566,-0.3983,-0.3884,-0.3852,-0.4556,-0.5938,-0.7548,-0.8019,-1.0211,-1.0505,-1.0787,-1.1282,-1.1598,-1.1683,-1.3966,-1.5629,-1.583,-1.5528,-1.7054,-1.8978,-1.9291,-2.0046,-2.0046,-2.0291,-2.0549,-2.1335,-2.2106,-2.287,-2.44,-2.567,-2.7208,-2.8225,-2.8733,-2.9231,-2.9241,-2.925,-3.001,-2.9757,-2.925,-2.8742,4.8711,4.8711,4.8796,4.7977,4.6796,4.5299,4.3678,4.2057,4.163,3.9997,3.772,3.764,3.6282,3.336,3.187,3.0494,2.9164,2.7392,2.8627,3.2435,3.8027,4.0699,4.0985,3.985,3.6705,3.1659,2.6441,2.3669,2.2553,2.1443,2.061,2.0324,2.0877,2.1716,2.3111,2.6149,2.7688,2.7501,2.8855,2.9026,2.6747,2.435,2.3087,2.267,2.1612,2.1097,2.1091,2.1091,2.1355,2.1863,2.2642,2.3918,2.4695,2.4951,2.4951,2.4951,2.4687,2.4393,2.349,2.2782,2.2033,2.0605,1.8455,1.6534,1.4362,0.8945,0.5241,0.4698,0.3959,0.2792,0.0935,-0.0,-0.0472,-0.0718,-0.1199,-0.2153,-0.3569,-0.3736,-0.3682,-0.386,-0.433,-0.5941,-0.7339,-0.9037,-0.8907,-0.9689,-0.8286,-0.6892,-1.0257,-1.295,-1.1958,-1.1153,-1.1752,-1.3469,-1.5858,-1.7242,-1.8003,-1.8509,-1.9014,-1.9543,-1.9801,-2.0575,-2.1084,-2.287,-2.3647,-2.5431,-2.6205,-2.6954,-2.7717,-2.6962,-2.6461,-2.7225,-2.7489,-2.6971,-2.7225,4.8711,4.8448,4.8255,4.7434,4.6307,4.4967,4.3709,4.2345,4.159,3.9736,3.7648,3.7607,3.5963,3.355,3.2829,3.225,3.0924,3.1797,3.3765,3.7704,4.1931,4.3704,4.3858,4.3799,4.01,3.383,2.7525,2.3662,2.1995,2.0318,1.9483,1.9483,1.9483,2.0598,2.1995,2.5309,2.7372,2.7602,2.909,2.9256,2.735,2.4565,2.3109,2.2921,2.1612,2.0839,2.0839,2.0839,2.1091,2.1348,2.2385,2.3413,2.4695,2.4951,2.4951,2.4951,2.4951,2.4703,2.3896,2.3198,2.2276,2.1386,2.0266,1.9297,1.8069,1.4057,1.0749,0.8168,0.7371,0.5693,0.3555,0.2365,0.2843,0.4308,0.1677,-0.1198,-0.3352,-0.3803,-0.3736,-0.3658,-0.2978,-0.3455,-0.4851,-0.5372,-0.5442,-0.6673,-0.5728,-0.5016,-0.7656,-0.9593,-0.9705,-0.6712,-0.7998,-0.9598,-1.2635,-1.5121,-1.7204,-1.9032,-1.9807,-2.0343,-2.0582,-2.1084,-2.1341,-2.1856,-2.2378,-2.2892,-2.3669,-2.4175,-2.5191,-2.4943,-2.5199,-2.5199,-2.4951,-2.5455,-2.6477,4.8434,4.7629,4.7407,4.6613,4.5498,4.4701,4.3889,4.2491,4.0381,3.9807,3.9131,3.6259,3.5674,3.5882,3.3902,3.242,3.3285,3.6263,3.909,4.1314,4.3025,4.498,4.7144,4.647,4.3304,3.8436,2.9965,2.4197,2.0598,1.8923,1.7806,1.7244,1.7806,1.8923,2.0324,2.3919,2.6256,2.7273,2.8303,2.82,2.7291,2.4632,2.3185,2.2906,2.1612,2.0839,2.0839,2.0839,2.0839,2.1097,2.2127,2.3413,2.4695,2.4951,2.4951,2.5207,2.4943,2.4695,2.4175,2.3383,2.2456,2.1763,2.0943,1.9803,1.8838,1.754,1.4742,1.0906,0.9337,0.8054,0.5352,0.4574,0.5977,0.9593,0.4312,-0.0479,-0.312,-0.384,-0.3816,-0.3528,-0.2106,0.0,0.0704,-0.071,-0.191,-0.2394,-0.2881,-0.4331,-0.5056,-0.5539,-0.4139,-0.3481,-0.5265,-0.8343,-1.0783,-1.3279,-1.6934,-1.9814,-2.0601,-2.1375,-2.1355,-2.187,-2.2385,-2.212,-2.2642,-2.3156,-2.3669,-2.4183,-2.4439,-2.4951,-2.4951,-2.5207,-2.5463,-2.5719,-2.6222,4.7893,4.7365,4.6613,4.6069,4.5498,4.4142,4.226,4.0662,4.0416,3.8774,3.6866,3.7702,3.7691,3.6834,3.6997,3.6942,3.6975,3.8717,4.0511,4.1711,4.5259,4.7643,4.8618,4.7671,4.514,4.0555,3.378,2.6387,2.0318,1.8086,1.6968,1.6124,1.6405,1.7244,1.9203,2.2534,2.5302,2.7005,2.869,2.9111,2.8264,2.5752,2.3903,2.2899,2.1612,2.0839,2.0839,2.0839,2.1091,2.1606,2.2385,2.3413,2.4183,2.5447,2.6724,2.7497,2.6733,2.6205,2.5958,2.4175,2.2855,2.2491,2.053,1.9141,1.8538,1.6877,1.5299,1.3481,1.2354,1.1267,1.0008,0.918,0.9586,1.0314,0.6227,0.0958,-0.312,-0.3842,-0.3832,-0.3813,-0.2855,-0.1421,0.0471,-0.1189,-0.2155,-0.2639,-0.3148,-0.3895,-0.3897,-0.4144,-0.443,-0.6558,-0.629,-0.8357,-1.4211,-1.7441,-2.0311,-2.1097,-2.1877,-2.2134,-2.2642,-2.3427,-2.3684,-2.3163,-2.3413,-2.3926,-2.4183,-2.4439,-2.4959,-2.5735,-2.5727,-2.5719,-2.5975,-2.623,-2.6733,4.7629,4.7365,4.6015,4.5233,4.4967,4.4142,4.2273,4.0393,4.0135,3.8504,3.6606,3.7973,3.8785,3.8504,3.9607,4.017,3.9901,4.071,4.1871,4.3608,4.7699,5.0373,5.106,5.0023,4.7518,4.2962,3.6477,2.8564,2.0032,1.7244,1.6124,1.5561,1.5279,1.6119,1.8081,2.0865,2.3688,2.6199,2.8027,2.907,2.8494,2.6471,2.4922,2.4519,2.3225,2.2442,2.1927,2.1818,2.2022,2.2281,2.295,2.3669,2.4687,2.6214,2.7489,2.877,2.7743,2.6716,2.5687,2.3911,2.2599,2.1711,1.9742,1.8851,1.8233,1.6849,1.5304,1.4565,1.3638,1.2739,1.2457,1.1845,1.1505,1.0795,0.6944,0.1676,-0.2399,-0.3842,-0.3842,-0.3842,-0.3842,-0.2392,-0.0238,-0.0954,-0.2399,-0.2643,-0.3402,-0.3915,-0.3922,-0.49,-0.6184,-0.8093,-0.8842,-1.1346,-2.0008,-2.1355,-2.2113,-2.2378,-2.2642,-2.3163,-2.342,-2.3941,-2.4462,-2.3934,-2.4183,-2.4695,-2.4959,-2.5471,-2.5719,-2.6239,-2.6486,-2.6486,-2.6503,-2.6996,-2.7497,4.7615,4.7351,4.5419,4.4649,4.4448,4.4435,4.3368,4.1492,3.9291,3.8763,3.9349,3.8222,3.8774,4.1224,4.1761,4.1773,4.1224,4.2041,4.3596,4.607,4.9892,5.2369,5.3785,5.3151,5.0167,4.5127,3.8088,2.9638,2.0306,1.6963,1.5279,1.4707,1.4426,1.5275,1.6963,1.9203,2.1841,2.5115,2.6978,2.791,2.8072,2.6961,2.6723,2.7251,2.647,2.5367,2.4301,2.3771,2.3595,2.3603,2.4085,2.468,2.595,2.6971,2.7998,2.877,2.7989,2.6197,2.44,2.2884,2.1503,1.9729,1.8876,1.8754,1.7586,1.675,1.5803,1.4265,1.3894,1.2956,1.1986,1.1122,1.1027,1.1038,0.6708,0.1676,-0.3361,-0.3842,-0.3842,-0.3842,-0.3842,-0.2637,0.0479,0.0479,-0.0721,-0.1208,-0.2438,-0.3942,-0.4197,-0.6153,-0.772,-0.9627,-1.2929,-1.7667,-2.1718,-2.2892,-2.2627,-2.2892,-2.342,-2.3941,-2.4198,-2.4447,-2.4703,-2.4703,-2.4959,-2.5215,-2.5727,-2.6239,-2.6477,-2.6733,-2.6988,-2.7251,-2.7515,-2.7761,-2.8261,4.6294,4.6823,4.575,4.4954,4.4435,4.3063,4.1163,3.9291,3.8785,3.8244,3.7962,3.9326,4.148,4.338,4.2833,4.2041,4.1505,4.2578,4.3953,4.615,5.0517,5.3438,5.4419,5.3407,5.0674,4.6145,3.9165,3.2123,2.5556,1.834,1.4152,1.3866,1.2738,1.3298,1.5552,1.8081,2.0737,2.3499,2.7273,2.9272,2.9513,3.0649,3.1055,3.0594,2.9248,2.8294,2.7799,2.552,2.533,2.7249,2.6919,2.7234,2.8252,2.9268,3.0273,3.1031,2.8987,2.6945,2.5399,2.1044,1.7935,1.6816,1.5995,1.536,1.5144,1.4941,1.4383,1.4033,1.3235,1.2597,1.1472,0.9903,0.9583,1.0795,0.503,-0.0,-0.3361,-0.3842,-0.3842,-0.3842,-0.3842,-0.3361,-0.2644,-0.242,-0.2689,-0.2717,-0.3506,-0.405,-0.4304,-0.6319,-0.9392,-1.1868,-1.638,-2.0217,-2.2285,-2.3405,-2.3918,-2.4183,-2.4703,-2.5223,-2.4703,-2.4695,-2.4959,-2.5215,-2.5471,-2.5991,-2.6239,-2.6996,-2.7489,-2.7234,-2.7761,-2.8297,-2.8279,-2.8525,-2.9024,4.5764,4.6042,4.5764,4.5233,4.4435,4.3342,4.1712,4.0357,4.12,4.0931,3.9842,4.0943,4.231,4.3635,4.2845,4.2041,4.1773,4.3113,4.5193,4.7781,5.1729,5.4617,5.5931,5.5147,5.2263,4.8016,4.0216,3.3731,2.7729,1.9158,1.3862,1.2738,1.1891,1.2452,1.4707,1.7239,1.9689,2.229,2.6672,2.9588,3.1047,3.3633,3.4303,3.3453,3.266,3.1654,3.0667,2.8342,2.7794,2.9575,2.9217,2.9259,3.0273,3.0788,3.1546,3.2544,3.0,2.6665,2.2293,1.8613,1.5239,1.292,1.2076,1.242,1.4278,1.4014,1.3626,1.3226,1.2584,1.2015,1.1386,0.9142,0.7654,0.7425,0.3353,-0.0959,-0.3601,-0.3842,-0.3842,-0.3842,-0.3842,-0.3849,-0.3876,-0.3905,-0.3947,-0.4004,-0.4061,-0.4092,-0.4353,-0.7673,-1.0787,-1.3732,-1.8619,-2.2477,-2.3617,-2.4431,-2.4687,-2.4951,-2.5727,-2.6486,-2.5967,-2.5711,-2.5711,-2.5711,-2.623,-2.6486,-2.6741,-2.7497,-2.7998,-2.8261,-2.8534,-2.9042,-2.9005,-2.9494,-3.0769,4.5498,4.5498,4.5764,4.5233,4.4714,4.4155,4.3889,4.3355,4.4396,4.4396,4.3355,4.2833,4.2565,4.231,4.231,4.231,4.2578,4.3914,4.6518,5.0414,5.354,5.5882,5.7445,5.7224,5.436,4.9093,4.1517,3.4767,2.908,2.0252,1.4421,1.1605,1.1041,1.217,1.4426,1.6119,1.8362,2.1436,2.5594,2.9476,3.2519,3.5538,3.6866,3.6009,3.6259,3.5237,3.3394,3.1312,3.0643,3.166,3.0993,3.1021,3.202,3.1748,3.2242,3.3748,3.1155,2.5778,1.8601,1.5876,1.2734,0.916,0.8209,0.9814,1.3967,1.3783,1.2936,1.2225,1.1747,1.1262,1.1023,0.8618,0.6218,0.4309,0.1197,-0.1199,-0.3361,-0.3842,-0.3842,-0.3842,-0.3842,-0.3862,-0.3907,-0.393,-0.3959,-0.4021,-0.4081,-0.4118,-0.4631,-0.8728,-1.2867,-1.4266,-1.8984,-2.2884,-2.3662,-2.4416,-2.5207,-2.5207,-2.6222,-2.6724,-2.6716,-2.6716,-2.6971,-2.6724,-2.6979,-2.7234,-2.7743,-2.7998,-2.8252,-2.9024,-2.9278,-2.9259,-2.9429,-3.0691,-3.2493,4.5512,4.6307,4.6307,4.6042,4.5525,4.3063,4.2795,4.31,4.2029,4.282,4.4701,4.413,4.333,4.231,4.1773,4.1773,4.2578,4.3902,4.6531,4.9921,5.2796,5.5147,5.6952,5.6442,5.4118,4.9892,4.2329,3.557,2.932,2.0804,1.4413,1.0755,0.9914,1.0479,1.2174,1.5275,1.8081,2.0598,2.5038,2.9183,3.3332,3.6062,3.8077,3.8542,3.9063,3.8291,3.6424,3.4818,3.3995,3.4764,3.4311,3.4052,3.4281,3.3718,3.4006,3.47,3.2913,2.9237,2.328,1.4278,0.7539,0.5286,0.6752,0.8677,1.0786,0.9421,0.8137,0.885,1.0292,1.0538,0.8615,0.622,0.4068,0.2156,-0.0959,-0.312,-0.3841,-0.3842,-0.3842,-0.3842,-0.3842,-0.3862,-0.3917,-0.3963,-0.4011,-0.4069,-0.413,-0.4166,-0.4948,-0.9606,-1.2712,-1.3015,-1.457,-1.7419,-1.8732,-2.2656,-2.4742,-2.287,-2.492,-2.6452,-2.6971,-2.6971,-2.6971,-2.7225,-2.748,-2.7743,-2.8007,-2.8516,-2.9278,-3.0292,-3.0545,-3.1031,-3.1758,-3.2524,-3.354,4.4142,4.6029,4.6572,4.6321,4.5512,4.4142,4.3876,4.4383,4.0163,3.9396,4.1494,4.1769,4.1255,4.0261,4.0766,4.1141,4.2229,4.3799,4.6796,5.0443,5.2034,5.4118,5.6187,5.5403,5.307,4.9427,4.1517,3.4716,2.818,1.9119,1.2723,0.878,0.85,0.9351,1.1326,1.4711,1.7525,2.0318,2.4892,2.9122,3.2757,3.5909,3.8117,3.8727,3.9185,3.8794,3.7767,3.6643,3.6139,3.6498,3.5723,3.5464,3.5239,3.4477,3.4477,3.4738,3.1287,2.7738,2.4531,1.4436,0.6507,0.2505,0.3467,0.4649,0.6064,0.4844,0.4583,0.5746,0.7898,0.8618,0.7179,0.4308,0.2635,0.2636,-0.1439,-0.3842,-0.3842,-0.3842,-0.3842,-0.3842,-0.3842,-0.4105,-0.4406,-0.4225,-0.4285,-0.4349,-0.441,-0.4449,-0.4973,-0.9129,-1.1982,-1.1729,-1.3011,-1.4829,-1.666,-1.9795,-2.1084,-2.1057,-2.3617,-2.567,-2.6452,-2.7489,-2.7743,-2.7998,-2.8261,-2.8516,-2.8516,-2.9278,-3.0038,-3.1051,-3.1556,-3.2827,-3.4368,-3.4335,-3.4815,4.2279,4.4982,4.5773,4.5787,4.4982,4.4982,4.4982,4.4625,3.8404,3.5932,3.6724,3.7797,3.808,3.7878,3.9424,4.0716,4.1806,4.3392,4.6782,5.0949,5.1255,5.2553,5.4874,5.3477,5.1105,4.7434,3.9701,3.2642,2.5873,1.6829,1.0172,0.7368,0.7374,0.8502,1.1044,1.4148,1.7525,2.0586,2.5354,2.9412,3.2515,3.5814,3.7629,3.7859,3.8456,3.8456,3.7589,3.7349,3.7139,3.6792,3.6193,3.5471,3.4772,3.3844,3.3492,3.3272,2.8027,2.4094,2.2844,1.5027,0.7419,0.1735,0.0,-0.024,0.0478,0.0965,0.1933,0.3346,0.4756,0.5711,0.4996,0.2859,0.167,0.2149,-0.1198,-0.3842,-0.3842,-0.4081,-0.4081,-0.4081,-0.4081,-0.4345,-0.4895,-0.4709,-0.4521,-0.4855,-0.4655,-0.444,-0.5228,-0.7834,-1.0173,-1.0953,-1.1982,-1.3534,-1.4588,-1.5088,-1.6892,-1.9223,-2.1787,-2.4098,-2.6189,-2.7743,-2.877,-2.9024,-2.8697,-2.8923,-2.9166,-3.0167,-3.0786,-3.1517,-3.2256,-3.3836,-3.5985,-3.5622,-3.5577,3.8526,4.1665,4.3752,4.4036,4.329,4.2207,4.0394,3.8311,3.653,0.0,0.0,3.5704,3.6248,3.7878,3.9173,4.0465,4.1543,4.2861,4.522,4.8391,4.8363,4.9136,5.0659,4.8834,4.6493,4.3565,3.6457,2.9815,2.3366,1.5789,1.0363,0.708,0.6805,0.7938,0.9631,1.4148,1.8912,2.3091,2.7185,3.1015,3.5018,3.7548,3.8349,3.7261,3.8503,3.8172,3.6064,3.6756,3.6569,3.5243,3.4762,3.3542,3.1318,3.0384,2.9297,2.8563,2.5918,2.3006,1.9739,1.3473,0.837,0.5204,-0.0,-0.3147,-0.2831,-0.0932,0.0697,0.1644,0.209,0.1614,-0.0231,0.0466,0.0235,-0.2355,-0.3336,-0.3842,-0.3842,-0.432,-0.4556,-0.4798,-0.5037,-0.5549,-0.5625,-0.5658,-0.547,-0.5092,-0.5139,-0.4905,-0.4959,-0.6538,-0.8363,-0.8885,-0.8882,-0.888,-0.9928,-1.2001,-1.5356,-1.8181,-2.0208,-2.3024,-2.6936,-2.877,-2.9033,-2.8969,-2.8748,-2.9073,-2.9755,-3.0018,-3.0722,-3.2656,-3.3151,-3.3988,-3.53,-3.5614,-3.574,3.617,3.9291,4.1387,4.1657,0.0,3.9549,3.602,3.1081,3.0504,3.099,3.2569,3.2627,3.354,3.5349,3.713,3.8491,3.9564,4.167,4.3587,4.5647,4.5397,4.5343,4.5783,4.3395,4.0901,3.8004,3.1958,2.6494,2.1132,1.5486,1.0623,0.6805,0.5954,0.6803,0.9065,1.2731,1.7774,2.419,2.8078,3.1737,3.4852,3.7252,3.7878,3.7179,3.8102,0.0,0.0,0.0,0.0,0.0,0.0,0.0,0.0,3.0566,0.0,2.836,2.3543,1.9773,1.7636,1.2438,0.8214,0.5549,-0.0227,-0.3839,-0.3712,-0.2472,-0.1597,-0.1131,-0.0,-0.0229,-0.2518,-0.1383,-0.1158,-0.3479,-0.3763,-0.4035,-0.4509,-0.4774,-0.5034,-0.5275,-0.5754,-0.601,-0.63,-0.6101,-0.5941,-0.6058,-0.5865,-0.5411,-0.5477,-0.6538,-0.7583,-0.7847,-0.7585,-0.7847,-0.863,-1.0967,-1.4065,-1.7155,-2.103,-2.4586,-2.6731,-2.7966,-2.8647,-2.8436,-2.8261,-2.8625,-2.9814,-3.0388,-3.1184,-3.2902,-3.4113,-3.4364,-3.3033,-3.3627,-3.4601,3.3575,3.6915,3.8932,3.8629,3.679,3.602,3.1541,2.4948,2.4793,2.5761,2.7626,2.9697,3.1205,3.2715,3.5047,3.6459,3.7275,3.9991,4.1715,4.3062,4.1816,4.1024,4.0542,3.7694,3.4814,3.1929,2.7366,2.2981,1.8925,1.49,1.1144,0.7342,0.6226,0.7082,0.9631,0.0,0.0,0.0,2.926,3.2728,3.4965,3.6992,3.7721,3.7144,3.783,0.0,3.685,3.6979,3.6944,3.6639,3.6053,0.0,0.0,0.0,0.0,0.0,0.0,0.0,0.0,0.0,0.0,0.0,-0.0607,-0.3616,-0.3567,-0.3611,-0.351,-0.2994,-0.1104,-0.0903,-0.2701,-0.2494,-0.2736,-0.365,-0.3701,-0.4209,-0.4921,-0.5211,-0.5499,-0.5992,-0.6235,-0.6477,-0.6964,-0.6544,-0.6384,-0.6728,-0.6576,-0.6414,-0.6497,-0.7029,-0.7561,-0.7585,-0.8108,-0.8371,-0.8371,-1.0943,-1.374,-1.6318,-2.252,-2.647,-2.6149,-2.7315,-2.7932,-2.7931,-2.799,-2.8428,-2.9857,-3.0978,-3.2067,-3.3096,-3.4046,-3.3888,-3.0543,-3.116,-3.279,3.0143,3.2869,3.525,3.5328,3.3803,3.0081,2.6768,2.3685,2.403,2.3984,2.4133,2.7469,3.046,3.2694,3.4665,3.5892,3.6708,3.8525,3.9515,3.9491,3.8188,3.6802,3.5378,3.1997,2.9106,2.6985,2.3522,1.9568,1.5497,1.3623,1.126,0.8634,0.9291,1.0473,1.2166,1.5534,1.9557,2.4311,3.1016,3.5512,3.7526,3.8728,3.8598,3.7191,3.7578,3.7191,3.5853,3.6604,3.6451,3.5114,3.414,3.1746,2.7539,2.5363,2.2581,0.0,1.6038,0.0,0.0,0.0,0.0,0.0,0.0,0.0,0.0,-0.3242,-0.254,-0.0583,-0.0207,-0.0214,-0.0421,-0.2186,-0.3588,-0.3591,-0.4097,-0.4622,-0.5146,-0.5868,-0.6381,-0.6705,-0.7196,-0.7438,-0.7438,-0.7448,-0.726,-0.6881,-0.673,-0.7071,-0.7678,-0.7964,-0.8005,-0.8361,-0.8371,-0.8371,-0.8624,-1.1375,-1.4848,-1.7593,-2.2526,-2.6303,-2.7188,-2.7641,-2.7866,-2.7765,-2.8173,-2.9164,-3.0607,-3.1436,-3.2115,-3.2104,-3.2335,-3.1227,-2.848,-2.8855,-3.0751,2.7448,3.011,3.1669,3.1086,2.8911,2.6505,2.4327,2.2398,2.2981,2.2936,2.2346,2.587,2.8752,3.113,3.228,3.3325,3.4124,3.558,3.5797,3.5092,3.3823,3.2112,2.9829,2.6808,2.4292,2.1994,1.9575,1.7161,1.4875,1.3133,1.1419,0.9717,1.125,1.3619,1.6105,1.8414,2.15,2.5264,3.0721,3.5054,3.7585,3.8165,3.8234,3.7554,3.7449,3.7097,3.644,3.6839,3.6627,3.5665,3.4915,3.2621,2.8789,2.4871,2.1157,0.0,0.0,0.0,0.0,0.0,0.0,0.0,0.0,0.0,0.0,0.0,-0.1048,0.0,0.0,-0.0627,-0.1792,-0.2889,-0.3609,-0.3642,-0.3609,-0.4311,-0.5446,-0.5663,-0.6164,-0.7079,-0.7343,-0.7609,-0.767,-0.7678,-0.7479,-0.7342,-0.7397,-0.7692,-0.8001,-0.812,-0.8213,-0.8268,-0.8332,-0.8371,-0.8371,-1.2117,-1.6306,-1.9809,-2.3101,-2.5792,-2.7286,-2.7306,-2.7067,-2.6847,-2.7415,-2.8262,-2.9608,-3.0119,-3.0664,-3.0888,-2.9981,-2.8071,-2.5159,-2.6046,-2.7817,2.5522,2.7667,2.7806,2.6636,2.4516,2.3912,2.2676,2.1486,2.2302,2.2494,2.2157,2.5122,2.7461,2.9205,2.9893,3.066,3.1491,3.2588,3.2453,3.1135,3.0358,2.8231,2.5338,2.2733,2.0551,1.8316,1.6777,1.5465,1.4288,1.2833,1.167,1.1059,1.2495,1.5187,1.8876,2.0338,2.3051,2.7561,3.0836,3.4164,3.7162,3.7367,3.759,3.7859,3.7355,3.7073,3.7073,3.6459,3.5969,3.5334,3.391,3.175,2.8467,2.3566,0.0,0.0,0.0,0.0,0.0,0.0,0.0,0.0,0.0,-0.1266,-0.2303,0.0,0.0157,0.0,0.0194,-0.1008,-0.3281,-0.3537,0.0,0.0,-0.3332,-0.3945,-0.5525,-0.5356,-0.5672,-0.6846,-0.7179,-0.7271,-0.7384,-0.74,-0.7428,-0.7507,-0.7541,-0.7571,-0.7847,-0.8006,-0.8122,-0.8152,-0.8226,-0.8556,-0.9344,-1.2598,-1.6537,-2.1247,-2.3387,-2.5227,-2.6894,-2.6755,-2.6388,-2.6075,-2.6588,-2.742,-2.8305,-2.8925,-2.9102,-2.9078,-2.7272,-2.4882,-2.2983,-2.3886,-2.535,2.538,2.5898,2.3329,2.2308,2.2343,2.2026,2.1788,2.1472,2.1798,2.2738,2.4084,2.5844,2.6835,2.7343,2.8218,0.0,2.9493,3.0656,3.0516,2.9494,2.8052,2.6009,2.315,2.072,1.8593,1.6812,1.5595,1.4623,1.3552,1.3164,1.2773,1.2642,1.27,1.4937,1.9462,2.1033,2.5088,3.1298,3.2449,3.4283,3.6834,3.7283,3.759,3.7848,3.7343,3.7073,3.7061,3.4374,3.2881,3.2785,2.8649,2.4725,2.1957,0.0,0.0,0.0,0.0,0.0,0.0,0.0,0.0,0.0,0.0,0.0,0.0,0.0,0.0,0.1198,0.0509,0.0,-0.3317,-0.3482,0.0,0.0,0.0,-0.4306,-0.4315,-0.4729,-0.5147,-0.5338,0.0,0.0,-0.6564,-0.7282,-0.7284,-0.6585,-0.643,-0.7004,-0.7839,-0.7866,-0.7913,-0.8019,-0.8043,-0.8839,-1.1237,-1.2505,-1.5189,-2.0456,-2.3341,-2.5087,-2.6421,-2.6581,-2.6578,-2.5984,-2.6559,-2.7341,-2.7361,-2.8161,-2.8455,-2.5905,-2.4081,-2.2692,-2.2355,-2.2665,-2.3651,2.1076,2.0649,1.9942,1.9551,1.9321,1.9074,1.9391,2.0023,2.0614,2.1398,2.2115,2.3634,2.4147,2.373,2.4908,0.0,0.0,0.0,2.5973,2.5569,2.3725,2.1961,2.0328,1.8335,1.679,1.5703,1.4653,1.3686,1.2777,1.2338,1.1541,1.0239,0.0,1.3541,1.6124,2.0794,2.5293,2.907,3.2692,3.509,3.6355,3.6777,3.7046,3.6979,3.6733,3.5716,3.3922,3.2488,3.0677,2.8205,2.5737,2.2433,0.0,0.0,0.0,0.0,0.0,0.0,0.0,0.0,0.0,0.0,0.0,0.1561,0.1227,0.0,0.0,0.0,0.1077,0.0289,-0.1294,-0.2237,0.0,0.0,0.0,0.0,0.0,0.0,0.0,-0.5252,-0.5554,-0.5818,-0.6251,-0.6062,-0.5882,-0.5992,-0.5385,-0.545,-0.6918,0.0,-0.7868,-0.7419,-0.8717,-1.0279,-1.1837,-1.4493,-1.7332,-1.9909,-2.2415,-2.4656,-2.5853,-2.6174,-2.6046,-2.5544,-2.5827,-2.6383,-2.6383,-2.5095,-2.3662,-2.2799,-2.1936,-2.1212,-2.1331,-2.1635,-2.2181,1.7212,0.0,0.0,0.0,0.0,1.622,1.7083,1.8585,1.9226,1.995,2.0692,2.1671,0.0,0.0,0.0,0.0,0.0,0.0,2.2671,2.2329,2.0555,1.9255,1.8066,1.6617,1.5515,1.4955,1.3909,1.3117,1.2348,1.1656,1.0159,0.8448,0.0,0.0,0.0,0.0,2.4905,2.7595,3.2675,3.5507,3.5643,3.6182,3.6556,3.6506,3.5562,3.4088,3.1635,2.9431,2.6868,2.3949,2.1691,0.0,0.0,0.0,0.0,0.0,0.0,0.0,0.0,0.0,0.0,0.0,0.0,0.0,0.0,0.0,0.0,0.0,0.0,0.0,0.0271,-0.091,-0.1761,0.0,0.0,0.0,0.0,0.0,0.0,0.0,0.0,0.0,-0.5319,-0.4848,-0.4354,0.0,0.0,-0.3507,-0.6294,-0.643,-0.677,-0.7947,-0.9215,0.0,-1.2181,-1.5775,-1.8385,-1.9257,-2.1988,-2.422,-2.5059,-2.5073,-2.4818,-2.4385,-2.456,-2.4601,-2.4052,-2.1846,-2.0284,-2.0203,-2.0104,-1.9805,-1.9937,-2.0349,-2.1001,0.0,0.0,0.0,0.0,1.376,0.0,0.0,0.0,1.7105,1.8644,0.0,2.0428,0.0,0.0,0.0,0.0,2.149,2.127,0.0,0.0,1.9641,1.8673,1.7105,1.6198,1.5185,1.4004,1.3598,1.285,1.2145,1.0845,0.0,0.0,0.0,0.0,0.0,0.0,2.4392,2.8109,3.2294,3.4732,3.5172,3.6019,3.6519,3.6419,3.4052,3.2329,3.082,2.5047,2.1502,2.0136,1.5209,0.0,0.0,0.0,0.0,0.0,0.0,0.0,0.0,0.0,0.0,0.0,0.0,0.0,0.0,0.0,0.0,0.0,0.0,0.0,0.0,0.068,0.0,0.0,0.0,0.0,0.0,0.0,0.0,0.0,0.0,-0.5122,-0.3714,-0.3492,-0.252,-0.0652,0.0,0.0,0.0,0.0,-0.4658,-0.9894,-0.9869,-1.0323,-1.3499,-1.4995,-1.661,-1.8928,0.0,0.0,-2.3414,-2.3264,-2.3138,-2.3061,-2.2556,-2.164,-2.0422,-1.9363,-1.8656,-1.8408,-1.8353,-1.8514,-1.8299,-1.9252,-2.0422,0.0,0.0,0.0,0.0,0.0,0.0,0.0,0.0,0.0,1.7417,1.8271,1.8345,0.0,0.0,0.0,0.0,0.0,0.0,0.0,0.0,1.5484,1.4793,1.4321,1.4148,1.3535,1.2534,1.2453,1.203,0.0,0.0,0.0,0.0,0.0,0.0,0.0,0.0,2.1131,2.4889,2.9521,3.2819,3.5109,3.5454,3.5702,3.6508,3.4799,3.1682,2.6785,2.2422,1.8775,0.0,0.0,0.0,0.0,0.0,0.0,0.0,0.0,0.0,0.0,0.0,0.0,0.0,0.0,0.0,0.0,0.0,0.0,0.0,0.0,0.0,0.0,0.0,0.135,0.0,0.0,0.0,0.0,0.0,0.0,0.0,0.0,0.0,-0.7361,-0.4284,-0.2326,-0.3089,0.0,0.112,-0.2253,0.0,0.0,0.0,0.0,0.0,0.0,0.0,-1.5953,-1.6887,-1.6781,-1.7759,-2.0773,-2.1383,-2.1547,-2.1103,0.0,0.0,-1.7689,-1.6221,-1.5435,-1.6077,-1.588,-1.5611,-1.6082,-1.7129,-1.8413,0.0,0.0,0.0,0.0,0.0,0.0,0.0,0.0,0.0,1.6013,1.6236,0.0,0.0,0.0,0.0,0.0,0.0,0.0,0.0,0.0,0.0,0.0,1.2552,1.2879,0.0,0.0,0.0,0.0,0.0,0.0,0.0,0.0,0.0,0.0,0.0,0.0,1.9347,2.2866,2.7662,3.1595,3.468,3.3814,3.3885,3.4427,3.2782,2.914,2.3277,0.0,0.0,0.0,0.0,0.0,0.0,0.0,0.0,0.0,0.0,0.0,0.0,0.0,0.0,0.0,0.0,0.0,0.0,0.0,0.0,0.0,0.0,0.0,0.0,0.0,0.1851,0.0,0.0,0.0,0.0,0.0,0.0,0.0,0.0,0.0,0.0,-0.4437,-0.2703,-0.4513,-0.0625,0.1957,0.1327,-0.0674,-0.2942,0.0,0.0,0.0,0.0,0.0,0.0,0.0,0.0,0.0,0.0,0.0,0.0,0.0,-1.7744,-1.671,-1.4749,-1.3566,-1.297,-1.3639,0.0,0.0,0.0,0.0,0.0,0.0,0.0,0.0,0.0,0.0,0.0,0.0,0.0,0.0,0.0,1.4923,0.0,0.0,1.508,0.0,0.0,0.0,0.0,0.0,0.0,0.0,0.0,0.0,0.0,0.0,0.0,0.0,0.0,0.0,0.0,0.0,0.0,0.0,0.0,0.0,0.0,1.9124,2.2257,2.7103,3.1027,3.3812,3.166,3.0867,3.0857,2.8114,2.4998,2.1146,0.0,0.0,0.0,0.0,0.0,0.0,0.0,0.0,0.0,0.0,0.0,0.0,0.0,0.0,0.0,0.0,0.0,0.0,0.0,0.0,0.0,0.0,0.0,0.0,0.0,0.0,0.2774,0.3323,0.2505,0.0,0.0,0.0,0.0,0.0,0.0,0.0,0.0,0.0,-0.4323,-0.1622,0.1066,0.3043,0.022,-0.3318,-0.632,-0.6311,-0.4761,-0.1913,-0.7834,-1.2939,0.0,0.0,0.0,0.0,0.0,0.0,0.0,0.0,0.0,0.0,0.0,0.0,0.0,0.0,0.0,0.0,0.0,0.0,0.0,0.0,0.0,0.0,0.0,0.0,0.0,0.0,0.0,0.0,0.0,0.0,0.0,0.0,0.0,0.0,0.0,0.0,0.0,0.0,0.0,0.0,0.0,0.0,0.0,0.0,0.0,0.0,0.0,0.0,0.0,0.0,0.0,0.0,0.0,0.0,1.7039,2.2003,2.4878,2.8895,3.377,3.0864,2.9812,3.0571,2.7635,2.4546,0.0,0.0,0.0,0.0,0.0,0.0,0.0,0.0,0.0,0.0,0.0,0.0,0.0,0.0,0.0,0.0,0.0,0.0,0.0,0.0,0.0,0.0,0.0,0.0,0.0,0.0,0.0,0.0,0.3554,0.3044,0.137,0.0,0.0,0.0,0.0,0.0,0.0,0.0,0.0,0.0,0.0,-0.2452,0.2129,0.0215,-0.2366,-0.4064,-0.4279,-0.4059,-0.382,-0.3775,-0.4755,-0.8127,0.0,0.0,0.0,0.0,0.0,0.0,0.0,0.0,0.0,0.0,0.0,0.0,0.0,0.0,0.0,0.0,0.0,0.0,0.0,0.0,0.0,0.0,0.0,0.0,0.0,0.0,0.0,0.0,0.0,0.0,0.0,0.0,0.0,0.0,0.0,0.0,0.0,0.0,0.0,0.0,0.0,0.0,0.0,0.0,0.0,0.0,0.0,0.0,0.0,0.0,0.0,0.0,0.0,1.5721,2.0547,2.3594,2.667,3.0115,2.8333,2.7294,2.7012,2.382,2.1269,0.0,0.0,0.0,0.0,0.0,0.0,0.0,0.0,0.0,0.0,0.0,0.0,0.0,0.0,0.0,0.0,0.0,0.0,0.0,0.0,0.0,0.0,0.0,0.0,0.0,0.0,0.0,0.0,0.3677,0.3898,0.3456,0.0,0.0,0.0,0.0,0.0,0.0,0.0,0.0,0.0,0.0,-0.389,0.1239,0.1041,0.0,0.0,-0.1255,-0.1252,-0.2729,-0.0413,0.0,-0.4502,-0.6046,0.0,0.0,0.0,0.0,0.0,0.0,0.0,0.0,0.0,0.0,0.0,0.0,0.0,0.0,0.0,0.0,0.0,0.0,0.0,0.0,0.0,0.0,0.0,0.0,0.0,0.0,0.0,0.0,0.0,0.0,0.0,0.0,0.0,0.0,0.0,0.0,0.0,0.0,0.0,0.0,0.0,0.0,0.0,0.0,0.0,0.0,0.0,0.0,0.0,0.0,0.0,0.0,1.486,1.8037,2.2576,2.4953,2.4928,2.4656,2.3383,2.0826,1.8257,1.6302,0.0,0.0,0.0,0.0,0.0,0.0,0.0,0.0,0.0,0.0,0.0,0.0,0.0,0.0,0.0,0.0,0.0,0.0,0.0,0.0,0.0,0.0,0.0,0.0,0.0,0.0,0.0,0.0,0.0,0.0,0.0,0.0,0.0,0.0,0.0,0.0,0.0,0.0,0.0,0.0,0.0,-0.3513,0.0598,0.2212,0.2628,0.0,0.2033,0.2225,0.0411,0.1854,0.1813,-0.2056,0.0,0.0,0.0,0.0,0.0,0.0,0.0,0.0,0.0,0.0,0.0,0.0,0.0,0.0,0.0,0.0,0.0,0.0,0.0,0.0,0.0,0.0,0.0,0.0,0.0,0.0,0.0,0.0,0.0,0.0,0.0,0.0,0.0,0.0,0.0,0.0,0.0,0.0,0.0,0.0,0.0,0.0,0.0,0.0,0.0,0.0,0.0,0.0,0.0,0.0,0.0,0.0,0.0,0.0,1.7996,2.0666,2.3037,2.5008,2.321,2.1913,2.1123,1.8352,0.0,0.0,0.0,0.0,0.0,0.0,0.0,0.0,0.0,0.0,0.0,0.0,0.0,0.0,0.0,0.0,0.0,0.0,0.0,0.0,0.0,0.0,0.0,0.0,0.0,0.0,0.0,0.2643,0.0,0.0,0.0,0.0,0.0,0.0,0.0,0.0,0.0,0.0,0.0,0.0,0.0,0.0,-0.2406,-0.0598,-0.0197,-0.0389,0.0,0.0,0.0775,-0.0778,0.039,0.0383,0.0,0.0,0.0,0.0,0.0,0.0,0.0,0.0,0.0,0.0,0.0,0.0,0.0,0.0,0.0,0.0,0.0,0.0,0.0,0.0,0.0,0.0,0.0,0.0,0.0,0.0,0.0,0.0,0.0,0.0,0.0,0.0,0.0,0.0,0.0,0.0,0.0,0.0,0.0,0.0,0.0,0.0,0.0,0.0,0.0,0.0,0.0,0.0,0.0,0.0,0.0,0.0,0.0,0.0,1.335,1.6259,1.8889,2.0623,2.1531,2.1311,2.0484,1.9074,1.7525,1.6014,0.0,0.0,0.0,0.0,0.0,0.0,0.0,0.0,0.0,0.0,0.0,0.0,0.0,0.0,0.0,0.0,0.0,0.0,0.0,0.0,0.0,0.0,0.0,0.0,0.0,0.0,0.0,0.0,0.0,0.0,0.0,0.0,0.0,0.0,0.0,0.0,0.0,0.0,0.0,0.0,0.0,0.0,-0.0579,0.0,0.0,0.0,0.0,0.0365,-0.1112,0.0,0.0,0.0,0.0,0.0,0.0,0.0,0.0,0.0,0.0,0.0,0.0,0.0,0.0,0.0,0.0,0.0,0.0,0.0,0.0,0.0,0.0,0.0,0.0,0.0,0.0,0.0,0.0,0.0,0.0,0.0,0.0,0.0,0.0,0.0,0.0,0.0,0.0,0.0,0.0,0.0,0.0,0.0,0.0,0.0,0.0,0.0,0.0,0.0,0.0,0.0,0.0,0.0,0.0,0.0,0.0,0.0,1.4042,1.7415,1.8278,1.6902,1.9044,1.9187,1.6406,1.6403,1.5717,0.0,0.0,0.0,0.0,0.0,0.0,0.0,0.0,0.0,0.0,0.0,0.0,0.0,0.0,0.0,0.0,0.0,0.0,0.0,0.0,0.0,0.0,0.0,0.0,0.0,0.0,0.0,0.0,0.0,0.0,0.0,0.0,0.0,0.0,0.0,0.0,0.0,0.0,0.0,0.0,0.0,-0.1935,-0.0184,0.178,0.1917,0.0,0.0,0.034,-0.1238,-0.0175,0.0,0.0,0.0,0.0,0.0,0.0,0.0,0.0,0.0,0.0,0.0,0.0,0.0,0.0,0.0,0.0,0.0,0.0,0.0,0.0,0.0,0.0,0.0,0.0,0.0,0.0,0.0,0.0,0.0,0.0,0.0,0.0,0.0,0.0,0.0,0.0,0.0,0.0,0.0,0.0,0.0,0.0,0.0,0.0,0.0,0.0,0.0,0.0,0.0,0.0,0.0,0.0,0.0,0.0,0.0,0.0,1.3648,1.5766,1.6828,1.6681,1.7395,1.7384,1.6628,1.6227,1.548,0.0,0.0,0.0,0.0,0.0,0.0,0.0,0.0,0.0,0.0,0.0,0.0,0.0,0.0,0.0,0.0,0.0,0.0,0.0,0.0,0.0,0.0,0.0,0.0,0.0,0.0,0.0,0.0,0.0,0.0,0.0,0.0,0.0,0.0,0.0,0.0,0.0,0.0,0.0,0.0,0.0,-0.0509,0.0717,0.1896,0.0,0.0,0.0,0.0,-0.2491,-0.2097,0.0,0.0,0.0,0.0,0.0,0.0,0.0,0.0,0.0,0.0,0.0,0.0,0.0,0.0,0.0,0.0,0.0,0.0,0.0,0.0,0.0,0.0,0.0,0.0,0.0,0.0,0.0,0.0,0.0,0.0,0.0,0.0,0.0,0.0,0.0,0.0,0.0,0.0,0.0,0.0,0.0,0.0,0.0,0.0,0.0,0.0,0.0,0.0,0.0,0.0,0.0,0.0,0.0,0.0,0.0,0.0,1.3685,1.4795,1.5677,1.6337,1.648,1.6433,1.6195,1.5962,1.5069,0.0,0.0,0.0,0.0,0.0,0.0,0.0,0.0,0.0,0.0,0.0,0.0,0.0,0.0,0.0,0.0,0.0,0.0,0.0,0.0,0.0,0.0,0.0,0.0,0.0,0.0,0.0,0.0,0.0,0.0,0.0,0.0,0.0,0.0,0.0,0.0,0.0,0.0,0.0,0.0,-0.1096,-0.0166,0.1215,0.0,0.0,0.0,0.0,0.0,0.0,-0.2298,-0.1915,0.0,0.0,0.0,0.0,0.0,0.0,0.0,0.0,0.0,0.0,0.0,0.0,0.0,0.0,0.0,0.0,0.0,0.0,0.0,0.0,0.0,0.0,0.0,0.0,0.0,0.0,0.0,0.0,0.0,0.0,0.0,0.0,0.0,0.0,0.0,0.0,0.0,0.0,0.0,0.0,0.0,0.0,0.0,0.0,0.0,0.0,0.0,0.0,0.0,0.0,0.0,0.0,0.0,0.0,0.0,1.3865,1.4102,1.4847,1.592,1.5989,1.5899,1.5661,1.5619,1.4832,1.3225,0.0,0.0,0.0,0.0,0.0,0.0,0.0,0.0,0.0,0.0,0.0,0.0,0.0,0.0,0.0,0.0,0.0,0.0,0.0,0.0,0.0,0.0,0.0,0.0,0.0,0.0,0.0,0.0,0.0,0.0,0.0,0.0,0.0,0.0,0.0,0.0,0.0,0.0,0.0,-0.0609,-0.0323,0.0,0.0,0.0,0.0,0.0,0.0,0.0,0.0,-0.1702,0.0,0.0,0.0,0.0,0.0,0.0,0.0,0.0,0.0,0.0,0.0,0.0,0.0,0.0,0.0,0.0,0.0,0.0,0.0,0.0,0.0,0.0,0.0,0.0,0.0,0.0,0.0,0.0,0.0,0.0,0.0,0.0,0.0,0.0,0.0,0.0,0.0,0.0,0.0,0.0,0.0,0.0,0.0,0.0,0.0,0.0,0.0,0.0,0.0,0.0,0.0,0.0,0.0,0.0,0.0,0.0,1.416,1.4932,1.5677,1.5904,1.5894,1.5661,1.546,1.4594,1.2982,0.0,0.0,0.0,0.0,0.0,0.0,0.0,0.0,0.0,0.0,0.0,0.0,0.0,0.0,0.0,0.0,0.0,0.0,0.0,0.0,0.0,0.0,0.0,0.0,0.0,0.0,0.0,0.0,0.0,0.0,0.0,0.0,0.0,0.0,0.0,0.0,0.0,0.0,-0.201,-0.1208,0.0,0.0,0.0,0.0,0.0,0.0,0.0,0.0,-0.29,0.0,0.0,0.0,0.0,0.0,0.0,0.0,0.0,0.0,0.0,0.0,0.0,0.0,0.0,0.0,0.0,0.0,0.0,0.0,0.0,0.0,0.0,0.0,0.0,0.0,0.0,0.0,0.0,0.0,0.0,0.0,0.0,0.0,0.0,0.0,0.0,0.0,0.0,0.0,0.0,0.0,0.0,0.0,0.0,0.0,0.0,0.0,0.0,0.0,0.0,0.0,0.0,0.0,0.0,0.0,0.0,0.0,0.0,1.4467,1.5265,1.5513,1.5577,1.545,1.4879,1.3854,0.0,0.0,0.0,0.0,0.0,0.0,0.0,0.0,0.0,0.0,0.0,0.0,0.0,0.0,0.0,0.0,0.0,0.0,0.0,0.0,0.0,0.0,0.0,0.0,0.0,0.0,0.0,0.0,0.0,0.0,0.0,0.0,0.0,0.0,0.0,0.0,0.0,0.0,0.0,0.0,0.0,0.0,0.0,0.0,0.0,0.0,0.0,0.0,0.0,0.0,0.0,0.0,0.0,0.0,0.0,0.0,0.0,0.0,0.0,0.0,0.0,0.0,0.0,0.0,0.0,0.0,0.0,0.0,0.0,0.0,0.0,0.0,0.0,0.0,0.0,0.0,0.0,0.0,0.0,0.0,0.0,0.0,0.0,0.0,0.0,0.0,0.0,0.0,0.0,0.0,0.0,0.0,0.0,0.0,0.0,0.0,0.0,0.0,0.0,0.0,0.0,0.0,0.0,0.0,0.0,0.0,0.0,0.0,1.3954,1.4869,1.5159,1.5281,1.5228,1.4504,1.3334,0.0,0.0,0.0,0.0,0.0,0.0,0.0,0.0,0.0,0.0,0.0,0.0,0.0,0.0,0.0,0.0,0.0,0.0,0.0,0.0,0.0,0.0,0.0,0.0,0.0,0.0,0.0,0.0,0.0,0.0,0.0,0.0,0.0,0.0,0.0,0.0,0.0,0.0,0.0,0.0,0.0,0.0,0.0,0.0,0.0,0.0,0.0,0.0,-0.2618,0.0,0.0,0.0,0.0,0.0,0.0,0.0,0.0,0.0,0.0,0.0,0.0,0.0,0.0,0.0,0.0,0.0,0.0,0.0,0.0,0.0,0.0,0.0,0.0,0.0,0.0,0.0,0.0,0.0,0.0,0.0,0.0,0.0,0.0,0.0,0.0,0.0,0.0,0.0,0.0,0.0,0.0,0.0,0.0,0.0,0.0,0.0,0.0,0.0,0.0,0.0,0.0,0.0,0.0,0.0,0.0,0.0,0.0,0.0,1.3711,1.4631,1.5075,1.5207,1.4985,1.4333,1.3135,0.0,0.0,0.0,0.0,0.0,0.0,0.0,0.0,0.0,0.0,0.0,0.0,0.0,0.0,0.0,0.0,0.0,0.0,0.0,0.0,0.0,0.0,0.0,0.0,0.0,0.0,0.0,0.0,0.0,0.0,0.0,0.0,0.0,0.0,0.0,0.0,0.0,0.0,0.0,0.0,0.0,0.0,0.0,0.0,0.0,0.0,0.0,0.0,0.0,0.0,0.0,0.0,0.0,0.0,0.0,0.0,0.0,0.0,0.0,0.0,0.0,0.0,0.0,0.0,0.0,0.0,0.0,0.0,0.0,0.0,0.0,0.0,0.0,0.0,0.0,0.0,0.0,0.0,0.0,0.0,0.0,0.0,0.0,0.0,0.0,0.0,0.0,0.0,0.0,0.0,0.0,0.0,0.0,0.0,0.0,0.0,0.0,0.0,0.0,0.0,0.0,0.0,0.0,0.0,0.0,0.0,0.0,0.0,1.3136,1.4187,1.4663,1.4604,1.3976,1.3162,1.2307,0.0,0.0,0.0,0.0,0.0,0.0,0.0,0.0,0.0,0.0,0.0,0.0,0.0,0.0,0.0,0.0,0.0,0.0,0.0,0.0,0.0,0.0,0.0,0.0,0.0,0.0,0.0,0.0,0.0,0.0,0.0,0.0,0.0,0.0,0.0,0.0,0.0,0.0,0.0,0.0,0.0,0.0,0.0,0.0,0.0,0.0,0.0,0.0,0.0,0.0,0.0,0.0,0.0,0.0,0.0,0.0,0.0,0.0,0.0,0.0,0.0,0.0,0.0,0.0,0.0,0.0,0.0,0.0,0.0,0.0,0.0,0.0,0.0,0.0,0.0,0.0,0.0,0.0,0.0,0.0,0.0,0.0,0.0,0.0,0.0,0.0,0.0,0.0,0.0,0.0,0.0,0.0,0.0,0.0,0.0,0.0,0.0,0.0,0.0,0.0,0.0,0.0,0.0,0.0,0.0,0.0,0.0,0.0,0.0,1.3516,1.3886,1.368,1.2877,1.2202,1.1268,0.0,0.0,0.0,0.0,0.0,0.0,0.0,0.0,0.0,0.0,0.0,0.0,0.0,0.0,0.0,0.0,0.0,0.0,0.0,0.0,0.0,0.0,0.0,0.0,0.0,0.0,0.0,0.0,0.0,0.0,0.0,0.0,0.0,0.0,0.0,0.0,0.0,0.0,0.0,0.0,0.0,0.0,0.0,0.0,0.0,0.0,0.0,0.0,0.0,0.0,0.0,0.0,0.0,0.0,0.0,0.0,0.0,0.0,0.0,0.0,0.0,0.0,0.0,0.0,0.0,0.0,0.0,0.0,0.0,0.0,0.0,0.0,0.0,0.0,0.0,0.0,0.0,0.0,0.0,0.0,0.0,0.0,0.0,0.0,0.0,0.0,0.0,0.0,0.0,0.0,0.0,0.0,0.0,0.0,0.0,0.0,0.0,0.0,0.0,0.0,0.0,0.0,0.0,0.0,0.0,0.0,0.0,0.0,0.0,1.2411,1.2628,1.2401,1.192,1.1397,1.0469,0.0,0.0,0.0,0.0,0.0,0.0,0.0,0.0,0.0,0.0,0.0,0.0,0.0,0.0,0.0,0.0,0.0,0.0,0.0,0.0,0.0,0.0,0.0,0.0,0.0,0.0,0.0,0.0,0.0,0.0,0.0,0.0,0.0,0.0,0.0,0.0,0.0,0.0,0.0,0.0,0.0,0.0,0.0,0.0,0.0,0.0,0.0,0.0,0.0,0.0,0.0,0.0,0.0,0.0,0.0,0.0,0.0,0.0,0.0,0.0,0.0,0.0,0.0,0.0,0.0,0.0,0.0,0.0,0.0,0.0,0.0,0.0,0.0,0.0,0.0,0.0,0.0,0.0,0.0,0.0,0.0,0.0,0.0,0.0,0.0,0.0,0.0,0.0,0.0,0.0,0.0,0.0,0.0,0.0,0.0,0.0,0.0,0.0,0.0,0.0,0.0,0.0,0.0,0.0,0.0,0.0,0.0,0.0,0.0,1.1017,1.1281,1.1418,1.1402,1.0453,0.9712,0.9257,0.0,0.0,0.0,0.0,0.0,0.0,0.0,0.0,0.0,0.0,0.0,0.0,0.0,0.0,0.0,0.0,0.0,0.0,0.0,0.0,0.0,0.0,0.0,0.0,0.0,0.0,0.0,0.0,0.0,0.0,0.0,0.0,0.0,0.0,0.0,0.0,0.0,0.0,0.0,0.0,0.0,0.0,0.0,0.0,0.0,0.0,0.0,0.0,0.0,0.0,0.0,0.0,0.0,0.0,0.0,0.0,0.0,0.0,0.0,0.0,0.0,0.0,0.0,0.0,0.0,0.0,0.0,0.0,0.0,0.0,0.0,0.0,0.0,0.0,0.0,0.0,0.0,0.0,0.0,0.0,0.0,0.0,0.0,0.0,0.0,0.0,0.0,0.0,0.0,0.0,0.0,0.0,0.0,0.0,0.0,0.0,0.0,0.0,0.0,0.0,0.0,0.0,0.0,0.0,0.0,0.0,0.0,0.0,0.9986,1.0435,1.0694,1.0679,0.9921,0.9283,0.0,0.0,0.0,0.0,0.0,0.0,0.0,0.0,0.0,0.0,0.0,0.0,0.0,0.0,0.0,0.0,0.0,0.0,0.0,0.0,0.0,0.0,0.0,0.0,0.0,0.0,0.0,0.0,0.0,0.0,0.0,0.0,0.0,0.0,0.0,0.0,0.0,0.0,0.0,0.0,0.0,0.0,0.0,0.0,0.0,0.0,0.0,0.0,0.0,0.0,0.0,0.0,0.0,0.0,0.0,0.0,0.0,0.0,0.0,0.0,0.0,0.0,0.0,0.0,0.0,0.0,0.0,0.0,0.0,0.0,0.0,0.0,0.0,0.0,0.0,0.0,0.0,0.0,0.0,0.0,0.0,0.0,0.0,0.0,0.0,0.0,0.0,0.0,0.0,0.0,0.0,0.0,0.0,0.0,0.0,0.0,0.0,0.0,0.0,0.0,0.0,0.0,0.0,0.0,0.0,0.0,0.0,0.0,0.8845,0.9717,1.0182,1.024,0.9807,1.0046,0.937,0.0,0.0,0.0,0.0,0.0,0.0,0.0,0.0,0.0,0.0,0.0,0.0,0.0,0.0,0.0,0.0,0.0,0.0,0.0,0.0,0.0,0.0,0.0,0.0,0.0,0.0,0.0,0.0,0.0,0.0,0.0,0.0,0.0,0.0,0.0,0.0,0.0,0.0,0.0,0.0,0.0,0.0,0.0,0.0,0.0,0.0,0.0,0.0,0.0,0.0,0.0,0.0,0.0,0.0,0.0,0.0,0.0,0.0,0.0,0.0,0.0,0.0,0.0,0.0,0.0,0.0,0.0,0.0,0.0,0.0,0.0,0.0,0.0,0.0,0.0,0.0,0.0,0.0,0.0,0.0,0.0,0.0,0.0,0.0,0.0,0.0,0.0,0.0,0.0,0.0,0.0,0.0,0.0,0.0,0.0,0.0,0.0,0.0,0.0,0.0,0.0,0.0,0.0,0.0,0.0,0.0,0.0,0.0,0.0,0.9019,0.0,0.9955,0.0,0.9707,0.8956,0.0,0.0,0.0,0.0,0.0,0.0,0.0,0.0,0.0,0.0,0.0,0.0,0.0,0.0,0.0,0.0,0.0,0.0,0.0,0.0,0.0,0.0,0.0,0.0,0.0,0.0,0.0,0.0,0.0,0.0,0.0,0.0,0.0,0.0,0.0,0.0,0.0,0.0,0.0,0.0,0.0,0.0,0.0,0.0,0.0,0.0,0.0,0.0,0.0,0.0,0.0,0.0,0.0,0.0,0.0,0.0,0.0,0.0,0.0,0.0,0.0,0.0,0.0,0.0,0.0,0.0,0.0,0.0,0.0,0.0,0.0,0.0,0.0,0.0,0.0,0.0,0.0,0.0,0.0,0.0,0.0,0.0,0.0,0.0,0.0,0.0,0.0,0.0,0.0,0.0,0.0,0.0,0.0,0.0,0.0,0.0,0.0,0.0,0.0,0.0,0.0,0.0,0.0,0.0,0.0,0.0,0.0,0.0,0.0,0.8924,0.9143,0.959,1.0631,0.9527,0.8908,0.0,0.0,0.0,0.0,0.0,0.0,0.0,0.0,0.0,0.0,0.0,0.0,0.0,0.0,0.0,0.0,0.0,0.0,0.0,0.0,0.0,0.0,0.0,0.0,0.0,0.0,0.0,0.0,0.0,0.0,0.0,0.0,0.0,0.0,0.0,0.0,0.0,0.0,0.0,0.0,0.0,0.0,0.0,0.0,0.0,0.0,0.0,0.0,0.0,0.0,0.0,0.0,0.0,0.0,0.0,0.0,0.0,0.0,0.0,0.0,0.0,0.0,0.0,0.0,0.0,0.0,0.0,0.0,0.0,0.0,0.0,0.0,0.0,0.0,0.0,0.0,0.0,0.0,0.0,0.0,0.0,0.0,0.0,0.0,0.0,0.0,0.0,0.0,0.0,0.0,0.0,0.0,0.0,0.0,0.0,0.0,0.0,0.0,0.0,0.0,0.0,0.0,0.0,0.0,0.0,0.0,0.0,0.0,0.0,0.9299,0.9157,0.9167,0.9384,0.9574,0.9284,0.0,0.0,0.0,0.0,0.0,0.0,0.0,0.0,0.0,0.0,0.0,0.0,0.0,0.0,0.0,0.0,0.0,0.0,0.0,0.0,0.0,0.0,0.0,0.0,0.0,0.0,0.0,0.0,0.0,0.0,0.0,0.0,0.0,0.0,0.0,0.0,0.0,0.0,0.0,0.0,0.0,0.0,0.0,0.0,0.0,0.0,0.0,0.0,0.0,0.0,0.0,0.0,0.0,0.0,0.0,0.0,0.0,0.0,0.0,0.0,0.0,0.0,0.0,0.0,0.0,0.0,0.0,0.0,0.0,0.0,0.0,0.0,0.0,0.0,0.0,0.0,0.0,0.0,0.0,0.0,0.0,0.0,0.0,0.0,0.0,0.0,0.0,0.0,0.0,0.0,0.0,0.0,0.0,0.0,0.0,0.0,0.0,0.0,0.0,0.0,0.0,0.0,0.0,0.0,0.0,0.0,0.0,0.0,0.0,0.0,0.9078,0.9167,0.8898,0.8792,0.8782,0.8993,0.0,0.0,0.0,0.0,0.0,0.0,0.0,0.0,0.0,0.0,0.0,0.0,0.0,0.0,0.0,0.0,0.0,0.0,0.0,0.0,0.0,0.0,0.0,0.0,0.0,0.0,0.0,0.0,0.0,0.0,0.0,0.0,0.0,0.0,0.0,0.0,0.0,0.0,0.0,0.0,0.0,0.0,0.0,0.0,0.0,0.0,0.0,0.0,0.0,0.0,0.0,0.0,0.0,0.0,0.0,0.0,0.0,0.0,0.0,0.0,0.0,0.0,0.0,0.0,0.0,0.0,0.0,0.0,0.0,0.0,0.0,0.0,0.0,0.0,0.0,0.0,0.0,0.0,0.0,0.0,0.0,0.0,0.0,0.0,0.0,0.0,0.0,0.0,0.0,0.0,0.0,0.0,0.0,0.0,0.0,0.0,0.0,0.0,0.0,0.0,0.0,0.0,0.0,0.0,0.0,0.0,0.0,0.0,0.0,0.0,0.8882,0.8692,0.8475,0.8486,0.0,0.0,0.0,0.0,0.0,0.0,0.0,0.0,0.0,0.0,0.0,0.0,0.0,0.0,0.0,0.0,0.0,0.0,0.0,0.0,0.0,0.0,0.0,0.0,0.0,0.0,0.0,0.0,0.0,0.0,0.0,0.0,0.0,0.0,0.0,0.0,0.0,0.0,0.0,0.0,0.0,0.0,0.0,0.0,0.0,0.0,0.0,0.0,0.0,0.0,0.0,0.0,0.0,0.0,0.0,0.0,0.0,0.0,0.0,0.0,0.0,0.0,0.0,0.0,0.0,0.0,0.0,0.0,0.0,0.0,0.0,0.0,0.0,0.0,0.0,0.0,0.0,0.0,0.0,0.0,0.0,0.0,0.0,0.0,0.0,0.0,0.0,0.0,0.0,0.0,0.0,0.0,0.0,0.0,0.0,0.0,0.0,0.0,0.0,0.0,0.0,0.0,0.0,0.0,0.0,0.0,0.0,0.0,0.0,0.0,0.0,0.848,0.865,0.8507,0.0,0.8311,0.0,0.0,0.0,0.0,0.0,0.0,0.0,0.0,0.0,0.0,0.0,0.0,0.0,0.0,0.0,0.0,0.0,0.0,0.0,0.0,0.0,0.0,0.0,0.0,0.0,0.0,0.0,0.0,0.0,0.0,0.0,0.0,0.0,0.0,0.0,0.0,0.0,0.0,0.0,0.0,0.0,0.0,0.0,0.0,0.0,0.0,0.0,0.0,0.0,0.0,0.0,0.0,0.0,0.0,0.0,0.0,0.0,0.0,0.0,0.0,0.0,0.0,0.0,0.0,0.0,0.0,0.0,0.0,0.0,0.0,0.0,0.0,0.0,0.0,0.0,0.0,0.0,0.0,0.0,0.0,0.0,0.0,0.0,0.0,0.0,0.0,0.0,0.0,0.0,0.0,0.0,0.0,0.0,0.0,0.0,0.0,0.0,0.0,0.0,0.0,0.0,0.0,0.0,0.0,0.0,0.0,0.0,0.0,0.0,0.0,0.0,0.0,0.8729,0.8554,0.7852,0.0,0.0,0.0,0.0,0.0,0.0,0.0,0.0,0.0,0.0,0.0,0.0,0.0,0.0,0.0,0.0,0.0,0.0,0.0,0.0,0.0,0.0,0.0,0.0,0.0,0.0,0.0,0.0,0.0,0.0,0.0,0.0,0.0,0.0,0.0,0.0,0.0,0.0,0.0,0.0,0.0,0.0,0.0,0.0,0.0,0.0,0.0,0.0,0.0,0.0,0.0,0.0,0.0,0.0,0.0,0.0,0.0,0.0,0.0,0.0,0.0,0.0,0.0,0.0,0.0,0.0,0.0,0.0,0.0,0.0,0.0,0.0,0.0,0.0,0.0,0.0,0.0,0.0,0.0,0.0,0.0,0.0,0.0,0.0,0.0,0.0,0.0,0.0,0.0,0.0,0.0,0.0,0.0,0.0,0.0,0.0,0.0,0.0,0.0,0.0,0.0,0.0,0.0,0.0,0.0,0.0,0.0,0.0,0.0,0.0,0.8528,0.8216,0.8438,0.8227,0.7524,0.0,0.0,0.0,0.0,0.0,0.0,0.0,0.0,0.0,0.0,0.0,0.0,0.0,0.0,0.0,0.0,0.0,0.0,0.0,0.0,0.0,0.0,0.0,0.0,0.0,0.0,0.0,0.0,0.0,0.0,0.0,0.0,0.0,0.0,0.0,0.0,0.0,0.0,0.0,0.0,0.0,0.0,0.0,0.0,0.0,0.0,0.0,0.0,0.0,0.0,0.0,0.0,0.0,0.0,0.0,0.0,0.0,0.0,0.0,0.0,0.0,0.0,0.0,0.0,0.0,0.0,0.0,0.0,0.0,0.0,0.0,0.0,0.0,0.0,0.0,0.0,0.0,0.0,0.0,0.0,0.0,0.0,0.0,0.0,0.0,0.0,0.0,0.0,0.0,0.0,0.0,0.0,0.0,0.0,0.0,0.0,0.0,0.0,0.0,0.0,0.0,0.0,0.0,0.0,0.0,0.0,0.0,0.0,0.0,0.0,0.0,0.0,0.0,0.0,0.7491,0.0,0.0,0.0,0.0,0.0,0.0,0.0,0.0,0.0,0.0,0.0,0.0,0.0,0.0,0.0,0.0,0.0,0.0,0.0,0.0,0.0,0.0,0.0,0.0,0.0,0.0,0.0,0.0,0.0,0.0,0.0,0.0,0.0,0.0,0.0,0.0,0.0,0.0,0.0,0.0,0.0,0.0,0.0,0.0,0.0,0.0,0.0,0.0,0.0,0.0,0.0,0.0,0.0,0.0,0.0,0.0,0.0,0.0,0.0,0.0,0.0,0.0,0.0,0.0,0.0,0.0,0.0,0.0,0.0,0.0,0.0,0.0,0.0,0.0,0.0,0.0,0.0,0.0,0.0,0.0,0.0,0.0,0.0,0.0,0.0,0.0,0.0,0.0,0.0,0.0,0.0,0.0,0.0,0.0,0.0,0.0,0.0,0.0,0.0,0.0,0.0,0.0,0.0,0.0,0.0,0.0,0.0,0.0,0.0,0.0,0.0,0.0,0.0,0.0,0.0,0.0,0.0,0.0,0.0,0.0,0.0,0.0,0.0,0.0,0.0,0.0,0.0,0.0,0.0,0.0,0.0,0.0,0.0,0.0,0.0,0.0,0.0,0.0,0.0,0.0,0.0,0.0,0.0,0.0,0.0,0.0,0.0,0.0,0.0,0.0,0.0,0.0,0.0,0.0,0.0,0.0,0.0,0.0,0.0,0.0,0.0,0.0,0.0,0.0,0.0,0.0,0.0,0.0,0.0,0.0,0.0,0.0,0.0,0.0,0.0,0.0,0.0,0.0,0.0,0.0,0.0,0.0,0.0,0.0,0.0,0.0,0.0,0.0,0.0,0.0,0.0,0.0,0.0,0.0,0.0,0.0,0.0,0.0,0.0,0.0,0.0,0.0,0.0,0.0,0.0,0.0,0.0,0.0,0.0,0.0,0.0,0.0,0.0,0.0,0.0,0.0,0.0,0.0,0.0,0.0,0.0,0.0,0.0,0.0,0.0,0.0,0.0,0.0,0.0,0.0,0.0,0.0,0.0,0.0,0.0,0.0,0.0,0.0,0.0,0.0,0.0,0.0,0.0,0.0,0.0,0.0,0.0,0.0,0.0,0.0,0.0,0.0,0.0,0.0,0.0,0.0,0.0,0.0,0.0,0.0,0.0,0.0,0.0,0.0,0.0,0.0,0.0,0.0,0.0,0.0,0.0,0.0,0.0,0.0,0.0,0.0,0.0,0.0,0.0,0.0,0.0,0.0,0.0,0.0,0.0,0.0,0.0,0.0,0.0,0.0,0.0,0.0,0.0,0.0,0.0,0.0,0.0,0.0,0.0,0.0,0.0,0.0,0.0,0.0,0.0,0.0,0.0,0.0,0.0,0.0,0.0,0.0,0.0,0.0,0.0,0.0,0.0,0.0,0.0,0.0,0.0,0.0,0.0,0.0,0.0,0.0,0.0,0.0,0.0,0.0,0.0,0.0,0.0,0.0,0.0,0.0,0.0,0.0,0.0,0.0,0.0,0.0,0.0,0.0,0.0,0.0,0.0,0.0,0.0,0.0,0.0,0.0,0.0,0.0,0.0,0.0,0.0,0.0,0.0,0.0,0.0,0.0,0.0,0.0,0.0,0.0,0.0,0.0,0.0,0.0,0.0,0.0,0.0,0.0,0.0,0.0,0.0,0.0,0.0,0.0,0.0,0.0,0.0,0.0,0.0,0.0,0.0,0.0,0.0,0.0,0.0,0.0,0.0,0.0,0.0,0.0,0.0,0.0,0.0,0.0,0.0,0.0,0.0,0.0,0.0,0.0,0.0,0.0,0.0,0.0,0.0,0.0,0.0,0.0,0.0,0.0,0.0,0.0,0.0,0.0,0.0,0.0,0.0,0.0,0.0,0.0,0.0,0.0,0.0,0.0,0.0,0.0,0.0,0.0,0.0,0.0,0.0,0.0,0.0,0.0,0.0,0.0,0.0,0.0,0.0,0.0,0.0,0.0,0.0,0.0,0.0,0.0,0.0,0.0,0.0,0.0,0.0,0.0,0.0,0.0,0.0,0.0,0.0,0.0,0.0,0.0,0.0,0.0,0.0,0.0,0.0,0.0,0.0,0.0,0.0,0.0,0.0,0.0,0.0,0.0,0.0,0.0,0.0,0.0,0.0,0.0,0.0,0.0,0.0,0.0,0.0,0.0,0.0,0.0,0.0,0.0,0.0,0.0,0.0,0.0,0.0,0.0,0.0,0.0,0.0,0.0,0.0,0.0,0.0,0.0,0.0,0.0,0.0,0.0,0.0,0.0,0.0,0.0,0.0,0.0,0.0,0.0,0.0,0.0,0.0,0.0,0.0,0.0,0.0,0.0,0.0,0.0,0.0,0.0,0.0,0.0,0.0,0.0,0.0,0.0,0.0,0.0,0.0,0.0,0.0,0.0,0.0,0.0,0.0,0.0,0.0,0.0,0.0,0.0,0.0,0.0,0.0,0.0,0.0,0.0,0.0,0.0,0.0,0.0,0.0,0.0,0.0,0.0,0.0,0.0,0.0,0.0,0.0,0.0,0.0,0.0,0.0,0.0,0.0,0.0,0.0,0.0,0.0,0.0,0.0,0.0,0.0,0.0,0.0,0.0,0.0,0.0,0.0,0.0,0.0,0.0,0.0,0.0,0.0,0.0,0.0,0.0,0.0,0.0,0.0,0.0,0.0,0.0,0.0,0.0,0.0,0.0,0.0,0.0,0.0,0.0,0.0,0.0,0.0,0.0,0.0,0.0,0.0,0.0,0.0,0.0,0.0,0.0,0.0,0.0,0.0,0.0,0.0,0.0,0.0,0.0,0.0,0.0,0.0,0.0,0.0,0.0,0.0,0.0,0.0,0.0,0.0,0.0,0.0,0.0,0.0,0.0,0.0,0.0,0.0,0.0,0.0,0.0,0.0,0.0,0.0,0.0,0.0,0.0,0.0,0.0,0.0,0.0,0.0,0.0,0.0,0.0,0.0,0.0,0.0,0.0,0.0,0.0,0.0,0.0,0.0,0.0,0.0,0.0,0.0,0.0,0.0,0.0,0.0,0.0,0.0,0.0,0.0,0.0,0.0,0.0,0.0,0.0,0.0,0.0,0.0,0.0,0.0,0.0,0.0,0.0,0.0,0.0,0.0,0.0,0.0,0.0,0.0,0.0,0.0,0.0,0.0,0.0,0.0,0.0,0.0,0.0,0.0,0.0,0.0,0.0,0.0,0.0,0.0,0.0,0.0,0.0,0.0,0.0,0.0,0.0,0.0,0.0,0.0,0.0,0.0,0.0,0.0,0.0,0.0,0.0,0.0,0.0,0.0,0.0,0.0,0.0,0.0,0.0,0.0,0.0,0.0,0.0,0.0,0.0,0.0,0.0,0.0,0.0,0.0,0.0,0.0,0.0,0.0,0.0,0.0,0.0,0.0,0.0,0.0,0.0,0.0,0.0,0.0,0.0,0.0,0.0,0.0,0.0,0.0,0.0,0.0,0.0,0.0,0.0,0.0,0.0,0.0,0.0,0.0,0.0,0.0,0.0,0.0,0.0,0.0,0.0,0.0,0.0,0.0,0.0,0.0,0.0,0.0,0.0,0.0,0.0,0.0,0.0,0.0,0.0,0.0,0.0,0.0,0.0,0.0,0.0,0.0,0.0,0.0,0.0,0.0,0.0,0.0,0.0,0.0,0.0,0.0,0.0,0.0,0.0,0.0,0.0,0.0,0.0,0.0,0.0,0.0,0.0,0.0,0.0,0.0,0.0,0.0,0.0,0.0,0.0,0.0,0.0,0.0,0.0,0.0,0.0,0.0,0.0,0.0,0.0,0.0,0.0,0.0,0.0,0.0,0.0,0.0,0.0,0.0,0.0,0.0,0.0,0.0,0.0,0.0,0.0,0.0,0.0,0.0,0.0,0.0,0.0,0.0,0.0,0.0,0.0,0.0,0.0,0.0,0.0,0.0,0.0,0.0,0.0,0.0,0.0,0.0,0.0,0.0,0.0,0.0,0.0,0.0,0.0,0.0,0.0,0.0,0.0,0.0,0.0,0.0,0.0,0.0,0.0,0.0,0.0,0.0,0.0,0.0,0.0,0.0,0.0,0.0,0.0,0.0,0.0,0.0,0.0,0.0,0.0,0.0,0.0,0.0,0.0,0.0,0.0,0.0,0.0,0.0,0.0,0.0,0.0,0.0,0.0,0.0,0.0,0.0,0.0,0.0,0.0,0.0,0.0,0.0,0.0,0.0,0.0,0.0,0.0,0.0,0.0,0.0,0.0,0.0,0.0,0.0,0.0,0.0,0.0,0.0,0.0,0.0,0.0,0.0,0.0,0.0,0.0,0.0,0.0,0.0,0.0,0.0,0.0,0.0,0.0,0.0,0.0]}]]]